<?xml version="1.0" encoding="UTF-8" standalone="no" ?>
<gpx xmlns="http://www.topografix.com/GPX/1/1" xmlns:xsi="http://www.w3.org/2001/XMLSchema-instance" xsi:schemaLocation="http://www.topografix.com/GPX/1/1 http://www.topografix.com/GPX/1/1/gpx.xsd" version="1.1" creator="VisuGPX - https://www.visugpx.com">
  <metadata>
    <name>Col République -Le Bessat</name>
  </metadata>
  <trk>
    <name><![CDATA[Col République -Le Bessat]]></name>
    <extensions>
      <line xmlns="http://www.topografix.com/GPX/gpx_style/0/2">
        <color>0000FF</color>
        <width>4</width>
      </line>
    </extensions>
    <trkseg>
      <trkpt lat="45.32639" lon="4.48117">
        <ele>1141.6</ele>
        <time>2023-04-30T13:02:25Z</time>
      </trkpt>
      <trkpt lat="45.32639" lon="4.48117">
        <ele>1141.8</ele>
        <time>2023-04-30T13:02:26Z</time>
      </trkpt>
      <trkpt lat="45.32639" lon="4.48118">
        <ele>1140.8</ele>
        <time>2023-04-30T13:03:01Z</time>
      </trkpt>
      <trkpt lat="45.32631" lon="4.48116">
        <ele>1140.2</ele>
        <time>2023-04-30T13:04:21Z</time>
      </trkpt>
      <trkpt lat="45.32627" lon="4.48115">
        <ele>1140.2</ele>
        <time>2023-04-30T13:04:23Z</time>
      </trkpt>
      <trkpt lat="45.32625" lon="4.48114">
        <ele>1140.4</ele>
        <time>2023-04-30T13:04:24Z</time>
      </trkpt>
      <trkpt lat="45.32623" lon="4.48114">
        <ele>1140.6</ele>
        <time>2023-04-30T13:04:25Z</time>
      </trkpt>
      <trkpt lat="45.32621" lon="4.48114">
        <ele>1140.6</ele>
        <time>2023-04-30T13:04:26Z</time>
      </trkpt>
      <trkpt lat="45.32618" lon="4.48113">
        <ele>1140.6</ele>
        <time>2023-04-30T13:04:27Z</time>
      </trkpt>
      <trkpt lat="45.32616" lon="4.48113">
        <ele>1140.6</ele>
        <time>2023-04-30T13:04:28Z</time>
      </trkpt>
      <trkpt lat="45.32614" lon="4.48113">
        <ele>1140.6</ele>
        <time>2023-04-30T13:04:29Z</time>
      </trkpt>
      <trkpt lat="45.32602" lon="4.48122">
        <ele>1140.8</ele>
        <time>2023-04-30T13:04:37Z</time>
      </trkpt>
      <trkpt lat="45.32602" lon="4.48126">
        <ele>1140.6</ele>
        <time>2023-04-30T13:04:38Z</time>
      </trkpt>
      <trkpt lat="45.32603" lon="4.48129">
        <ele>1140.6</ele>
        <time>2023-04-30T13:04:39Z</time>
      </trkpt>
      <trkpt lat="45.32604" lon="4.48132">
        <ele>1140.6</ele>
        <time>2023-04-30T13:04:40Z</time>
      </trkpt>
      <trkpt lat="45.32606" lon="4.48134">
        <ele>1140.6</ele>
        <time>2023-04-30T13:04:41Z</time>
      </trkpt>
      <trkpt lat="45.32608" lon="4.48136">
        <ele>1140.6</ele>
        <time>2023-04-30T13:04:42Z</time>
      </trkpt>
      <trkpt lat="45.32616" lon="4.48141">
        <ele>1140.6</ele>
        <time>2023-04-30T13:04:46Z</time>
      </trkpt>
      <trkpt lat="45.32619" lon="4.48142">
        <ele>1140.6</ele>
        <time>2023-04-30T13:04:47Z</time>
      </trkpt>
      <trkpt lat="45.32621" lon="4.48142">
        <ele>1140.6</ele>
        <time>2023-04-30T13:04:48Z</time>
      </trkpt>
      <trkpt lat="45.32623" lon="4.48143">
        <ele>1140.8</ele>
        <time>2023-04-30T13:04:49Z</time>
      </trkpt>
      <trkpt lat="45.32625" lon="4.48143">
        <ele>1140.8</ele>
        <time>2023-04-30T13:04:50Z</time>
      </trkpt>
      <trkpt lat="45.32628" lon="4.48144">
        <ele>1140.8</ele>
        <time>2023-04-30T13:04:51Z</time>
      </trkpt>
      <trkpt lat="45.3263" lon="4.48144">
        <ele>1140.8</ele>
        <time>2023-04-30T13:04:52Z</time>
      </trkpt>
      <trkpt lat="45.32632" lon="4.48143">
        <ele>1140.8</ele>
        <time>2023-04-30T13:04:53Z</time>
      </trkpt>
      <trkpt lat="45.32667" lon="4.48148">
        <ele>1143.4</ele>
        <time>2023-04-30T13:05:09Z</time>
      </trkpt>
      <trkpt lat="45.32675" lon="4.48154">
        <ele>1144.4</ele>
        <time>2023-04-30T13:05:16Z</time>
      </trkpt>
      <trkpt lat="45.32677" lon="4.48154">
        <ele>1144.6</ele>
        <time>2023-04-30T13:05:17Z</time>
      </trkpt>
      <trkpt lat="45.32679" lon="4.48154">
        <ele>1144.8</ele>
        <time>2023-04-30T13:05:18Z</time>
      </trkpt>
      <trkpt lat="45.32682" lon="4.48154">
        <ele>1144.8</ele>
        <time>2023-04-30T13:05:19Z</time>
      </trkpt>
      <trkpt lat="45.32684" lon="4.48156">
        <ele>1144.8</ele>
        <time>2023-04-30T13:05:20Z</time>
      </trkpt>
      <trkpt lat="45.32686" lon="4.48158">
        <ele>1144.8</ele>
        <time>2023-04-30T13:05:21Z</time>
      </trkpt>
      <trkpt lat="45.32688" lon="4.4816">
        <ele>1144.8</ele>
        <time>2023-04-30T13:05:22Z</time>
      </trkpt>
      <trkpt lat="45.32704" lon="4.48187">
        <ele>1146.8</ele>
        <time>2023-04-30T13:05:37Z</time>
      </trkpt>
      <trkpt lat="45.32707" lon="4.48192">
        <ele>1147.4</ele>
        <time>2023-04-30T13:05:40Z</time>
      </trkpt>
      <trkpt lat="45.32708" lon="4.48194">
        <ele>1147.6</ele>
        <time>2023-04-30T13:05:41Z</time>
      </trkpt>
      <trkpt lat="45.32708" lon="4.48195">
        <ele>1147.8</ele>
        <time>2023-04-30T13:05:42Z</time>
      </trkpt>
      <trkpt lat="45.3271" lon="4.48198">
        <ele>1148.2</ele>
        <time>2023-04-30T13:05:44Z</time>
      </trkpt>
      <trkpt lat="45.32711" lon="4.48199">
        <ele>1148.4</ele>
        <time>2023-04-30T13:05:45Z</time>
      </trkpt>
      <trkpt lat="45.32712" lon="4.48201">
        <ele>1148.8</ele>
        <time>2023-04-30T13:05:46Z</time>
      </trkpt>
      <trkpt lat="45.32714" lon="4.48202">
        <ele>1149</ele>
        <time>2023-04-30T13:05:47Z</time>
      </trkpt>
      <trkpt lat="45.32715" lon="4.48204">
        <ele>1149.2</ele>
        <time>2023-04-30T13:05:48Z</time>
      </trkpt>
      <trkpt lat="45.32716" lon="4.48205">
        <ele>1149.4</ele>
        <time>2023-04-30T13:05:49Z</time>
      </trkpt>
      <trkpt lat="45.32717" lon="4.48207">
        <ele>1149.6</ele>
        <time>2023-04-30T13:05:50Z</time>
      </trkpt>
      <trkpt lat="45.32718" lon="4.48208">
        <ele>1149.8</ele>
        <time>2023-04-30T13:05:51Z</time>
      </trkpt>
      <trkpt lat="45.32731" lon="4.48227">
        <ele>1152.8</ele>
        <time>2023-04-30T13:06:03Z</time>
      </trkpt>
      <trkpt lat="45.32732" lon="4.48228">
        <ele>1153.2</ele>
        <time>2023-04-30T13:06:04Z</time>
      </trkpt>
      <trkpt lat="45.32733" lon="4.48229">
        <ele>1153.4</ele>
        <time>2023-04-30T13:06:05Z</time>
      </trkpt>
      <trkpt lat="45.32746" lon="4.48248">
        <ele>1156.4</ele>
        <time>2023-04-30T13:06:19Z</time>
      </trkpt>
      <trkpt lat="45.32749" lon="4.48251">
        <ele>1156.8</ele>
        <time>2023-04-30T13:06:21Z</time>
      </trkpt>
      <trkpt lat="45.32751" lon="4.48254">
        <ele>1157.2</ele>
        <time>2023-04-30T13:06:23Z</time>
      </trkpt>
      <trkpt lat="45.32752" lon="4.48256">
        <ele>1157.4</ele>
        <time>2023-04-30T13:06:24Z</time>
      </trkpt>
      <trkpt lat="45.32753" lon="4.48258">
        <ele>1157.4</ele>
        <time>2023-04-30T13:06:25Z</time>
      </trkpt>
      <trkpt lat="45.32754" lon="4.48259">
        <ele>1157.6</ele>
        <time>2023-04-30T13:06:26Z</time>
      </trkpt>
      <trkpt lat="45.32755" lon="4.48261">
        <ele>1157.8</ele>
        <time>2023-04-30T13:06:27Z</time>
      </trkpt>
      <trkpt lat="45.32755" lon="4.48263">
        <ele>1158</ele>
        <time>2023-04-30T13:06:28Z</time>
      </trkpt>
      <trkpt lat="45.32756" lon="4.48265">
        <ele>1158.2</ele>
        <time>2023-04-30T13:06:29Z</time>
      </trkpt>
      <trkpt lat="45.32757" lon="4.48266">
        <ele>1158.2</ele>
        <time>2023-04-30T13:06:30Z</time>
      </trkpt>
      <trkpt lat="45.32758" lon="4.48272">
        <ele>1158.8</ele>
        <time>2023-04-30T13:06:33Z</time>
      </trkpt>
      <trkpt lat="45.32758" lon="4.48274">
        <ele>1158.8</ele>
        <time>2023-04-30T13:06:34Z</time>
      </trkpt>
      <trkpt lat="45.32758" lon="4.48277">
        <ele>1159</ele>
        <time>2023-04-30T13:06:35Z</time>
      </trkpt>
      <trkpt lat="45.32759" lon="4.48289">
        <ele>1159.8</ele>
        <time>2023-04-30T13:06:39Z</time>
      </trkpt>
      <trkpt lat="45.3276" lon="4.4829">
        <ele>1159.8</ele>
        <time>2023-04-30T13:06:40Z</time>
      </trkpt>
      <trkpt lat="45.3276" lon="4.48293">
        <ele>1160.2</ele>
        <time>2023-04-30T13:06:41Z</time>
      </trkpt>
      <trkpt lat="45.32761" lon="4.48295">
        <ele>1160.4</ele>
        <time>2023-04-30T13:06:42Z</time>
      </trkpt>
      <trkpt lat="45.32761" lon="4.48297">
        <ele>1160.6</ele>
        <time>2023-04-30T13:06:43Z</time>
      </trkpt>
      <trkpt lat="45.32761" lon="4.48299">
        <ele>1160.8</ele>
        <time>2023-04-30T13:06:44Z</time>
      </trkpt>
      <trkpt lat="45.32763" lon="4.48311">
        <ele>1161.8</ele>
        <time>2023-04-30T13:06:50Z</time>
      </trkpt>
      <trkpt lat="45.32766" lon="4.48327">
        <ele>1163.2</ele>
        <time>2023-04-30T13:06:59Z</time>
      </trkpt>
      <trkpt lat="45.32765" lon="4.48348">
        <ele>1164.6</ele>
        <time>2023-04-30T13:07:09Z</time>
      </trkpt>
      <trkpt lat="45.32765" lon="4.48349">
        <ele>1164.8</ele>
        <time>2023-04-30T13:07:10Z</time>
      </trkpt>
      <trkpt lat="45.32766" lon="4.48351">
        <ele>1164.8</ele>
        <time>2023-04-30T13:07:11Z</time>
      </trkpt>
      <trkpt lat="45.32766" lon="4.48353">
        <ele>1164.8</ele>
        <time>2023-04-30T13:07:12Z</time>
      </trkpt>
      <trkpt lat="45.32766" lon="4.48355">
        <ele>1165</ele>
        <time>2023-04-30T13:07:13Z</time>
      </trkpt>
      <trkpt lat="45.32767" lon="4.48364">
        <ele>1165.6</ele>
        <time>2023-04-30T13:07:18Z</time>
      </trkpt>
      <trkpt lat="45.32767" lon="4.48365">
        <ele>1165.8</ele>
        <time>2023-04-30T13:07:19Z</time>
      </trkpt>
      <trkpt lat="45.32767" lon="4.48367">
        <ele>1165.8</ele>
        <time>2023-04-30T13:07:20Z</time>
      </trkpt>
      <trkpt lat="45.32767" lon="4.48368">
        <ele>1166</ele>
        <time>2023-04-30T13:07:21Z</time>
      </trkpt>
      <trkpt lat="45.32768" lon="4.48369">
        <ele>1166</ele>
        <time>2023-04-30T13:07:22Z</time>
      </trkpt>
      <trkpt lat="45.32768" lon="4.48371">
        <ele>1166.2</ele>
        <time>2023-04-30T13:07:23Z</time>
      </trkpt>
      <trkpt lat="45.32768" lon="4.48373">
        <ele>1166.2</ele>
        <time>2023-04-30T13:07:24Z</time>
      </trkpt>
      <trkpt lat="45.32767" lon="4.48375">
        <ele>1166.4</ele>
        <time>2023-04-30T13:07:25Z</time>
      </trkpt>
      <trkpt lat="45.32767" lon="4.48378">
        <ele>1166.6</ele>
        <time>2023-04-30T13:07:27Z</time>
      </trkpt>
      <trkpt lat="45.32767" lon="4.48381">
        <ele>1166.6</ele>
        <time>2023-04-30T13:07:28Z</time>
      </trkpt>
      <trkpt lat="45.32766" lon="4.48383">
        <ele>1166.8</ele>
        <time>2023-04-30T13:07:29Z</time>
      </trkpt>
      <trkpt lat="45.32766" lon="4.48385">
        <ele>1166.8</ele>
        <time>2023-04-30T13:07:30Z</time>
      </trkpt>
      <trkpt lat="45.32764" lon="4.48388">
        <ele>1167.8</ele>
        <time>2023-04-30T13:07:43Z</time>
      </trkpt>
      <trkpt lat="45.32763" lon="4.48388">
        <ele>1168.2</ele>
        <time>2023-04-30T13:08:03Z</time>
      </trkpt>
      <trkpt lat="45.32763" lon="4.48387">
        <ele>1166.2</ele>
        <time>2023-04-30T13:08:05Z</time>
      </trkpt>
      <trkpt lat="45.32762" lon="4.48394">
        <ele>1166.2</ele>
        <time>2023-04-30T13:08:28Z</time>
      </trkpt>
      <trkpt lat="45.32762" lon="4.48396">
        <ele>1166.2</ele>
        <time>2023-04-30T13:08:29Z</time>
      </trkpt>
      <trkpt lat="45.32762" lon="4.48398">
        <ele>1166.2</ele>
        <time>2023-04-30T13:08:30Z</time>
      </trkpt>
      <trkpt lat="45.32762" lon="4.484">
        <ele>1166.2</ele>
        <time>2023-04-30T13:08:31Z</time>
      </trkpt>
      <trkpt lat="45.32761" lon="4.48403">
        <ele>1166.2</ele>
        <time>2023-04-30T13:08:32Z</time>
      </trkpt>
      <trkpt lat="45.32761" lon="4.48405">
        <ele>1166.2</ele>
        <time>2023-04-30T13:08:33Z</time>
      </trkpt>
      <trkpt lat="45.3276" lon="4.48407">
        <ele>1166.2</ele>
        <time>2023-04-30T13:08:34Z</time>
      </trkpt>
      <trkpt lat="45.3276" lon="4.4841">
        <ele>1166.4</ele>
        <time>2023-04-30T13:08:35Z</time>
      </trkpt>
      <trkpt lat="45.32757" lon="4.48438">
        <ele>1166.8</ele>
        <time>2023-04-30T13:08:48Z</time>
      </trkpt>
      <trkpt lat="45.32759" lon="4.4846">
        <ele>1168.2</ele>
        <time>2023-04-30T13:08:58Z</time>
      </trkpt>
      <trkpt lat="45.32758" lon="4.48466">
        <ele>1168.8</ele>
        <time>2023-04-30T13:09:01Z</time>
      </trkpt>
      <trkpt lat="45.32757" lon="4.48468">
        <ele>1169</ele>
        <time>2023-04-30T13:09:02Z</time>
      </trkpt>
      <trkpt lat="45.32757" lon="4.4847">
        <ele>1169</ele>
        <time>2023-04-30T13:09:03Z</time>
      </trkpt>
      <trkpt lat="45.32757" lon="4.48472">
        <ele>1169.2</ele>
        <time>2023-04-30T13:09:04Z</time>
      </trkpt>
      <trkpt lat="45.32757" lon="4.48474">
        <ele>1169.4</ele>
        <time>2023-04-30T13:09:05Z</time>
      </trkpt>
      <trkpt lat="45.32757" lon="4.48477">
        <ele>1169.6</ele>
        <time>2023-04-30T13:09:06Z</time>
      </trkpt>
      <trkpt lat="45.32757" lon="4.48479">
        <ele>1170</ele>
        <time>2023-04-30T13:09:07Z</time>
      </trkpt>
      <trkpt lat="45.32757" lon="4.48481">
        <ele>1170</ele>
        <time>2023-04-30T13:09:08Z</time>
      </trkpt>
      <trkpt lat="45.32757" lon="4.48508">
        <ele>1172.6</ele>
        <time>2023-04-30T13:09:21Z</time>
      </trkpt>
      <trkpt lat="45.32757" lon="4.4851">
        <ele>1172.8</ele>
        <time>2023-04-30T13:09:22Z</time>
      </trkpt>
      <trkpt lat="45.32758" lon="4.48512">
        <ele>1173</ele>
        <time>2023-04-30T13:09:23Z</time>
      </trkpt>
      <trkpt lat="45.32758" lon="4.48514">
        <ele>1173.2</ele>
        <time>2023-04-30T13:09:24Z</time>
      </trkpt>
      <trkpt lat="45.32758" lon="4.48517">
        <ele>1173.4</ele>
        <time>2023-04-30T13:09:25Z</time>
      </trkpt>
      <trkpt lat="45.32758" lon="4.48519">
        <ele>1173.6</ele>
        <time>2023-04-30T13:09:26Z</time>
      </trkpt>
      <trkpt lat="45.32758" lon="4.48521">
        <ele>1173.6</ele>
        <time>2023-04-30T13:09:27Z</time>
      </trkpt>
      <trkpt lat="45.32758" lon="4.48523">
        <ele>1173.8</ele>
        <time>2023-04-30T13:09:28Z</time>
      </trkpt>
      <trkpt lat="45.32757" lon="4.48552">
        <ele>1176.4</ele>
        <time>2023-04-30T13:09:42Z</time>
      </trkpt>
      <trkpt lat="45.32757" lon="4.48553">
        <ele>1176.6</ele>
        <time>2023-04-30T13:09:43Z</time>
      </trkpt>
      <trkpt lat="45.32756" lon="4.48583">
        <ele>1178.6</ele>
        <time>2023-04-30T13:09:58Z</time>
      </trkpt>
      <trkpt lat="45.3276" lon="4.4861">
        <ele>1180.8</ele>
        <time>2023-04-30T13:10:11Z</time>
      </trkpt>
      <trkpt lat="45.32761" lon="4.48612">
        <ele>1180.8</ele>
        <time>2023-04-30T13:10:12Z</time>
      </trkpt>
      <trkpt lat="45.32762" lon="4.48614">
        <ele>1181</ele>
        <time>2023-04-30T13:10:13Z</time>
      </trkpt>
      <trkpt lat="45.32762" lon="4.48616">
        <ele>1181</ele>
        <time>2023-04-30T13:10:14Z</time>
      </trkpt>
      <trkpt lat="45.32763" lon="4.48617">
        <ele>1181.2</ele>
        <time>2023-04-30T13:10:15Z</time>
      </trkpt>
      <trkpt lat="45.32773" lon="4.48645">
        <ele>1184.4</ele>
        <time>2023-04-30T13:10:31Z</time>
      </trkpt>
      <trkpt lat="45.32775" lon="4.48656">
        <ele>1185.4</ele>
        <time>2023-04-30T13:10:37Z</time>
      </trkpt>
      <trkpt lat="45.32776" lon="4.48658">
        <ele>1185.6</ele>
        <time>2023-04-30T13:10:38Z</time>
      </trkpt>
      <trkpt lat="45.32777" lon="4.4866">
        <ele>1185.8</ele>
        <time>2023-04-30T13:10:39Z</time>
      </trkpt>
      <trkpt lat="45.32778" lon="4.48662">
        <ele>1186</ele>
        <time>2023-04-30T13:10:40Z</time>
      </trkpt>
      <trkpt lat="45.32778" lon="4.48664">
        <ele>1186.2</ele>
        <time>2023-04-30T13:10:41Z</time>
      </trkpt>
      <trkpt lat="45.32779" lon="4.48666">
        <ele>1186.2</ele>
        <time>2023-04-30T13:10:42Z</time>
      </trkpt>
      <trkpt lat="45.32779" lon="4.48667">
        <ele>1186.4</ele>
        <time>2023-04-30T13:10:43Z</time>
      </trkpt>
      <trkpt lat="45.3278" lon="4.4867">
        <ele>1186.6</ele>
        <time>2023-04-30T13:10:44Z</time>
      </trkpt>
      <trkpt lat="45.3278" lon="4.48671">
        <ele>1186.8</ele>
        <time>2023-04-30T13:10:45Z</time>
      </trkpt>
      <trkpt lat="45.32779" lon="4.48676">
        <ele>1188.8</ele>
        <time>2023-04-30T13:11:29Z</time>
      </trkpt>
      <trkpt lat="45.32787" lon="4.48696">
        <ele>1189</ele>
        <time>2023-04-30T13:11:54Z</time>
      </trkpt>
      <trkpt lat="45.32789" lon="4.48699">
        <ele>1189.2</ele>
        <time>2023-04-30T13:11:56Z</time>
      </trkpt>
      <trkpt lat="45.32792" lon="4.48709">
        <ele>1189.4</ele>
        <time>2023-04-30T13:12:01Z</time>
      </trkpt>
      <trkpt lat="45.32793" lon="4.48711">
        <ele>1189.4</ele>
        <time>2023-04-30T13:12:02Z</time>
      </trkpt>
      <trkpt lat="45.32797" lon="4.48722">
        <ele>1190.2</ele>
        <time>2023-04-30T13:12:08Z</time>
      </trkpt>
      <trkpt lat="45.32798" lon="4.48724">
        <ele>1190.4</ele>
        <time>2023-04-30T13:12:09Z</time>
      </trkpt>
      <trkpt lat="45.32798" lon="4.48727">
        <ele>1190.6</ele>
        <time>2023-04-30T13:12:10Z</time>
      </trkpt>
      <trkpt lat="45.32802" lon="4.48754">
        <ele>1192.6</ele>
        <time>2023-04-30T13:12:23Z</time>
      </trkpt>
      <trkpt lat="45.32809" lon="4.48779">
        <ele>1194</ele>
        <time>2023-04-30T13:12:36Z</time>
      </trkpt>
      <trkpt lat="45.32816" lon="4.48804">
        <ele>1195.8</ele>
        <time>2023-04-30T13:12:50Z</time>
      </trkpt>
      <trkpt lat="45.32828" lon="4.48833">
        <ele>1196.4</ele>
        <time>2023-04-30T13:13:04Z</time>
      </trkpt>
      <trkpt lat="45.32837" lon="4.48854">
        <ele>1197.4</ele>
        <time>2023-04-30T13:13:16Z</time>
      </trkpt>
      <trkpt lat="45.32841" lon="4.48861">
        <ele>1198</ele>
        <time>2023-04-30T13:13:42Z</time>
      </trkpt>
      <trkpt lat="45.32841" lon="4.48862">
        <ele>1198</ele>
        <time>2023-04-30T13:13:43Z</time>
      </trkpt>
      <trkpt lat="45.32842" lon="4.48864">
        <ele>1198</ele>
        <time>2023-04-30T13:13:44Z</time>
      </trkpt>
      <trkpt lat="45.32849" lon="4.48875">
        <ele>1197.8</ele>
        <time>2023-04-30T13:13:53Z</time>
      </trkpt>
      <trkpt lat="45.3285" lon="4.48877">
        <ele>1197.8</ele>
        <time>2023-04-30T13:13:54Z</time>
      </trkpt>
      <trkpt lat="45.32851" lon="4.48879">
        <ele>1197.8</ele>
        <time>2023-04-30T13:13:55Z</time>
      </trkpt>
      <trkpt lat="45.32851" lon="4.4888">
        <ele>1197.8</ele>
        <time>2023-04-30T13:13:56Z</time>
      </trkpt>
      <trkpt lat="45.32852" lon="4.48881">
        <ele>1197.8</ele>
        <time>2023-04-30T13:13:57Z</time>
      </trkpt>
      <trkpt lat="45.32853" lon="4.48882">
        <ele>1197.8</ele>
        <time>2023-04-30T13:13:58Z</time>
      </trkpt>
      <trkpt lat="45.32855" lon="4.48883">
        <ele>1197.8</ele>
        <time>2023-04-30T13:13:59Z</time>
      </trkpt>
      <trkpt lat="45.32856" lon="4.48884">
        <ele>1197.8</ele>
        <time>2023-04-30T13:14:00Z</time>
      </trkpt>
      <trkpt lat="45.32856" lon="4.48886">
        <ele>1197.8</ele>
        <time>2023-04-30T13:14:01Z</time>
      </trkpt>
      <trkpt lat="45.32857" lon="4.48887">
        <ele>1198</ele>
        <time>2023-04-30T13:14:02Z</time>
      </trkpt>
      <trkpt lat="45.32857" lon="4.48888">
        <ele>1198.2</ele>
        <time>2023-04-30T13:14:03Z</time>
      </trkpt>
      <trkpt lat="45.32858" lon="4.48889">
        <ele>1198.2</ele>
        <time>2023-04-30T13:14:04Z</time>
      </trkpt>
      <trkpt lat="45.32874" lon="4.48917">
        <ele>1199.4</ele>
        <time>2023-04-30T13:14:17Z</time>
      </trkpt>
      <trkpt lat="45.32875" lon="4.48919">
        <ele>1199.4</ele>
        <time>2023-04-30T13:14:18Z</time>
      </trkpt>
      <trkpt lat="45.32877" lon="4.48922">
        <ele>1199.4</ele>
        <time>2023-04-30T13:14:20Z</time>
      </trkpt>
      <trkpt lat="45.32878" lon="4.48924">
        <ele>1199.4</ele>
        <time>2023-04-30T13:14:21Z</time>
      </trkpt>
      <trkpt lat="45.32878" lon="4.48926">
        <ele>1199.6</ele>
        <time>2023-04-30T13:14:22Z</time>
      </trkpt>
      <trkpt lat="45.32879" lon="4.48928">
        <ele>1199.6</ele>
        <time>2023-04-30T13:14:23Z</time>
      </trkpt>
      <trkpt lat="45.32881" lon="4.4893">
        <ele>1199.8</ele>
        <time>2023-04-30T13:14:24Z</time>
      </trkpt>
      <trkpt lat="45.32882" lon="4.48931">
        <ele>1199.8</ele>
        <time>2023-04-30T13:14:25Z</time>
      </trkpt>
      <trkpt lat="45.32883" lon="4.48933">
        <ele>1200</ele>
        <time>2023-04-30T13:14:26Z</time>
      </trkpt>
      <trkpt lat="45.32895" lon="4.48955">
        <ele>1201</ele>
        <time>2023-04-30T13:14:38Z</time>
      </trkpt>
      <trkpt lat="45.32911" lon="4.48983">
        <ele>1203.2</ele>
        <time>2023-04-30T13:14:54Z</time>
      </trkpt>
      <trkpt lat="45.32912" lon="4.48988">
        <ele>1203.6</ele>
        <time>2023-04-30T13:14:57Z</time>
      </trkpt>
      <trkpt lat="45.32913" lon="4.4899">
        <ele>1203.8</ele>
        <time>2023-04-30T13:14:58Z</time>
      </trkpt>
      <trkpt lat="45.32914" lon="4.48993">
        <ele>1203.8</ele>
        <time>2023-04-30T13:14:59Z</time>
      </trkpt>
      <trkpt lat="45.32914" lon="4.48995">
        <ele>1204</ele>
        <time>2023-04-30T13:15:00Z</time>
      </trkpt>
      <trkpt lat="45.32915" lon="4.48997">
        <ele>1204</ele>
        <time>2023-04-30T13:15:01Z</time>
      </trkpt>
      <trkpt lat="45.32917" lon="4.48999">
        <ele>1204.2</ele>
        <time>2023-04-30T13:15:02Z</time>
      </trkpt>
      <trkpt lat="45.32931" lon="4.49029">
        <ele>1206</ele>
        <time>2023-04-30T13:15:15Z</time>
      </trkpt>
      <trkpt lat="45.32933" lon="4.49036">
        <ele>1206.4</ele>
        <time>2023-04-30T13:15:18Z</time>
      </trkpt>
      <trkpt lat="45.32933" lon="4.49068">
        <ele>1208</ele>
        <time>2023-04-30T13:15:32Z</time>
      </trkpt>
      <trkpt lat="45.32932" lon="4.49094">
        <ele>1209</ele>
        <time>2023-04-30T13:15:44Z</time>
      </trkpt>
      <trkpt lat="45.32934" lon="4.49096">
        <ele>1209.8</ele>
        <time>2023-04-30T13:16:01Z</time>
      </trkpt>
      <trkpt lat="45.32934" lon="4.49107">
        <ele>1209.8</ele>
        <time>2023-04-30T13:17:18Z</time>
      </trkpt>
      <trkpt lat="45.32935" lon="4.49115">
        <ele>1209.8</ele>
        <time>2023-04-30T13:17:21Z</time>
      </trkpt>
      <trkpt lat="45.32935" lon="4.49117">
        <ele>1209.8</ele>
        <time>2023-04-30T13:17:22Z</time>
      </trkpt>
      <trkpt lat="45.32934" lon="4.49142">
        <ele>1210.6</ele>
        <time>2023-04-30T13:17:31Z</time>
      </trkpt>
      <trkpt lat="45.32933" lon="4.49144">
        <ele>1210.6</ele>
        <time>2023-04-30T13:17:32Z</time>
      </trkpt>
      <trkpt lat="45.32936" lon="4.49168">
        <ele>1212.6</ele>
        <time>2023-04-30T13:17:43Z</time>
      </trkpt>
      <trkpt lat="45.32937" lon="4.49194">
        <ele>1214.2</ele>
        <time>2023-04-30T13:17:53Z</time>
      </trkpt>
      <trkpt lat="45.32937" lon="4.49196">
        <ele>1214.2</ele>
        <time>2023-04-30T13:17:54Z</time>
      </trkpt>
      <trkpt lat="45.32937" lon="4.49199">
        <ele>1214.4</ele>
        <time>2023-04-30T13:17:55Z</time>
      </trkpt>
      <trkpt lat="45.32939" lon="4.49215">
        <ele>1215.2</ele>
        <time>2023-04-30T13:18:01Z</time>
      </trkpt>
      <trkpt lat="45.32939" lon="4.49217">
        <ele>1215.6</ele>
        <time>2023-04-30T13:18:02Z</time>
      </trkpt>
      <trkpt lat="45.32939" lon="4.4922">
        <ele>1215.8</ele>
        <time>2023-04-30T13:18:03Z</time>
      </trkpt>
      <trkpt lat="45.32941" lon="4.4926">
        <ele>1217.8</ele>
        <time>2023-04-30T13:18:18Z</time>
      </trkpt>
      <trkpt lat="45.32946" lon="4.49288">
        <ele>1219.2</ele>
        <time>2023-04-30T13:18:30Z</time>
      </trkpt>
      <trkpt lat="45.32953" lon="4.49319">
        <ele>1220.8</ele>
        <time>2023-04-30T13:18:44Z</time>
      </trkpt>
      <trkpt lat="45.32956" lon="4.49348">
        <ele>1223.2</ele>
        <time>2023-04-30T13:18:56Z</time>
      </trkpt>
      <trkpt lat="45.32957" lon="4.4935">
        <ele>1223.4</ele>
        <time>2023-04-30T13:18:57Z</time>
      </trkpt>
      <trkpt lat="45.32957" lon="4.49353">
        <ele>1223.6</ele>
        <time>2023-04-30T13:18:58Z</time>
      </trkpt>
      <trkpt lat="45.32958" lon="4.49356">
        <ele>1223.8</ele>
        <time>2023-04-30T13:18:59Z</time>
      </trkpt>
      <trkpt lat="45.32958" lon="4.49358">
        <ele>1224.2</ele>
        <time>2023-04-30T13:19:00Z</time>
      </trkpt>
      <trkpt lat="45.32956" lon="4.4939">
        <ele>1226.8</ele>
        <time>2023-04-30T13:19:14Z</time>
      </trkpt>
      <trkpt lat="45.32947" lon="4.49425">
        <ele>1227.8</ele>
        <time>2023-04-30T13:19:27Z</time>
      </trkpt>
      <trkpt lat="45.32938" lon="4.49454">
        <ele>1228.2</ele>
        <time>2023-04-30T13:19:40Z</time>
      </trkpt>
      <trkpt lat="45.32938" lon="4.49456">
        <ele>1228.2</ele>
        <time>2023-04-30T13:19:41Z</time>
      </trkpt>
      <trkpt lat="45.32937" lon="4.49458">
        <ele>1228.4</ele>
        <time>2023-04-30T13:19:42Z</time>
      </trkpt>
      <trkpt lat="45.32924" lon="4.4948">
        <ele>1229</ele>
        <time>2023-04-30T13:19:49Z</time>
      </trkpt>
      <trkpt lat="45.32906" lon="4.4951">
        <ele>1229</ele>
        <time>2023-04-30T13:19:54Z</time>
      </trkpt>
      <trkpt lat="45.32892" lon="4.49539">
        <ele>1228</ele>
        <time>2023-04-30T13:19:58Z</time>
      </trkpt>
      <trkpt lat="45.32877" lon="4.49574">
        <ele>1225.8</ele>
        <time>2023-04-30T13:20:07Z</time>
      </trkpt>
      <trkpt lat="45.32856" lon="4.49608">
        <ele>1227.4</ele>
        <time>2023-04-30T13:20:19Z</time>
      </trkpt>
      <trkpt lat="45.32845" lon="4.49648">
        <ele>1227.4</ele>
        <time>2023-04-30T13:20:31Z</time>
      </trkpt>
      <trkpt lat="45.32832" lon="4.49691">
        <ele>1228</ele>
        <time>2023-04-30T13:20:45Z</time>
      </trkpt>
      <trkpt lat="45.32823" lon="4.49729">
        <ele>1228.4</ele>
        <time>2023-04-30T13:20:58Z</time>
      </trkpt>
      <trkpt lat="45.32822" lon="4.49764">
        <ele>1229</ele>
        <time>2023-04-30T13:21:10Z</time>
      </trkpt>
      <trkpt lat="45.32823" lon="4.49783">
        <ele>1229.2</ele>
        <time>2023-04-30T13:21:15Z</time>
      </trkpt>
      <trkpt lat="45.32835" lon="4.49828">
        <ele>1229.4</ele>
        <time>2023-04-30T13:21:27Z</time>
      </trkpt>
      <trkpt lat="45.3286" lon="4.49879">
        <ele>1230.4</ele>
        <time>2023-04-30T13:21:41Z</time>
      </trkpt>
      <trkpt lat="45.32877" lon="4.49911">
        <ele>1229.8</ele>
        <time>2023-04-30T13:21:53Z</time>
      </trkpt>
      <trkpt lat="45.3289" lon="4.49923">
        <ele>1229.2</ele>
        <time>2023-04-30T13:21:59Z</time>
      </trkpt>
      <trkpt lat="45.32891" lon="4.49926">
        <ele>1229</ele>
        <time>2023-04-30T13:22:00Z</time>
      </trkpt>
      <trkpt lat="45.32894" lon="4.49928">
        <ele>1229</ele>
        <time>2023-04-30T13:22:01Z</time>
      </trkpt>
      <trkpt lat="45.32896" lon="4.49929">
        <ele>1229</ele>
        <time>2023-04-30T13:22:02Z</time>
      </trkpt>
      <trkpt lat="45.32897" lon="4.49931">
        <ele>1229</ele>
        <time>2023-04-30T13:22:03Z</time>
      </trkpt>
      <trkpt lat="45.32898" lon="4.49932">
        <ele>1229</ele>
        <time>2023-04-30T13:22:04Z</time>
      </trkpt>
      <trkpt lat="45.32914" lon="4.49957">
        <ele>1229.8</ele>
        <time>2023-04-30T13:22:15Z</time>
      </trkpt>
      <trkpt lat="45.32934" lon="4.49986">
        <ele>1231</ele>
        <time>2023-04-30T13:22:27Z</time>
      </trkpt>
      <trkpt lat="45.32954" lon="4.50018">
        <ele>1231.2</ele>
        <time>2023-04-30T13:22:40Z</time>
      </trkpt>
      <trkpt lat="45.32975" lon="4.50045">
        <ele>1231.4</ele>
        <time>2023-04-30T13:22:52Z</time>
      </trkpt>
      <trkpt lat="45.32993" lon="4.50075">
        <ele>1231.6</ele>
        <time>2023-04-30T13:23:02Z</time>
      </trkpt>
      <trkpt lat="45.33009" lon="4.50112">
        <ele>1232</ele>
        <time>2023-04-30T13:23:13Z</time>
      </trkpt>
      <trkpt lat="45.33011" lon="4.50119">
        <ele>1232.2</ele>
        <time>2023-04-30T13:23:15Z</time>
      </trkpt>
      <trkpt lat="45.33012" lon="4.50121">
        <ele>1232.2</ele>
        <time>2023-04-30T13:23:16Z</time>
      </trkpt>
      <trkpt lat="45.33031" lon="4.50154">
        <ele>1233</ele>
        <time>2023-04-30T13:23:28Z</time>
      </trkpt>
      <trkpt lat="45.33049" lon="4.50195">
        <ele>1233.4</ele>
        <time>2023-04-30T13:23:40Z</time>
      </trkpt>
      <trkpt lat="45.33057" lon="4.50232">
        <ele>1234.6</ele>
        <time>2023-04-30T13:23:52Z</time>
      </trkpt>
      <trkpt lat="45.33062" lon="4.50268">
        <ele>1235</ele>
        <time>2023-04-30T13:24:04Z</time>
      </trkpt>
      <trkpt lat="45.33068" lon="4.50316">
        <ele>1235.4</ele>
        <time>2023-04-30T13:24:17Z</time>
      </trkpt>
      <trkpt lat="45.33071" lon="4.50365">
        <ele>1235.6</ele>
        <time>2023-04-30T13:24:30Z</time>
      </trkpt>
      <trkpt lat="45.33076" lon="4.50372">
        <ele>1236.4</ele>
        <time>2023-04-30T13:24:39Z</time>
      </trkpt>
      <trkpt lat="45.33078" lon="4.50371">
        <ele>1236.6</ele>
        <time>2023-04-30T13:24:40Z</time>
      </trkpt>
      <trkpt lat="45.33079" lon="4.50371">
        <ele>1236.8</ele>
        <time>2023-04-30T13:24:41Z</time>
      </trkpt>
      <trkpt lat="45.33081" lon="4.50371">
        <ele>1236.8</ele>
        <time>2023-04-30T13:24:42Z</time>
      </trkpt>
      <trkpt lat="45.33082" lon="4.50372">
        <ele>1236.8</ele>
        <time>2023-04-30T13:24:43Z</time>
      </trkpt>
      <trkpt lat="45.33084" lon="4.50372">
        <ele>1237</ele>
        <time>2023-04-30T13:24:44Z</time>
      </trkpt>
      <trkpt lat="45.33085" lon="4.50372">
        <ele>1237</ele>
        <time>2023-04-30T13:24:45Z</time>
      </trkpt>
      <trkpt lat="45.33088" lon="4.5037">
        <ele>1237.2</ele>
        <time>2023-04-30T13:24:47Z</time>
      </trkpt>
      <trkpt lat="45.3309" lon="4.50369">
        <ele>1237.2</ele>
        <time>2023-04-30T13:24:48Z</time>
      </trkpt>
      <trkpt lat="45.33091" lon="4.50368">
        <ele>1237.4</ele>
        <time>2023-04-30T13:24:49Z</time>
      </trkpt>
      <trkpt lat="45.33093" lon="4.50367">
        <ele>1237.4</ele>
        <time>2023-04-30T13:24:50Z</time>
      </trkpt>
      <trkpt lat="45.33095" lon="4.50366">
        <ele>1237.4</ele>
        <time>2023-04-30T13:24:51Z</time>
      </trkpt>
      <trkpt lat="45.33096" lon="4.50366">
        <ele>1237.6</ele>
        <time>2023-04-30T13:24:52Z</time>
      </trkpt>
      <trkpt lat="45.33108" lon="4.50364">
        <ele>1238.6</ele>
        <time>2023-04-30T13:24:59Z</time>
      </trkpt>
      <trkpt lat="45.3311" lon="4.50364">
        <ele>1238.8</ele>
        <time>2023-04-30T13:25:00Z</time>
      </trkpt>
      <trkpt lat="45.33112" lon="4.50365">
        <ele>1239.2</ele>
        <time>2023-04-30T13:25:01Z</time>
      </trkpt>
      <trkpt lat="45.33134" lon="4.50366">
        <ele>1241.2</ele>
        <time>2023-04-30T13:25:12Z</time>
      </trkpt>
      <trkpt lat="45.33142" lon="4.50368">
        <ele>1241.8</ele>
        <time>2023-04-30T13:25:16Z</time>
      </trkpt>
      <trkpt lat="45.33144" lon="4.50368">
        <ele>1241.8</ele>
        <time>2023-04-30T13:25:17Z</time>
      </trkpt>
      <trkpt lat="45.33146" lon="4.50368">
        <ele>1242</ele>
        <time>2023-04-30T13:25:18Z</time>
      </trkpt>
      <trkpt lat="45.33176" lon="4.50369">
        <ele>1243</ele>
        <time>2023-04-30T13:25:32Z</time>
      </trkpt>
      <trkpt lat="45.33203" lon="4.50358">
        <ele>1244.6</ele>
        <time>2023-04-30T13:25:46Z</time>
      </trkpt>
      <trkpt lat="45.33224" lon="4.50362">
        <ele>1245.6</ele>
        <time>2023-04-30T13:25:58Z</time>
      </trkpt>
      <trkpt lat="45.33231" lon="4.50393">
        <ele>1245.4</ele>
        <time>2023-04-30T13:26:10Z</time>
      </trkpt>
      <trkpt lat="45.33233" lon="4.5042">
        <ele>1243.2</ele>
        <time>2023-04-30T13:26:24Z</time>
      </trkpt>
      <trkpt lat="45.33233" lon="4.50409">
        <ele>1242.6</ele>
        <time>2023-04-30T13:27:08Z</time>
      </trkpt>
      <trkpt lat="45.33229" lon="4.50407">
        <ele>1243.2</ele>
        <time>2023-04-30T13:27:51Z</time>
      </trkpt>
      <trkpt lat="45.33229" lon="4.50414">
        <ele>1243.2</ele>
        <time>2023-04-30T13:28:33Z</time>
      </trkpt>
      <trkpt lat="45.33228" lon="4.5042">
        <ele>1243.2</ele>
        <time>2023-04-30T13:28:35Z</time>
      </trkpt>
      <trkpt lat="45.33226" lon="4.50423">
        <ele>1243.2</ele>
        <time>2023-04-30T13:28:36Z</time>
      </trkpt>
      <trkpt lat="45.33223" lon="4.50434">
        <ele>1243</ele>
        <time>2023-04-30T13:28:40Z</time>
      </trkpt>
      <trkpt lat="45.33222" lon="4.50436">
        <ele>1243</ele>
        <time>2023-04-30T13:28:41Z</time>
      </trkpt>
      <trkpt lat="45.33222" lon="4.50439">
        <ele>1242.8</ele>
        <time>2023-04-30T13:28:42Z</time>
      </trkpt>
      <trkpt lat="45.33221" lon="4.50442">
        <ele>1242.6</ele>
        <time>2023-04-30T13:28:43Z</time>
      </trkpt>
      <trkpt lat="45.3322" lon="4.50444">
        <ele>1242.4</ele>
        <time>2023-04-30T13:28:44Z</time>
      </trkpt>
      <trkpt lat="45.3322" lon="4.50446">
        <ele>1242</ele>
        <time>2023-04-30T13:28:45Z</time>
      </trkpt>
      <trkpt lat="45.33208" lon="4.50482">
        <ele>1239.6</ele>
        <time>2023-04-30T13:28:53Z</time>
      </trkpt>
      <trkpt lat="45.33206" lon="4.5049">
        <ele>1239.2</ele>
        <time>2023-04-30T13:28:54Z</time>
      </trkpt>
      <trkpt lat="45.33198" lon="4.50526">
        <ele>1237</ele>
        <time>2023-04-30T13:28:58Z</time>
      </trkpt>
      <trkpt lat="45.33195" lon="4.50547">
        <ele>1235.8</ele>
        <time>2023-04-30T13:29:00Z</time>
      </trkpt>
      <trkpt lat="45.33197" lon="4.50557">
        <ele>1235</ele>
        <time>2023-04-30T13:29:01Z</time>
      </trkpt>
      <trkpt lat="45.33197" lon="4.50566">
        <ele>1233.8</ele>
        <time>2023-04-30T13:29:02Z</time>
      </trkpt>
      <trkpt lat="45.33198" lon="4.50575">
        <ele>1232.8</ele>
        <time>2023-04-30T13:29:03Z</time>
      </trkpt>
      <trkpt lat="45.33199" lon="4.50582">
        <ele>1232</ele>
        <time>2023-04-30T13:29:04Z</time>
      </trkpt>
      <trkpt lat="45.33202" lon="4.50588">
        <ele>1231</ele>
        <time>2023-04-30T13:29:05Z</time>
      </trkpt>
      <trkpt lat="45.33206" lon="4.50594">
        <ele>1230.2</ele>
        <time>2023-04-30T13:29:06Z</time>
      </trkpt>
      <trkpt lat="45.3321" lon="4.50601">
        <ele>1229.8</ele>
        <time>2023-04-30T13:29:07Z</time>
      </trkpt>
      <trkpt lat="45.33218" lon="4.50611">
        <ele>1228.2</ele>
        <time>2023-04-30T13:29:09Z</time>
      </trkpt>
      <trkpt lat="45.33226" lon="4.50623">
        <ele>1224.8</ele>
        <time>2023-04-30T13:29:13Z</time>
      </trkpt>
      <trkpt lat="45.33237" lon="4.50633">
        <ele>1221.6</ele>
        <time>2023-04-30T13:29:16Z</time>
      </trkpt>
      <trkpt lat="45.33243" lon="4.50635">
        <ele>1221</ele>
        <time>2023-04-30T13:29:17Z</time>
      </trkpt>
      <trkpt lat="45.33249" lon="4.50637">
        <ele>1220.8</ele>
        <time>2023-04-30T13:29:18Z</time>
      </trkpt>
      <trkpt lat="45.33256" lon="4.50637">
        <ele>1220.6</ele>
        <time>2023-04-30T13:29:19Z</time>
      </trkpt>
      <trkpt lat="45.33264" lon="4.50635">
        <ele>1220.4</ele>
        <time>2023-04-30T13:29:20Z</time>
      </trkpt>
      <trkpt lat="45.33271" lon="4.50633">
        <ele>1220.2</ele>
        <time>2023-04-30T13:29:21Z</time>
      </trkpt>
      <trkpt lat="45.33278" lon="4.5063">
        <ele>1220.2</ele>
        <time>2023-04-30T13:29:22Z</time>
      </trkpt>
      <trkpt lat="45.33314" lon="4.50613">
        <ele>1216.4</ele>
        <time>2023-04-30T13:29:27Z</time>
      </trkpt>
      <trkpt lat="45.33321" lon="4.50611">
        <ele>1215</ele>
        <time>2023-04-30T13:29:28Z</time>
      </trkpt>
      <trkpt lat="45.33342" lon="4.50607">
        <ele>1212</ele>
        <time>2023-04-30T13:29:31Z</time>
      </trkpt>
      <trkpt lat="45.33356" lon="4.50605">
        <ele>1211.4</ele>
        <time>2023-04-30T13:29:33Z</time>
      </trkpt>
      <trkpt lat="45.33363" lon="4.50603">
        <ele>1211.2</ele>
        <time>2023-04-30T13:29:34Z</time>
      </trkpt>
      <trkpt lat="45.33376" lon="4.50597">
        <ele>1210.6</ele>
        <time>2023-04-30T13:29:36Z</time>
      </trkpt>
      <trkpt lat="45.33409" lon="4.50585">
        <ele>1208.4</ele>
        <time>2023-04-30T13:29:41Z</time>
      </trkpt>
      <trkpt lat="45.33456" lon="4.50577">
        <ele>1205.2</ele>
        <time>2023-04-30T13:29:48Z</time>
      </trkpt>
      <trkpt lat="45.33503" lon="4.50569">
        <ele>1203.2</ele>
        <time>2023-04-30T13:29:58Z</time>
      </trkpt>
      <trkpt lat="45.33526" lon="4.50562">
        <ele>1203.4</ele>
        <time>2023-04-30T13:30:10Z</time>
      </trkpt>
      <trkpt lat="45.33537" lon="4.5056">
        <ele>1205</ele>
        <time>2023-04-30T13:30:59Z</time>
      </trkpt>
      <trkpt lat="45.33539" lon="4.5056">
        <ele>1205</ele>
        <time>2023-04-30T13:31:00Z</time>
      </trkpt>
      <trkpt lat="45.33541" lon="4.50559">
        <ele>1205</ele>
        <time>2023-04-30T13:31:01Z</time>
      </trkpt>
      <trkpt lat="45.33542" lon="4.50558">
        <ele>1205</ele>
        <time>2023-04-30T13:31:02Z</time>
      </trkpt>
      <trkpt lat="45.33545" lon="4.50557">
        <ele>1205</ele>
        <time>2023-04-30T13:31:03Z</time>
      </trkpt>
      <trkpt lat="45.33548" lon="4.50556">
        <ele>1205</ele>
        <time>2023-04-30T13:31:04Z</time>
      </trkpt>
      <trkpt lat="45.33569" lon="4.50539">
        <ele>1205</ele>
        <time>2023-04-30T13:31:14Z</time>
      </trkpt>
      <trkpt lat="45.33593" lon="4.50533">
        <ele>1205.4</ele>
        <time>2023-04-30T13:31:25Z</time>
      </trkpt>
      <trkpt lat="45.3361" lon="4.5053">
        <ele>1207.2</ele>
        <time>2023-04-30T13:31:32Z</time>
      </trkpt>
      <trkpt lat="45.33614" lon="4.50531">
        <ele>1207.6</ele>
        <time>2023-04-30T13:31:34Z</time>
      </trkpt>
      <trkpt lat="45.33616" lon="4.50532">
        <ele>1207.8</ele>
        <time>2023-04-30T13:31:35Z</time>
      </trkpt>
      <trkpt lat="45.33618" lon="4.50533">
        <ele>1207.8</ele>
        <time>2023-04-30T13:31:36Z</time>
      </trkpt>
      <trkpt lat="45.33621" lon="4.50534">
        <ele>1207.8</ele>
        <time>2023-04-30T13:31:37Z</time>
      </trkpt>
      <trkpt lat="45.33623" lon="4.50535">
        <ele>1207.8</ele>
        <time>2023-04-30T13:31:38Z</time>
      </trkpt>
      <trkpt lat="45.33625" lon="4.50536">
        <ele>1207.8</ele>
        <time>2023-04-30T13:31:39Z</time>
      </trkpt>
      <trkpt lat="45.33628" lon="4.50537">
        <ele>1207.8</ele>
        <time>2023-04-30T13:31:40Z</time>
      </trkpt>
      <trkpt lat="45.3363" lon="4.50538">
        <ele>1208</ele>
        <time>2023-04-30T13:31:41Z</time>
      </trkpt>
      <trkpt lat="45.33655" lon="4.50552">
        <ele>1209</ele>
        <time>2023-04-30T13:31:53Z</time>
      </trkpt>
      <trkpt lat="45.33661" lon="4.50551">
        <ele>1209.6</ele>
        <time>2023-04-30T13:31:57Z</time>
      </trkpt>
      <trkpt lat="45.33663" lon="4.50551">
        <ele>1210</ele>
        <time>2023-04-30T13:31:58Z</time>
      </trkpt>
      <trkpt lat="45.33664" lon="4.50551">
        <ele>1210.2</ele>
        <time>2023-04-30T13:31:59Z</time>
      </trkpt>
      <trkpt lat="45.33679" lon="4.50541">
        <ele>1212.8</ele>
        <time>2023-04-30T13:32:10Z</time>
      </trkpt>
      <trkpt lat="45.33683" lon="4.50538">
        <ele>1213.2</ele>
        <time>2023-04-30T13:32:13Z</time>
      </trkpt>
      <trkpt lat="45.33685" lon="4.50538">
        <ele>1213.4</ele>
        <time>2023-04-30T13:32:14Z</time>
      </trkpt>
      <trkpt lat="45.33693" lon="4.50533">
        <ele>1214.2</ele>
        <time>2023-04-30T13:32:20Z</time>
      </trkpt>
      <trkpt lat="45.33695" lon="4.50533">
        <ele>1214.4</ele>
        <time>2023-04-30T13:32:21Z</time>
      </trkpt>
      <trkpt lat="45.33696" lon="4.50533">
        <ele>1214.6</ele>
        <time>2023-04-30T13:32:22Z</time>
      </trkpt>
      <trkpt lat="45.33706" lon="4.50529">
        <ele>1216.6</ele>
        <time>2023-04-30T13:32:29Z</time>
      </trkpt>
      <trkpt lat="45.33707" lon="4.50529">
        <ele>1216.8</ele>
        <time>2023-04-30T13:32:30Z</time>
      </trkpt>
      <trkpt lat="45.33711" lon="4.50525">
        <ele>1218.2</ele>
        <time>2023-04-30T13:32:33Z</time>
      </trkpt>
      <trkpt lat="45.33712" lon="4.50524">
        <ele>1218.8</ele>
        <time>2023-04-30T13:32:34Z</time>
      </trkpt>
      <trkpt lat="45.33713" lon="4.50523">
        <ele>1219</ele>
        <time>2023-04-30T13:32:35Z</time>
      </trkpt>
      <trkpt lat="45.33714" lon="4.50522">
        <ele>1219.4</ele>
        <time>2023-04-30T13:32:36Z</time>
      </trkpt>
      <trkpt lat="45.33716" lon="4.50521">
        <ele>1219.8</ele>
        <time>2023-04-30T13:32:37Z</time>
      </trkpt>
      <trkpt lat="45.33717" lon="4.50519">
        <ele>1220</ele>
        <time>2023-04-30T13:32:38Z</time>
      </trkpt>
      <trkpt lat="45.33718" lon="4.50518">
        <ele>1220.4</ele>
        <time>2023-04-30T13:32:39Z</time>
      </trkpt>
      <trkpt lat="45.33721" lon="4.50514">
        <ele>1221</ele>
        <time>2023-04-30T13:32:43Z</time>
      </trkpt>
      <trkpt lat="45.33723" lon="4.50513">
        <ele>1221.2</ele>
        <time>2023-04-30T13:32:44Z</time>
      </trkpt>
      <trkpt lat="45.33724" lon="4.50513">
        <ele>1221.6</ele>
        <time>2023-04-30T13:32:45Z</time>
      </trkpt>
      <trkpt lat="45.33738" lon="4.50504">
        <ele>1223.4</ele>
        <time>2023-04-30T13:32:56Z</time>
      </trkpt>
      <trkpt lat="45.33739" lon="4.50503">
        <ele>1224</ele>
        <time>2023-04-30T13:32:57Z</time>
      </trkpt>
      <trkpt lat="45.33759" lon="4.50503">
        <ele>1226</ele>
        <time>2023-04-30T13:33:11Z</time>
      </trkpt>
      <trkpt lat="45.33768" lon="4.50512">
        <ele>1228</ele>
        <time>2023-04-30T13:34:05Z</time>
      </trkpt>
      <trkpt lat="45.33777" lon="4.50511">
        <ele>1229.6</ele>
        <time>2023-04-30T13:34:20Z</time>
      </trkpt>
      <trkpt lat="45.338" lon="4.505">
        <ele>1230.6</ele>
        <time>2023-04-30T13:34:37Z</time>
      </trkpt>
      <trkpt lat="45.33808" lon="4.50496">
        <ele>1230.8</ele>
        <time>2023-04-30T13:34:43Z</time>
      </trkpt>
      <trkpt lat="45.33816" lon="4.50495">
        <ele>1231.2</ele>
        <time>2023-04-30T13:34:47Z</time>
      </trkpt>
      <trkpt lat="45.33833" lon="4.50488">
        <ele>1233.4</ele>
        <time>2023-04-30T13:34:59Z</time>
      </trkpt>
      <trkpt lat="45.33843" lon="4.50483">
        <ele>1233.6</ele>
        <time>2023-04-30T13:35:05Z</time>
      </trkpt>
      <trkpt lat="45.33862" lon="4.50478">
        <ele>1234.4</ele>
        <time>2023-04-30T13:35:16Z</time>
      </trkpt>
      <trkpt lat="45.33879" lon="4.50477">
        <ele>1235.8</ele>
        <time>2023-04-30T13:35:26Z</time>
      </trkpt>
      <trkpt lat="45.33894" lon="4.5047">
        <ele>1236.6</ele>
        <time>2023-04-30T13:35:35Z</time>
      </trkpt>
      <trkpt lat="45.33916" lon="4.50462">
        <ele>1238.4</ele>
        <time>2023-04-30T13:35:47Z</time>
      </trkpt>
      <trkpt lat="45.33936" lon="4.50458">
        <ele>1238.8</ele>
        <time>2023-04-30T13:35:58Z</time>
      </trkpt>
      <trkpt lat="45.33961" lon="4.50452">
        <ele>1239.4</ele>
        <time>2023-04-30T13:36:09Z</time>
      </trkpt>
      <trkpt lat="45.3398" lon="4.50449">
        <ele>1239.8</ele>
        <time>2023-04-30T13:36:18Z</time>
      </trkpt>
      <trkpt lat="45.33998" lon="4.5047">
        <ele>1240.4</ele>
        <time>2023-04-30T13:36:32Z</time>
      </trkpt>
      <trkpt lat="45.34" lon="4.50473">
        <ele>1240.4</ele>
        <time>2023-04-30T13:36:33Z</time>
      </trkpt>
      <trkpt lat="45.34017" lon="4.50499">
        <ele>1241.2</ele>
        <time>2023-04-30T13:36:42Z</time>
      </trkpt>
      <trkpt lat="45.3402" lon="4.50503">
        <ele>1242.2</ele>
        <time>2023-04-30T13:37:23Z</time>
      </trkpt>
      <trkpt lat="45.34019" lon="4.50507">
        <ele>1242.4</ele>
        <time>2023-04-30T13:37:54Z</time>
      </trkpt>
      <trkpt lat="45.34021" lon="4.50507">
        <ele>1242</ele>
        <time>2023-04-30T13:38:10Z</time>
      </trkpt>
      <trkpt lat="45.3402" lon="4.50509">
        <ele>1242.2</ele>
        <time>2023-04-30T13:38:20Z</time>
      </trkpt>
      <trkpt lat="45.34019" lon="4.50513">
        <ele>1242.6</ele>
        <time>2023-04-30T13:38:24Z</time>
      </trkpt>
      <trkpt lat="45.34015" lon="4.50541">
        <ele>1242.6</ele>
        <time>2023-04-30T13:38:35Z</time>
      </trkpt>
      <trkpt lat="45.34015" lon="4.50543">
        <ele>1242.6</ele>
        <time>2023-04-30T13:38:36Z</time>
      </trkpt>
      <trkpt lat="45.34014" lon="4.50546">
        <ele>1242.6</ele>
        <time>2023-04-30T13:38:37Z</time>
      </trkpt>
      <trkpt lat="45.34013" lon="4.50548">
        <ele>1242.6</ele>
        <time>2023-04-30T13:38:38Z</time>
      </trkpt>
      <trkpt lat="45.34012" lon="4.50551">
        <ele>1242.8</ele>
        <time>2023-04-30T13:38:39Z</time>
      </trkpt>
      <trkpt lat="45.34004" lon="4.50583">
        <ele>1244</ele>
        <time>2023-04-30T13:38:50Z</time>
      </trkpt>
      <trkpt lat="45.34004" lon="4.50586">
        <ele>1244</ele>
        <time>2023-04-30T13:38:51Z</time>
      </trkpt>
      <trkpt lat="45.34003" lon="4.50588">
        <ele>1244.2</ele>
        <time>2023-04-30T13:38:52Z</time>
      </trkpt>
      <trkpt lat="45.34003" lon="4.50591">
        <ele>1244.2</ele>
        <time>2023-04-30T13:38:53Z</time>
      </trkpt>
      <trkpt lat="45.34002" lon="4.50594">
        <ele>1244.4</ele>
        <time>2023-04-30T13:38:54Z</time>
      </trkpt>
      <trkpt lat="45.34001" lon="4.50596">
        <ele>1244.4</ele>
        <time>2023-04-30T13:38:55Z</time>
      </trkpt>
      <trkpt lat="45.34" lon="4.50599">
        <ele>1244.6</ele>
        <time>2023-04-30T13:38:56Z</time>
      </trkpt>
      <trkpt lat="45.34" lon="4.50601">
        <ele>1244.8</ele>
        <time>2023-04-30T13:38:57Z</time>
      </trkpt>
      <trkpt lat="45.33998" lon="4.50604">
        <ele>1245</ele>
        <time>2023-04-30T13:38:58Z</time>
      </trkpt>
      <trkpt lat="45.33998" lon="4.50606">
        <ele>1245</ele>
        <time>2023-04-30T13:38:59Z</time>
      </trkpt>
      <trkpt lat="45.33996" lon="4.50608">
        <ele>1245.2</ele>
        <time>2023-04-30T13:39:00Z</time>
      </trkpt>
      <trkpt lat="45.33996" lon="4.5061">
        <ele>1245.2</ele>
        <time>2023-04-30T13:39:01Z</time>
      </trkpt>
      <trkpt lat="45.33995" lon="4.50612">
        <ele>1245.4</ele>
        <time>2023-04-30T13:39:02Z</time>
      </trkpt>
      <trkpt lat="45.33993" lon="4.50615">
        <ele>1245.6</ele>
        <time>2023-04-30T13:39:03Z</time>
      </trkpt>
      <trkpt lat="45.33992" lon="4.50617">
        <ele>1245.8</ele>
        <time>2023-04-30T13:39:04Z</time>
      </trkpt>
      <trkpt lat="45.33978" lon="4.50636">
        <ele>1248</ele>
        <time>2023-04-30T13:39:15Z</time>
      </trkpt>
      <trkpt lat="45.33969" lon="4.50669">
        <ele>1250.2</ele>
        <time>2023-04-30T13:39:29Z</time>
      </trkpt>
      <trkpt lat="45.33965" lon="4.50686">
        <ele>1251.6</ele>
        <time>2023-04-30T13:39:37Z</time>
      </trkpt>
      <trkpt lat="45.33965" lon="4.50689">
        <ele>1251.8</ele>
        <time>2023-04-30T13:39:38Z</time>
      </trkpt>
      <trkpt lat="45.33966" lon="4.50691">
        <ele>1252</ele>
        <time>2023-04-30T13:39:39Z</time>
      </trkpt>
      <trkpt lat="45.33966" lon="4.50693">
        <ele>1252.2</ele>
        <time>2023-04-30T13:39:40Z</time>
      </trkpt>
      <trkpt lat="45.33967" lon="4.50695">
        <ele>1252.4</ele>
        <time>2023-04-30T13:39:41Z</time>
      </trkpt>
      <trkpt lat="45.33967" lon="4.50697">
        <ele>1252.4</ele>
        <time>2023-04-30T13:39:42Z</time>
      </trkpt>
      <trkpt lat="45.33964" lon="4.50712">
        <ele>1253.6</ele>
        <time>2023-04-30T13:39:50Z</time>
      </trkpt>
      <trkpt lat="45.33964" lon="4.50714">
        <ele>1253.8</ele>
        <time>2023-04-30T13:39:51Z</time>
      </trkpt>
      <trkpt lat="45.33964" lon="4.50716">
        <ele>1254</ele>
        <time>2023-04-30T13:39:52Z</time>
      </trkpt>
      <trkpt lat="45.33964" lon="4.50719">
        <ele>1254.2</ele>
        <time>2023-04-30T13:39:53Z</time>
      </trkpt>
      <trkpt lat="45.33963" lon="4.50721">
        <ele>1254.4</ele>
        <time>2023-04-30T13:39:54Z</time>
      </trkpt>
      <trkpt lat="45.33963" lon="4.50724">
        <ele>1254.6</ele>
        <time>2023-04-30T13:39:55Z</time>
      </trkpt>
      <trkpt lat="45.33964" lon="4.50749">
        <ele>1255.8</ele>
        <time>2023-04-30T13:40:05Z</time>
      </trkpt>
      <trkpt lat="45.33964" lon="4.50751">
        <ele>1256</ele>
        <time>2023-04-30T13:40:06Z</time>
      </trkpt>
      <trkpt lat="45.33964" lon="4.50754">
        <ele>1256</ele>
        <time>2023-04-30T13:40:07Z</time>
      </trkpt>
      <trkpt lat="45.33964" lon="4.50756">
        <ele>1256.2</ele>
        <time>2023-04-30T13:40:08Z</time>
      </trkpt>
      <trkpt lat="45.33965" lon="4.50759">
        <ele>1256.4</ele>
        <time>2023-04-30T13:40:09Z</time>
      </trkpt>
      <trkpt lat="45.33965" lon="4.50762">
        <ele>1256.4</ele>
        <time>2023-04-30T13:40:10Z</time>
      </trkpt>
      <trkpt lat="45.33965" lon="4.50765">
        <ele>1256.6</ele>
        <time>2023-04-30T13:40:11Z</time>
      </trkpt>
      <trkpt lat="45.33966" lon="4.50767">
        <ele>1256.6</ele>
        <time>2023-04-30T13:40:12Z</time>
      </trkpt>
      <trkpt lat="45.33967" lon="4.50769">
        <ele>1256.8</ele>
        <time>2023-04-30T13:40:13Z</time>
      </trkpt>
      <trkpt lat="45.33969" lon="4.50771">
        <ele>1256.8</ele>
        <time>2023-04-30T13:40:14Z</time>
      </trkpt>
      <trkpt lat="45.33975" lon="4.50806">
        <ele>1259</ele>
        <time>2023-04-30T13:40:30Z</time>
      </trkpt>
      <trkpt lat="45.33975" lon="4.50809">
        <ele>1259.2</ele>
        <time>2023-04-30T13:40:31Z</time>
      </trkpt>
      <trkpt lat="45.33976" lon="4.50811">
        <ele>1259.4</ele>
        <time>2023-04-30T13:40:32Z</time>
      </trkpt>
      <trkpt lat="45.33976" lon="4.50813">
        <ele>1259.6</ele>
        <time>2023-04-30T13:40:33Z</time>
      </trkpt>
      <trkpt lat="45.33977" lon="4.50815">
        <ele>1260</ele>
        <time>2023-04-30T13:40:34Z</time>
      </trkpt>
      <trkpt lat="45.33978" lon="4.50817">
        <ele>1260</ele>
        <time>2023-04-30T13:40:35Z</time>
      </trkpt>
      <trkpt lat="45.33979" lon="4.5082">
        <ele>1260.2</ele>
        <time>2023-04-30T13:40:36Z</time>
      </trkpt>
      <trkpt lat="45.3398" lon="4.50822">
        <ele>1260.2</ele>
        <time>2023-04-30T13:40:37Z</time>
      </trkpt>
      <trkpt lat="45.33986" lon="4.50833">
        <ele>1261.6</ele>
        <time>2023-04-30T13:40:43Z</time>
      </trkpt>
      <trkpt lat="45.33986" lon="4.50836">
        <ele>1261.6</ele>
        <time>2023-04-30T13:40:44Z</time>
      </trkpt>
      <trkpt lat="45.33986" lon="4.50838">
        <ele>1261.8</ele>
        <time>2023-04-30T13:40:45Z</time>
      </trkpt>
      <trkpt lat="45.33987" lon="4.50841">
        <ele>1261.8</ele>
        <time>2023-04-30T13:40:46Z</time>
      </trkpt>
      <trkpt lat="45.33987" lon="4.50843">
        <ele>1261.8</ele>
        <time>2023-04-30T13:40:47Z</time>
      </trkpt>
      <trkpt lat="45.33989" lon="4.50845">
        <ele>1261.8</ele>
        <time>2023-04-30T13:40:48Z</time>
      </trkpt>
      <trkpt lat="45.3399" lon="4.50847">
        <ele>1261.8</ele>
        <time>2023-04-30T13:40:49Z</time>
      </trkpt>
      <trkpt lat="45.3399" lon="4.50849">
        <ele>1262</ele>
        <time>2023-04-30T13:40:50Z</time>
      </trkpt>
      <trkpt lat="45.33991" lon="4.50851">
        <ele>1262</ele>
        <time>2023-04-30T13:40:51Z</time>
      </trkpt>
      <trkpt lat="45.33993" lon="4.50868">
        <ele>1262.6</ele>
        <time>2023-04-30T13:40:59Z</time>
      </trkpt>
      <trkpt lat="45.33993" lon="4.50869">
        <ele>1262.6</ele>
        <time>2023-04-30T13:41:00Z</time>
      </trkpt>
      <trkpt lat="45.33995" lon="4.50905">
        <ele>1264.8</ele>
        <time>2023-04-30T13:41:15Z</time>
      </trkpt>
      <trkpt lat="45.33996" lon="4.50935">
        <ele>1266</ele>
        <time>2023-04-30T13:41:27Z</time>
      </trkpt>
      <trkpt lat="45.33997" lon="4.50938">
        <ele>1266.2</ele>
        <time>2023-04-30T13:41:28Z</time>
      </trkpt>
      <trkpt lat="45.34004" lon="4.50964">
        <ele>1267.6</ele>
        <time>2023-04-30T13:41:39Z</time>
      </trkpt>
      <trkpt lat="45.34005" lon="4.50968">
        <ele>1267.8</ele>
        <time>2023-04-30T13:41:41Z</time>
      </trkpt>
      <trkpt lat="45.34005" lon="4.5097">
        <ele>1267.8</ele>
        <time>2023-04-30T13:41:42Z</time>
      </trkpt>
      <trkpt lat="45.34009" lon="4.50979">
        <ele>1268</ele>
        <time>2023-04-30T13:41:46Z</time>
      </trkpt>
      <trkpt lat="45.3401" lon="4.50981">
        <ele>1268</ele>
        <time>2023-04-30T13:41:47Z</time>
      </trkpt>
      <trkpt lat="45.3401" lon="4.50983">
        <ele>1268</ele>
        <time>2023-04-30T13:41:48Z</time>
      </trkpt>
      <trkpt lat="45.34014" lon="4.51008">
        <ele>1269.6</ele>
        <time>2023-04-30T13:41:58Z</time>
      </trkpt>
      <trkpt lat="45.34015" lon="4.5101">
        <ele>1270</ele>
        <time>2023-04-30T13:41:59Z</time>
      </trkpt>
      <trkpt lat="45.34016" lon="4.51012">
        <ele>1270.2</ele>
        <time>2023-04-30T13:42:00Z</time>
      </trkpt>
      <trkpt lat="45.34016" lon="4.51015">
        <ele>1270.4</ele>
        <time>2023-04-30T13:42:01Z</time>
      </trkpt>
      <trkpt lat="45.34016" lon="4.51017">
        <ele>1270.6</ele>
        <time>2023-04-30T13:42:02Z</time>
      </trkpt>
      <trkpt lat="45.34016" lon="4.51019">
        <ele>1270.8</ele>
        <time>2023-04-30T13:42:03Z</time>
      </trkpt>
      <trkpt lat="45.34018" lon="4.51036">
        <ele>1271.4</ele>
        <time>2023-04-30T13:42:09Z</time>
      </trkpt>
      <trkpt lat="45.34019" lon="4.51039">
        <ele>1271.6</ele>
        <time>2023-04-30T13:42:10Z</time>
      </trkpt>
      <trkpt lat="45.34019" lon="4.51041">
        <ele>1271.8</ele>
        <time>2023-04-30T13:42:11Z</time>
      </trkpt>
      <trkpt lat="45.3402" lon="4.51051">
        <ele>1272.4</ele>
        <time>2023-04-30T13:42:15Z</time>
      </trkpt>
      <trkpt lat="45.3402" lon="4.51053">
        <ele>1272.6</ele>
        <time>2023-04-30T13:42:16Z</time>
      </trkpt>
      <trkpt lat="45.3402" lon="4.51055">
        <ele>1272.6</ele>
        <time>2023-04-30T13:42:17Z</time>
      </trkpt>
      <trkpt lat="45.3402" lon="4.51058">
        <ele>1272.8</ele>
        <time>2023-04-30T13:42:18Z</time>
      </trkpt>
      <trkpt lat="45.3402" lon="4.51059">
        <ele>1272.8</ele>
        <time>2023-04-30T13:42:19Z</time>
      </trkpt>
      <trkpt lat="45.3402" lon="4.51062">
        <ele>1272.8</ele>
        <time>2023-04-30T13:42:20Z</time>
      </trkpt>
      <trkpt lat="45.3402" lon="4.51064">
        <ele>1273</ele>
        <time>2023-04-30T13:42:21Z</time>
      </trkpt>
      <trkpt lat="45.34021" lon="4.51067">
        <ele>1273.2</ele>
        <time>2023-04-30T13:42:22Z</time>
      </trkpt>
      <trkpt lat="45.34022" lon="4.51069">
        <ele>1273.4</ele>
        <time>2023-04-30T13:42:23Z</time>
      </trkpt>
      <trkpt lat="45.34025" lon="4.51097">
        <ele>1275</ele>
        <time>2023-04-30T13:42:35Z</time>
      </trkpt>
      <trkpt lat="45.34028" lon="4.51109">
        <ele>1276.4</ele>
        <time>2023-04-30T13:42:48Z</time>
      </trkpt>
      <trkpt lat="45.3403" lon="4.51116">
        <ele>1276.4</ele>
        <time>2023-04-30T13:44:28Z</time>
      </trkpt>
      <trkpt lat="45.34032" lon="4.51144">
        <ele>1276.4</ele>
        <time>2023-04-30T13:44:40Z</time>
      </trkpt>
      <trkpt lat="45.34033" lon="4.51161">
        <ele>1276.6</ele>
        <time>2023-04-30T13:44:46Z</time>
      </trkpt>
      <trkpt lat="45.34034" lon="4.51163">
        <ele>1276.6</ele>
        <time>2023-04-30T13:44:47Z</time>
      </trkpt>
      <trkpt lat="45.34035" lon="4.51166">
        <ele>1276.6</ele>
        <time>2023-04-30T13:44:48Z</time>
      </trkpt>
      <trkpt lat="45.34036" lon="4.51169">
        <ele>1276.8</ele>
        <time>2023-04-30T13:44:49Z</time>
      </trkpt>
      <trkpt lat="45.34036" lon="4.51172">
        <ele>1276.8</ele>
        <time>2023-04-30T13:44:50Z</time>
      </trkpt>
      <trkpt lat="45.34046" lon="4.51201">
        <ele>1276.8</ele>
        <time>2023-04-30T13:45:00Z</time>
      </trkpt>
      <trkpt lat="45.34061" lon="4.51247">
        <ele>1275.8</ele>
        <time>2023-04-30T13:45:13Z</time>
      </trkpt>
      <trkpt lat="45.34082" lon="4.51287">
        <ele>1273.4</ele>
        <time>2023-04-30T13:45:22Z</time>
      </trkpt>
      <trkpt lat="45.34092" lon="4.51305">
        <ele>1272.4</ele>
        <time>2023-04-30T13:45:26Z</time>
      </trkpt>
      <trkpt lat="45.34095" lon="4.51308">
        <ele>1272.2</ele>
        <time>2023-04-30T13:45:27Z</time>
      </trkpt>
      <trkpt lat="45.34098" lon="4.51312">
        <ele>1272</ele>
        <time>2023-04-30T13:45:28Z</time>
      </trkpt>
      <trkpt lat="45.341" lon="4.51316">
        <ele>1271.6</ele>
        <time>2023-04-30T13:45:29Z</time>
      </trkpt>
      <trkpt lat="45.34102" lon="4.5132">
        <ele>1271.4</ele>
        <time>2023-04-30T13:45:30Z</time>
      </trkpt>
      <trkpt lat="45.34114" lon="4.51346">
        <ele>1270.6</ele>
        <time>2023-04-30T13:45:35Z</time>
      </trkpt>
      <trkpt lat="45.34116" lon="4.51352">
        <ele>1270.4</ele>
        <time>2023-04-30T13:45:36Z</time>
      </trkpt>
      <trkpt lat="45.34118" lon="4.51359">
        <ele>1270</ele>
        <time>2023-04-30T13:45:37Z</time>
      </trkpt>
      <trkpt lat="45.34124" lon="4.51378">
        <ele>1269.4</ele>
        <time>2023-04-30T13:45:40Z</time>
      </trkpt>
      <trkpt lat="45.34127" lon="4.51384">
        <ele>1269.2</ele>
        <time>2023-04-30T13:45:41Z</time>
      </trkpt>
      <trkpt lat="45.34136" lon="4.514">
        <ele>1268.4</ele>
        <time>2023-04-30T13:45:44Z</time>
      </trkpt>
      <trkpt lat="45.34139" lon="4.51404">
        <ele>1267.8</ele>
        <time>2023-04-30T13:45:45Z</time>
      </trkpt>
      <trkpt lat="45.34144" lon="4.51412">
        <ele>1267.2</ele>
        <time>2023-04-30T13:45:47Z</time>
      </trkpt>
      <trkpt lat="45.34146" lon="4.51416">
        <ele>1267</ele>
        <time>2023-04-30T13:45:48Z</time>
      </trkpt>
      <trkpt lat="45.3415" lon="4.51421">
        <ele>1266.8</ele>
        <time>2023-04-30T13:45:49Z</time>
      </trkpt>
      <trkpt lat="45.34153" lon="4.51425">
        <ele>1266.6</ele>
        <time>2023-04-30T13:45:50Z</time>
      </trkpt>
      <trkpt lat="45.34154" lon="4.5143">
        <ele>1266.6</ele>
        <time>2023-04-30T13:45:51Z</time>
      </trkpt>
      <trkpt lat="45.34155" lon="4.51433">
        <ele>1266.6</ele>
        <time>2023-04-30T13:45:52Z</time>
      </trkpt>
      <trkpt lat="45.34161" lon="4.51489">
        <ele>1266.8</ele>
        <time>2023-04-30T13:46:06Z</time>
      </trkpt>
      <trkpt lat="45.34163" lon="4.51497">
        <ele>1266.8</ele>
        <time>2023-04-30T13:46:08Z</time>
      </trkpt>
      <trkpt lat="45.34165" lon="4.515">
        <ele>1266.8</ele>
        <time>2023-04-30T13:46:09Z</time>
      </trkpt>
      <trkpt lat="45.34167" lon="4.51503">
        <ele>1266.8</ele>
        <time>2023-04-30T13:46:10Z</time>
      </trkpt>
      <trkpt lat="45.34169" lon="4.51506">
        <ele>1266.8</ele>
        <time>2023-04-30T13:46:11Z</time>
      </trkpt>
      <trkpt lat="45.3417" lon="4.51509">
        <ele>1266.8</ele>
        <time>2023-04-30T13:46:12Z</time>
      </trkpt>
      <trkpt lat="45.34171" lon="4.51512">
        <ele>1266.8</ele>
        <time>2023-04-30T13:46:13Z</time>
      </trkpt>
      <trkpt lat="45.34173" lon="4.51516">
        <ele>1266.8</ele>
        <time>2023-04-30T13:46:14Z</time>
      </trkpt>
      <trkpt lat="45.34174" lon="4.51519">
        <ele>1266.8</ele>
        <time>2023-04-30T13:46:15Z</time>
      </trkpt>
      <trkpt lat="45.34175" lon="4.51523">
        <ele>1266.8</ele>
        <time>2023-04-30T13:46:16Z</time>
      </trkpt>
      <trkpt lat="45.34193" lon="4.51564">
        <ele>1267.8</ele>
        <time>2023-04-30T13:46:28Z</time>
      </trkpt>
      <trkpt lat="45.34207" lon="4.51601">
        <ele>1269.2</ele>
        <time>2023-04-30T13:46:41Z</time>
      </trkpt>
      <trkpt lat="45.34206" lon="4.51607">
        <ele>1269.4</ele>
        <time>2023-04-30T13:46:43Z</time>
      </trkpt>
      <trkpt lat="45.34207" lon="4.5161">
        <ele>1269.4</ele>
        <time>2023-04-30T13:46:44Z</time>
      </trkpt>
      <trkpt lat="45.3421" lon="4.51614">
        <ele>1269.6</ele>
        <time>2023-04-30T13:46:45Z</time>
      </trkpt>
      <trkpt lat="45.34211" lon="4.51617">
        <ele>1269.6</ele>
        <time>2023-04-30T13:46:46Z</time>
      </trkpt>
      <trkpt lat="45.34212" lon="4.5162">
        <ele>1269.6</ele>
        <time>2023-04-30T13:46:47Z</time>
      </trkpt>
      <trkpt lat="45.34212" lon="4.51623">
        <ele>1269.8</ele>
        <time>2023-04-30T13:46:48Z</time>
      </trkpt>
      <trkpt lat="45.34212" lon="4.51627">
        <ele>1269.8</ele>
        <time>2023-04-30T13:46:49Z</time>
      </trkpt>
      <trkpt lat="45.34213" lon="4.5163">
        <ele>1270</ele>
        <time>2023-04-30T13:46:50Z</time>
      </trkpt>
      <trkpt lat="45.34214" lon="4.51633">
        <ele>1270</ele>
        <time>2023-04-30T13:46:51Z</time>
      </trkpt>
      <trkpt lat="45.34215" lon="4.51636">
        <ele>1270.4</ele>
        <time>2023-04-30T13:46:52Z</time>
      </trkpt>
      <trkpt lat="45.34216" lon="4.51639">
        <ele>1270.6</ele>
        <time>2023-04-30T13:46:53Z</time>
      </trkpt>
      <trkpt lat="45.34217" lon="4.51642">
        <ele>1270.8</ele>
        <time>2023-04-30T13:46:54Z</time>
      </trkpt>
      <trkpt lat="45.34218" lon="4.51645">
        <ele>1270.8</ele>
        <time>2023-04-30T13:46:55Z</time>
      </trkpt>
      <trkpt lat="45.34229" lon="4.51687">
        <ele>1271.4</ele>
        <time>2023-04-30T13:47:08Z</time>
      </trkpt>
      <trkpt lat="45.34235" lon="4.5174">
        <ele>1272</ele>
        <time>2023-04-30T13:47:23Z</time>
      </trkpt>
      <trkpt lat="45.34244" lon="4.51783">
        <ele>1272</ele>
        <time>2023-04-30T13:47:36Z</time>
      </trkpt>
      <trkpt lat="45.34244" lon="4.51785">
        <ele>1272.2</ele>
        <time>2023-04-30T13:47:37Z</time>
      </trkpt>
      <trkpt lat="45.34245" lon="4.51787">
        <ele>1272.2</ele>
        <time>2023-04-30T13:47:38Z</time>
      </trkpt>
      <trkpt lat="45.34245" lon="4.51789">
        <ele>1272.2</ele>
        <time>2023-04-30T13:47:39Z</time>
      </trkpt>
      <trkpt lat="45.34245" lon="4.51791">
        <ele>1272.4</ele>
        <time>2023-04-30T13:47:40Z</time>
      </trkpt>
      <trkpt lat="45.34261" lon="4.51811">
        <ele>1273</ele>
        <time>2023-04-30T13:47:53Z</time>
      </trkpt>
      <trkpt lat="45.34266" lon="4.51813">
        <ele>1273.4</ele>
        <time>2023-04-30T13:47:56Z</time>
      </trkpt>
      <trkpt lat="45.34283" lon="4.51828">
        <ele>1274</ele>
        <time>2023-04-30T13:48:07Z</time>
      </trkpt>
      <trkpt lat="45.343" lon="4.51843">
        <ele>1274.8</ele>
        <time>2023-04-30T13:48:20Z</time>
      </trkpt>
      <trkpt lat="45.34314" lon="4.51854">
        <ele>1276.4</ele>
        <time>2023-04-30T13:48:33Z</time>
      </trkpt>
      <trkpt lat="45.34316" lon="4.51858">
        <ele>1276.8</ele>
        <time>2023-04-30T13:48:37Z</time>
      </trkpt>
      <trkpt lat="45.34317" lon="4.51859">
        <ele>1277</ele>
        <time>2023-04-30T13:48:38Z</time>
      </trkpt>
      <trkpt lat="45.34318" lon="4.5186">
        <ele>1277.2</ele>
        <time>2023-04-30T13:48:39Z</time>
      </trkpt>
      <trkpt lat="45.34335" lon="4.5188">
        <ele>1278.8</ele>
        <time>2023-04-30T13:48:52Z</time>
      </trkpt>
      <trkpt lat="45.34335" lon="4.51885">
        <ele>1279.2</ele>
        <time>2023-04-30T13:48:54Z</time>
      </trkpt>
      <trkpt lat="45.34335" lon="4.51887">
        <ele>1279.4</ele>
        <time>2023-04-30T13:48:55Z</time>
      </trkpt>
      <trkpt lat="45.34342" lon="4.51904">
        <ele>1280.4</ele>
        <time>2023-04-30T13:49:04Z</time>
      </trkpt>
      <trkpt lat="45.34343" lon="4.51906">
        <ele>1280.6</ele>
        <time>2023-04-30T13:49:05Z</time>
      </trkpt>
      <trkpt lat="45.34343" lon="4.51908">
        <ele>1280.8</ele>
        <time>2023-04-30T13:49:06Z</time>
      </trkpt>
      <trkpt lat="45.34344" lon="4.51914">
        <ele>1281</ele>
        <time>2023-04-30T13:49:08Z</time>
      </trkpt>
      <trkpt lat="45.34344" lon="4.51916">
        <ele>1281.2</ele>
        <time>2023-04-30T13:49:09Z</time>
      </trkpt>
      <trkpt lat="45.34344" lon="4.51918">
        <ele>1281.4</ele>
        <time>2023-04-30T13:49:10Z</time>
      </trkpt>
      <trkpt lat="45.34345" lon="4.51921">
        <ele>1281.6</ele>
        <time>2023-04-30T13:49:11Z</time>
      </trkpt>
      <trkpt lat="45.34345" lon="4.51923">
        <ele>1281.8</ele>
        <time>2023-04-30T13:49:12Z</time>
      </trkpt>
      <trkpt lat="45.34345" lon="4.51926">
        <ele>1281.8</ele>
        <time>2023-04-30T13:49:13Z</time>
      </trkpt>
      <trkpt lat="45.34346" lon="4.51928">
        <ele>1282</ele>
        <time>2023-04-30T13:49:14Z</time>
      </trkpt>
      <trkpt lat="45.34347" lon="4.5193">
        <ele>1282.2</ele>
        <time>2023-04-30T13:49:15Z</time>
      </trkpt>
      <trkpt lat="45.34347" lon="4.51932">
        <ele>1282.4</ele>
        <time>2023-04-30T13:49:16Z</time>
      </trkpt>
      <trkpt lat="45.34348" lon="4.51934">
        <ele>1282.4</ele>
        <time>2023-04-30T13:49:17Z</time>
      </trkpt>
      <trkpt lat="45.34349" lon="4.51936">
        <ele>1282.6</ele>
        <time>2023-04-30T13:49:18Z</time>
      </trkpt>
      <trkpt lat="45.34349" lon="4.51938">
        <ele>1282.8</ele>
        <time>2023-04-30T13:49:19Z</time>
      </trkpt>
      <trkpt lat="45.34351" lon="4.51951">
        <ele>1283.8</ele>
        <time>2023-04-30T13:49:25Z</time>
      </trkpt>
      <trkpt lat="45.34351" lon="4.51953">
        <ele>1283.8</ele>
        <time>2023-04-30T13:49:26Z</time>
      </trkpt>
      <trkpt lat="45.34352" lon="4.51955">
        <ele>1284</ele>
        <time>2023-04-30T13:49:27Z</time>
      </trkpt>
      <trkpt lat="45.34352" lon="4.51957">
        <ele>1284.2</ele>
        <time>2023-04-30T13:49:28Z</time>
      </trkpt>
      <trkpt lat="45.34352" lon="4.5196">
        <ele>1284.4</ele>
        <time>2023-04-30T13:49:29Z</time>
      </trkpt>
      <trkpt lat="45.34352" lon="4.51962">
        <ele>1284.6</ele>
        <time>2023-04-30T13:49:30Z</time>
      </trkpt>
      <trkpt lat="45.34356" lon="4.51974">
        <ele>1285.2</ele>
        <time>2023-04-30T13:49:36Z</time>
      </trkpt>
      <trkpt lat="45.34356" lon="4.51976">
        <ele>1285.2</ele>
        <time>2023-04-30T13:49:37Z</time>
      </trkpt>
      <trkpt lat="45.34357" lon="4.51979">
        <ele>1285.4</ele>
        <time>2023-04-30T13:49:38Z</time>
      </trkpt>
      <trkpt lat="45.34358" lon="4.51981">
        <ele>1285.4</ele>
        <time>2023-04-30T13:49:39Z</time>
      </trkpt>
      <trkpt lat="45.34359" lon="4.51983">
        <ele>1285.6</ele>
        <time>2023-04-30T13:49:40Z</time>
      </trkpt>
      <trkpt lat="45.34359" lon="4.51985">
        <ele>1285.8</ele>
        <time>2023-04-30T13:49:41Z</time>
      </trkpt>
      <trkpt lat="45.34359" lon="4.51987">
        <ele>1286</ele>
        <time>2023-04-30T13:49:42Z</time>
      </trkpt>
      <trkpt lat="45.3436" lon="4.51997">
        <ele>1287.6</ele>
        <time>2023-04-30T13:49:47Z</time>
      </trkpt>
      <trkpt lat="45.34361" lon="4.52">
        <ele>1287.6</ele>
        <time>2023-04-30T13:49:48Z</time>
      </trkpt>
      <trkpt lat="45.34366" lon="4.52008">
        <ele>1288.6</ele>
        <time>2023-04-30T13:49:52Z</time>
      </trkpt>
      <trkpt lat="45.34368" lon="4.5201">
        <ele>1288.6</ele>
        <time>2023-04-30T13:49:53Z</time>
      </trkpt>
      <trkpt lat="45.34368" lon="4.52012">
        <ele>1288.8</ele>
        <time>2023-04-30T13:49:54Z</time>
      </trkpt>
      <trkpt lat="45.34368" lon="4.52015">
        <ele>1289</ele>
        <time>2023-04-30T13:49:55Z</time>
      </trkpt>
      <trkpt lat="45.34367" lon="4.52017">
        <ele>1289.2</ele>
        <time>2023-04-30T13:49:56Z</time>
      </trkpt>
      <trkpt lat="45.34367" lon="4.52019">
        <ele>1289.4</ele>
        <time>2023-04-30T13:49:57Z</time>
      </trkpt>
      <trkpt lat="45.34368" lon="4.52021">
        <ele>1289.6</ele>
        <time>2023-04-30T13:49:58Z</time>
      </trkpt>
      <trkpt lat="45.34368" lon="4.52023">
        <ele>1289.8</ele>
        <time>2023-04-30T13:49:59Z</time>
      </trkpt>
      <trkpt lat="45.34368" lon="4.52025">
        <ele>1290</ele>
        <time>2023-04-30T13:50:00Z</time>
      </trkpt>
      <trkpt lat="45.34367" lon="4.52027">
        <ele>1290</ele>
        <time>2023-04-30T13:50:01Z</time>
      </trkpt>
      <trkpt lat="45.34367" lon="4.52029">
        <ele>1290.2</ele>
        <time>2023-04-30T13:50:02Z</time>
      </trkpt>
      <trkpt lat="45.34366" lon="4.52031">
        <ele>1290.4</ele>
        <time>2023-04-30T13:50:03Z</time>
      </trkpt>
      <trkpt lat="45.34368" lon="4.52046">
        <ele>1291.6</ele>
        <time>2023-04-30T13:50:10Z</time>
      </trkpt>
      <trkpt lat="45.34375" lon="4.52071">
        <ele>1293.2</ele>
        <time>2023-04-30T13:50:22Z</time>
      </trkpt>
      <trkpt lat="45.34392" lon="4.52101">
        <ele>1295.2</ele>
        <time>2023-04-30T13:50:38Z</time>
      </trkpt>
      <trkpt lat="45.34401" lon="4.52121">
        <ele>1296.4</ele>
        <time>2023-04-30T13:50:48Z</time>
      </trkpt>
      <trkpt lat="45.34402" lon="4.52123">
        <ele>1296.4</ele>
        <time>2023-04-30T13:50:49Z</time>
      </trkpt>
      <trkpt lat="45.34403" lon="4.52126">
        <ele>1296.6</ele>
        <time>2023-04-30T13:50:50Z</time>
      </trkpt>
      <trkpt lat="45.34403" lon="4.52128">
        <ele>1296.6</ele>
        <time>2023-04-30T13:50:51Z</time>
      </trkpt>
      <trkpt lat="45.34403" lon="4.52131">
        <ele>1296.8</ele>
        <time>2023-04-30T13:50:52Z</time>
      </trkpt>
      <trkpt lat="45.34404" lon="4.52133">
        <ele>1297</ele>
        <time>2023-04-30T13:50:53Z</time>
      </trkpt>
      <trkpt lat="45.34405" lon="4.52135">
        <ele>1297.2</ele>
        <time>2023-04-30T13:50:54Z</time>
      </trkpt>
      <trkpt lat="45.34406" lon="4.52137">
        <ele>1297.4</ele>
        <time>2023-04-30T13:50:55Z</time>
      </trkpt>
      <trkpt lat="45.34427" lon="4.52163">
        <ele>1298.8</ele>
        <time>2023-04-30T13:51:11Z</time>
      </trkpt>
      <trkpt lat="45.3444" lon="4.52184">
        <ele>1299.4</ele>
        <time>2023-04-30T13:51:20Z</time>
      </trkpt>
      <trkpt lat="45.34441" lon="4.52186">
        <ele>1299.4</ele>
        <time>2023-04-30T13:51:21Z</time>
      </trkpt>
      <trkpt lat="45.34445" lon="4.52193">
        <ele>1301</ele>
        <time>2023-04-30T13:51:35Z</time>
      </trkpt>
      <trkpt lat="45.34442" lon="4.52196">
        <ele>1301.6</ele>
        <time>2023-04-30T13:51:50Z</time>
      </trkpt>
      <trkpt lat="45.34444" lon="4.52195">
        <ele>1301.2</ele>
        <time>2023-04-30T13:52:35Z</time>
      </trkpt>
      <trkpt lat="45.34441" lon="4.52194">
        <ele>1301.2</ele>
        <time>2023-04-30T13:52:38Z</time>
      </trkpt>
      <trkpt lat="45.34441" lon="4.52199">
        <ele>1301.4</ele>
        <time>2023-04-30T13:52:56Z</time>
      </trkpt>
      <trkpt lat="45.34443" lon="4.52202">
        <ele>1301.4</ele>
        <time>2023-04-30T13:52:58Z</time>
      </trkpt>
      <trkpt lat="45.34447" lon="4.52207">
        <ele>1301.4</ele>
        <time>2023-04-30T13:53:06Z</time>
      </trkpt>
      <trkpt lat="45.34454" lon="4.52205">
        <ele>1301.2</ele>
        <time>2023-04-30T13:53:35Z</time>
      </trkpt>
      <trkpt lat="45.34451" lon="4.52206">
        <ele>1301.2</ele>
        <time>2023-04-30T13:54:03Z</time>
      </trkpt>
      <trkpt lat="45.34451" lon="4.52204">
        <ele>1301.4</ele>
        <time>2023-04-30T13:54:18Z</time>
      </trkpt>
      <trkpt lat="45.34452" lon="4.52205">
        <ele>1301.4</ele>
        <time>2023-04-30T13:54:38Z</time>
      </trkpt>
      <trkpt lat="45.34458" lon="4.52215">
        <ele>1301.2</ele>
        <time>2023-04-30T13:54:48Z</time>
      </trkpt>
      <trkpt lat="45.34466" lon="4.52224">
        <ele>1301.4</ele>
        <time>2023-04-30T13:54:53Z</time>
      </trkpt>
      <trkpt lat="45.34471" lon="4.52234">
        <ele>1301.4</ele>
        <time>2023-04-30T13:54:57Z</time>
      </trkpt>
      <trkpt lat="45.34473" lon="4.52237">
        <ele>1301.2</ele>
        <time>2023-04-30T13:54:58Z</time>
      </trkpt>
      <trkpt lat="45.34474" lon="4.5224">
        <ele>1301.2</ele>
        <time>2023-04-30T13:54:59Z</time>
      </trkpt>
      <trkpt lat="45.34479" lon="4.52267">
        <ele>1301.4</ele>
        <time>2023-04-30T13:55:09Z</time>
      </trkpt>
      <trkpt lat="45.34478" lon="4.5227">
        <ele>1301.4</ele>
        <time>2023-04-30T13:55:10Z</time>
      </trkpt>
      <trkpt lat="45.34478" lon="4.52272">
        <ele>1301.4</ele>
        <time>2023-04-30T13:55:11Z</time>
      </trkpt>
      <trkpt lat="45.34479" lon="4.52278">
        <ele>1301.4</ele>
        <time>2023-04-30T13:55:13Z</time>
      </trkpt>
      <trkpt lat="45.3448" lon="4.5228">
        <ele>1301.6</ele>
        <time>2023-04-30T13:55:14Z</time>
      </trkpt>
      <trkpt lat="45.34481" lon="4.52284">
        <ele>1301.8</ele>
        <time>2023-04-30T13:55:15Z</time>
      </trkpt>
      <trkpt lat="45.34489" lon="4.52324">
        <ele>1302.6</ele>
        <time>2023-04-30T13:55:30Z</time>
      </trkpt>
      <trkpt lat="45.3449" lon="4.52341">
        <ele>1303.2</ele>
        <time>2023-04-30T13:55:36Z</time>
      </trkpt>
      <trkpt lat="45.3449" lon="4.52344">
        <ele>1303.4</ele>
        <time>2023-04-30T13:55:37Z</time>
      </trkpt>
      <trkpt lat="45.34491" lon="4.52347">
        <ele>1303.4</ele>
        <time>2023-04-30T13:55:38Z</time>
      </trkpt>
      <trkpt lat="45.34487" lon="4.52347">
        <ele>1303.4</ele>
        <time>2023-04-30T13:55:39Z</time>
      </trkpt>
      <trkpt lat="45.34482" lon="4.52351">
        <ele>1303.6</ele>
        <time>2023-04-30T13:55:40Z</time>
      </trkpt>
      <trkpt lat="45.34481" lon="4.52356">
        <ele>1303.6</ele>
        <time>2023-04-30T13:55:41Z</time>
      </trkpt>
      <trkpt lat="45.34483" lon="4.5236">
        <ele>1303.8</ele>
        <time>2023-04-30T13:55:42Z</time>
      </trkpt>
      <trkpt lat="45.34486" lon="4.52363">
        <ele>1304</ele>
        <time>2023-04-30T13:55:44Z</time>
      </trkpt>
      <trkpt lat="45.34487" lon="4.52366">
        <ele>1304.2</ele>
        <time>2023-04-30T13:55:45Z</time>
      </trkpt>
      <trkpt lat="45.34488" lon="4.52368">
        <ele>1304.2</ele>
        <time>2023-04-30T13:55:46Z</time>
      </trkpt>
      <trkpt lat="45.34489" lon="4.52372">
        <ele>1304.4</ele>
        <time>2023-04-30T13:55:47Z</time>
      </trkpt>
      <trkpt lat="45.3449" lon="4.52375">
        <ele>1304.4</ele>
        <time>2023-04-30T13:55:48Z</time>
      </trkpt>
      <trkpt lat="45.34491" lon="4.52378">
        <ele>1304.6</ele>
        <time>2023-04-30T13:55:49Z</time>
      </trkpt>
      <trkpt lat="45.34492" lon="4.52382">
        <ele>1304.6</ele>
        <time>2023-04-30T13:55:50Z</time>
      </trkpt>
      <trkpt lat="45.34509" lon="4.5242">
        <ele>1304.4</ele>
        <time>2023-04-30T13:56:02Z</time>
      </trkpt>
      <trkpt lat="45.34515" lon="4.52434">
        <ele>1304.4</ele>
        <time>2023-04-30T13:56:06Z</time>
      </trkpt>
      <trkpt lat="45.34516" lon="4.52437">
        <ele>1304.4</ele>
        <time>2023-04-30T13:56:07Z</time>
      </trkpt>
      <trkpt lat="45.34517" lon="4.5244">
        <ele>1304.2</ele>
        <time>2023-04-30T13:56:08Z</time>
      </trkpt>
      <trkpt lat="45.3452" lon="4.52445">
        <ele>1304.2</ele>
        <time>2023-04-30T13:56:09Z</time>
      </trkpt>
      <trkpt lat="45.34522" lon="4.5245">
        <ele>1304.2</ele>
        <time>2023-04-30T13:56:10Z</time>
      </trkpt>
      <trkpt lat="45.34523" lon="4.52455">
        <ele>1304.2</ele>
        <time>2023-04-30T13:56:11Z</time>
      </trkpt>
      <trkpt lat="45.34526" lon="4.52459">
        <ele>1304.2</ele>
        <time>2023-04-30T13:56:12Z</time>
      </trkpt>
      <trkpt lat="45.34528" lon="4.52462">
        <ele>1304</ele>
        <time>2023-04-30T13:56:13Z</time>
      </trkpt>
      <trkpt lat="45.3453" lon="4.52467">
        <ele>1304</ele>
        <time>2023-04-30T13:56:14Z</time>
      </trkpt>
      <trkpt lat="45.34533" lon="4.52471">
        <ele>1303.8</ele>
        <time>2023-04-30T13:56:15Z</time>
      </trkpt>
      <trkpt lat="45.34536" lon="4.52475">
        <ele>1303.4</ele>
        <time>2023-04-30T13:56:16Z</time>
      </trkpt>
      <trkpt lat="45.34538" lon="4.52479">
        <ele>1303</ele>
        <time>2023-04-30T13:56:17Z</time>
      </trkpt>
      <trkpt lat="45.34542" lon="4.52484">
        <ele>1302.8</ele>
        <time>2023-04-30T13:56:18Z</time>
      </trkpt>
      <trkpt lat="45.34544" lon="4.52489">
        <ele>1302.4</ele>
        <time>2023-04-30T13:56:19Z</time>
      </trkpt>
      <trkpt lat="45.3455" lon="4.52491">
        <ele>1302</ele>
        <time>2023-04-30T13:56:20Z</time>
      </trkpt>
      <trkpt lat="45.34554" lon="4.52495">
        <ele>1301.8</ele>
        <time>2023-04-30T13:56:21Z</time>
      </trkpt>
      <trkpt lat="45.34556" lon="4.52501">
        <ele>1301.6</ele>
        <time>2023-04-30T13:56:22Z</time>
      </trkpt>
      <trkpt lat="45.34575" lon="4.52533">
        <ele>1299.2</ele>
        <time>2023-04-30T13:56:31Z</time>
      </trkpt>
      <trkpt lat="45.34605" lon="4.52552">
        <ele>1297</ele>
        <time>2023-04-30T13:56:41Z</time>
      </trkpt>
      <trkpt lat="45.34639" lon="4.52558">
        <ele>1293.8</ele>
        <time>2023-04-30T13:56:51Z</time>
      </trkpt>
      <trkpt lat="45.34643" lon="4.52559">
        <ele>1293.4</ele>
        <time>2023-04-30T13:56:52Z</time>
      </trkpt>
      <trkpt lat="45.34648" lon="4.5256">
        <ele>1292.8</ele>
        <time>2023-04-30T13:56:53Z</time>
      </trkpt>
      <trkpt lat="45.34652" lon="4.52561">
        <ele>1292.4</ele>
        <time>2023-04-30T13:56:54Z</time>
      </trkpt>
      <trkpt lat="45.34666" lon="4.52564">
        <ele>1291.6</ele>
        <time>2023-04-30T13:56:57Z</time>
      </trkpt>
      <trkpt lat="45.34677" lon="4.52568">
        <ele>1290.6</ele>
        <time>2023-04-30T13:56:59Z</time>
      </trkpt>
      <trkpt lat="45.34682" lon="4.5257">
        <ele>1290.4</ele>
        <time>2023-04-30T13:57:00Z</time>
      </trkpt>
      <trkpt lat="45.34708" lon="4.52586">
        <ele>1287</ele>
        <time>2023-04-30T13:57:05Z</time>
      </trkpt>
      <trkpt lat="45.34713" lon="4.5259">
        <ele>1286</ele>
        <time>2023-04-30T13:57:06Z</time>
      </trkpt>
      <trkpt lat="45.34749" lon="4.52621">
        <ele>1283.4</ele>
        <time>2023-04-30T13:57:16Z</time>
      </trkpt>
      <trkpt lat="45.34757" lon="4.52629">
        <ele>1283.4</ele>
        <time>2023-04-30T13:57:22Z</time>
      </trkpt>
      <trkpt lat="45.34759" lon="4.52628">
        <ele>1283.4</ele>
        <time>2023-04-30T13:57:23Z</time>
      </trkpt>
      <trkpt lat="45.34763" lon="4.52628">
        <ele>1283.6</ele>
        <time>2023-04-30T13:57:25Z</time>
      </trkpt>
      <trkpt lat="45.34769" lon="4.52626">
        <ele>1284.2</ele>
        <time>2023-04-30T13:57:29Z</time>
      </trkpt>
      <trkpt lat="45.34787" lon="4.52628">
        <ele>1284.6</ele>
        <time>2023-04-30T13:57:41Z</time>
      </trkpt>
      <trkpt lat="45.34802" lon="4.52624">
        <ele>1285</ele>
        <time>2023-04-30T13:57:54Z</time>
      </trkpt>
      <trkpt lat="45.34819" lon="4.52625">
        <ele>1285</ele>
        <time>2023-04-30T13:58:34Z</time>
      </trkpt>
      <trkpt lat="45.34838" lon="4.52625">
        <ele>1286.4</ele>
        <time>2023-04-30T13:58:46Z</time>
      </trkpt>
      <trkpt lat="45.34856" lon="4.52622">
        <ele>1287.2</ele>
        <time>2023-04-30T13:58:58Z</time>
      </trkpt>
      <trkpt lat="45.34875" lon="4.52613">
        <ele>1289.6</ele>
        <time>2023-04-30T13:59:11Z</time>
      </trkpt>
      <trkpt lat="45.34892" lon="4.52608">
        <ele>1291.2</ele>
        <time>2023-04-30T13:59:22Z</time>
      </trkpt>
      <trkpt lat="45.34894" lon="4.52609">
        <ele>1291.4</ele>
        <time>2023-04-30T13:59:23Z</time>
      </trkpt>
      <trkpt lat="45.34904" lon="4.52603">
        <ele>1292.2</ele>
        <time>2023-04-30T13:59:30Z</time>
      </trkpt>
      <trkpt lat="45.34908" lon="4.52601">
        <ele>1292.6</ele>
        <time>2023-04-30T13:59:33Z</time>
      </trkpt>
      <trkpt lat="45.34926" lon="4.52593">
        <ele>1294.4</ele>
        <time>2023-04-30T13:59:44Z</time>
      </trkpt>
      <trkpt lat="45.34928" lon="4.52593">
        <ele>1294.4</ele>
        <time>2023-04-30T13:59:45Z</time>
      </trkpt>
      <trkpt lat="45.3493" lon="4.52592">
        <ele>1294.6</ele>
        <time>2023-04-30T13:59:46Z</time>
      </trkpt>
      <trkpt lat="45.3495" lon="4.52586">
        <ele>1296.2</ele>
        <time>2023-04-30T13:59:58Z</time>
      </trkpt>
      <trkpt lat="45.34969" lon="4.52579">
        <ele>1298</ele>
        <time>2023-04-30T14:00:10Z</time>
      </trkpt>
      <trkpt lat="45.34983" lon="4.52575">
        <ele>1299.4</ele>
        <time>2023-04-30T14:00:21Z</time>
      </trkpt>
      <trkpt lat="45.34998" lon="4.52567">
        <ele>1300</ele>
        <time>2023-04-30T14:01:29Z</time>
      </trkpt>
      <trkpt lat="45.35021" lon="4.52568">
        <ele>1300.2</ele>
        <time>2023-04-30T14:01:42Z</time>
      </trkpt>
      <trkpt lat="45.35049" lon="4.52571">
        <ele>1300.8</ele>
        <time>2023-04-30T14:01:55Z</time>
      </trkpt>
      <trkpt lat="45.35051" lon="4.52571">
        <ele>1300.8</ele>
        <time>2023-04-30T14:01:56Z</time>
      </trkpt>
      <trkpt lat="45.35053" lon="4.52571">
        <ele>1300.8</ele>
        <time>2023-04-30T14:01:57Z</time>
      </trkpt>
      <trkpt lat="45.35067" lon="4.52572">
        <ele>1301</ele>
        <time>2023-04-30T14:02:04Z</time>
      </trkpt>
      <trkpt lat="45.35069" lon="4.52572">
        <ele>1301</ele>
        <time>2023-04-30T14:02:05Z</time>
      </trkpt>
      <trkpt lat="45.3507" lon="4.52571">
        <ele>1301</ele>
        <time>2023-04-30T14:02:06Z</time>
      </trkpt>
      <trkpt lat="45.35099" lon="4.52571">
        <ele>1302</ele>
        <time>2023-04-30T14:02:21Z</time>
      </trkpt>
      <trkpt lat="45.35125" lon="4.52575">
        <ele>1303.4</ele>
        <time>2023-04-30T14:02:34Z</time>
      </trkpt>
      <trkpt lat="45.35144" lon="4.52575">
        <ele>1304.6</ele>
        <time>2023-04-30T14:02:44Z</time>
      </trkpt>
      <trkpt lat="45.35163" lon="4.52579">
        <ele>1305</ele>
        <time>2023-04-30T14:02:56Z</time>
      </trkpt>
      <trkpt lat="45.35183" lon="4.52581">
        <ele>1305.2</ele>
        <time>2023-04-30T14:03:05Z</time>
      </trkpt>
      <trkpt lat="45.35185" lon="4.52581">
        <ele>1305.2</ele>
        <time>2023-04-30T14:03:06Z</time>
      </trkpt>
      <trkpt lat="45.35187" lon="4.52582">
        <ele>1305.2</ele>
        <time>2023-04-30T14:03:07Z</time>
      </trkpt>
      <trkpt lat="45.35215" lon="4.5259">
        <ele>1305.4</ele>
        <time>2023-04-30T14:03:18Z</time>
      </trkpt>
      <trkpt lat="45.35234" lon="4.52598">
        <ele>1305.4</ele>
        <time>2023-04-30T14:03:27Z</time>
      </trkpt>
      <trkpt lat="45.35243" lon="4.52604">
        <ele>1305.2</ele>
        <time>2023-04-30T14:03:32Z</time>
      </trkpt>
      <trkpt lat="45.35244" lon="4.52606">
        <ele>1305.2</ele>
        <time>2023-04-30T14:03:33Z</time>
      </trkpt>
      <trkpt lat="45.35263" lon="4.52616">
        <ele>1304.8</ele>
        <time>2023-04-30T14:03:42Z</time>
      </trkpt>
      <trkpt lat="45.35287" lon="4.52632">
        <ele>1303.4</ele>
        <time>2023-04-30T14:03:50Z</time>
      </trkpt>
      <trkpt lat="45.35314" lon="4.52657">
        <ele>1302.4</ele>
        <time>2023-04-30T14:04:01Z</time>
      </trkpt>
      <trkpt lat="45.35322" lon="4.52664">
        <ele>1302.2</ele>
        <time>2023-04-30T14:04:04Z</time>
      </trkpt>
      <trkpt lat="45.35324" lon="4.52665">
        <ele>1302.2</ele>
        <time>2023-04-30T14:04:05Z</time>
      </trkpt>
      <trkpt lat="45.35326" lon="4.52668">
        <ele>1302.2</ele>
        <time>2023-04-30T14:04:06Z</time>
      </trkpt>
      <trkpt lat="45.35328" lon="4.52671">
        <ele>1302.2</ele>
        <time>2023-04-30T14:04:07Z</time>
      </trkpt>
      <trkpt lat="45.3533" lon="4.52673">
        <ele>1302.2</ele>
        <time>2023-04-30T14:04:08Z</time>
      </trkpt>
      <trkpt lat="45.35332" lon="4.52676">
        <ele>1302.2</ele>
        <time>2023-04-30T14:04:09Z</time>
      </trkpt>
      <trkpt lat="45.35334" lon="4.52678">
        <ele>1302</ele>
        <time>2023-04-30T14:04:10Z</time>
      </trkpt>
      <trkpt lat="45.35337" lon="4.5268">
        <ele>1302</ele>
        <time>2023-04-30T14:04:11Z</time>
      </trkpt>
      <trkpt lat="45.35339" lon="4.52682">
        <ele>1301.8</ele>
        <time>2023-04-30T14:04:12Z</time>
      </trkpt>
      <trkpt lat="45.35355" lon="4.52695">
        <ele>1300.4</ele>
        <time>2023-04-30T14:04:18Z</time>
      </trkpt>
      <trkpt lat="45.35356" lon="4.52699">
        <ele>1300.4</ele>
        <time>2023-04-30T14:04:19Z</time>
      </trkpt>
      <trkpt lat="45.35358" lon="4.52703">
        <ele>1300.2</ele>
        <time>2023-04-30T14:04:20Z</time>
      </trkpt>
      <trkpt lat="45.3536" lon="4.52705">
        <ele>1300</ele>
        <time>2023-04-30T14:04:21Z</time>
      </trkpt>
      <trkpt lat="45.35362" lon="4.52707">
        <ele>1299.6</ele>
        <time>2023-04-30T14:04:22Z</time>
      </trkpt>
      <trkpt lat="45.35364" lon="4.52709">
        <ele>1299.2</ele>
        <time>2023-04-30T14:04:23Z</time>
      </trkpt>
      <trkpt lat="45.35366" lon="4.52712">
        <ele>1298.8</ele>
        <time>2023-04-30T14:04:24Z</time>
      </trkpt>
      <trkpt lat="45.35367" lon="4.52714">
        <ele>1298.6</ele>
        <time>2023-04-30T14:04:25Z</time>
      </trkpt>
      <trkpt lat="45.35369" lon="4.52716">
        <ele>1298.4</ele>
        <time>2023-04-30T14:04:26Z</time>
      </trkpt>
      <trkpt lat="45.35372" lon="4.52718">
        <ele>1297.8</ele>
        <time>2023-04-30T14:04:27Z</time>
      </trkpt>
      <trkpt lat="45.35389" lon="4.52729">
        <ele>1295.8</ele>
        <time>2023-04-30T14:04:34Z</time>
      </trkpt>
      <trkpt lat="45.35415" lon="4.52751">
        <ele>1292.8</ele>
        <time>2023-04-30T14:04:44Z</time>
      </trkpt>
      <trkpt lat="45.35429" lon="4.52758">
        <ele>1292</ele>
        <time>2023-04-30T14:04:47Z</time>
      </trkpt>
      <trkpt lat="45.3547" lon="4.5277">
        <ele>1289.2</ele>
        <time>2023-04-30T14:04:54Z</time>
      </trkpt>
      <trkpt lat="45.35495" lon="4.52774">
        <ele>1286.2</ele>
        <time>2023-04-30T14:05:00Z</time>
      </trkpt>
      <trkpt lat="45.35523" lon="4.52766">
        <ele>1284</ele>
        <time>2023-04-30T14:05:12Z</time>
      </trkpt>
      <trkpt lat="45.35525" lon="4.52766">
        <ele>1283.8</ele>
        <time>2023-04-30T14:05:13Z</time>
      </trkpt>
      <trkpt lat="45.35535" lon="4.52765">
        <ele>1283.8</ele>
        <time>2023-04-30T14:05:28Z</time>
      </trkpt>
      <trkpt lat="45.35542" lon="4.52771">
        <ele>1284.2</ele>
        <time>2023-04-30T14:06:27Z</time>
      </trkpt>
      <trkpt lat="45.35544" lon="4.52774">
        <ele>1284.2</ele>
        <time>2023-04-30T14:06:29Z</time>
      </trkpt>
      <trkpt lat="45.35546" lon="4.52775">
        <ele>1284.2</ele>
        <time>2023-04-30T14:06:30Z</time>
      </trkpt>
      <trkpt lat="45.35548" lon="4.52776">
        <ele>1284.2</ele>
        <time>2023-04-30T14:06:31Z</time>
      </trkpt>
      <trkpt lat="45.35551" lon="4.52777">
        <ele>1284.2</ele>
        <time>2023-04-30T14:06:32Z</time>
      </trkpt>
      <trkpt lat="45.35553" lon="4.52777">
        <ele>1284.2</ele>
        <time>2023-04-30T14:06:33Z</time>
      </trkpt>
      <trkpt lat="45.35577" lon="4.52785">
        <ele>1283.6</ele>
        <time>2023-04-30T14:06:45Z</time>
      </trkpt>
      <trkpt lat="45.35596" lon="4.52785">
        <ele>1283.4</ele>
        <time>2023-04-30T14:06:53Z</time>
      </trkpt>
      <trkpt lat="45.35598" lon="4.52784">
        <ele>1283.2</ele>
        <time>2023-04-30T14:06:54Z</time>
      </trkpt>
      <trkpt lat="45.3562" lon="4.52786">
        <ele>1282.8</ele>
        <time>2023-04-30T14:07:05Z</time>
      </trkpt>
      <trkpt lat="45.35623" lon="4.52785">
        <ele>1282.6</ele>
        <time>2023-04-30T14:07:06Z</time>
      </trkpt>
      <trkpt lat="45.35625" lon="4.52785">
        <ele>1282.6</ele>
        <time>2023-04-30T14:07:07Z</time>
      </trkpt>
      <trkpt lat="45.35628" lon="4.52785">
        <ele>1282.6</ele>
        <time>2023-04-30T14:07:08Z</time>
      </trkpt>
      <trkpt lat="45.35631" lon="4.52785">
        <ele>1282.6</ele>
        <time>2023-04-30T14:07:09Z</time>
      </trkpt>
      <trkpt lat="45.35634" lon="4.52786">
        <ele>1282.6</ele>
        <time>2023-04-30T14:07:10Z</time>
      </trkpt>
      <trkpt lat="45.35637" lon="4.52786">
        <ele>1282.6</ele>
        <time>2023-04-30T14:07:11Z</time>
      </trkpt>
      <trkpt lat="45.35639" lon="4.52786">
        <ele>1282.6</ele>
        <time>2023-04-30T14:07:12Z</time>
      </trkpt>
      <trkpt lat="45.35642" lon="4.52785">
        <ele>1282.4</ele>
        <time>2023-04-30T14:07:13Z</time>
      </trkpt>
      <trkpt lat="45.35676" lon="4.52778">
        <ele>1282</ele>
        <time>2023-04-30T14:07:24Z</time>
      </trkpt>
      <trkpt lat="45.35714" lon="4.52768">
        <ele>1281.2</ele>
        <time>2023-04-30T14:07:35Z</time>
      </trkpt>
      <trkpt lat="45.35737" lon="4.52755">
        <ele>1280.4</ele>
        <time>2023-04-30T14:07:41Z</time>
      </trkpt>
      <trkpt lat="45.35774" lon="4.52728">
        <ele>1277.4</ele>
        <time>2023-04-30T14:07:50Z</time>
      </trkpt>
      <trkpt lat="45.35783" lon="4.52721">
        <ele>1277</ele>
        <time>2023-04-30T14:07:52Z</time>
      </trkpt>
      <trkpt lat="45.35797" lon="4.52712">
        <ele>1276.6</ele>
        <time>2023-04-30T14:07:55Z</time>
      </trkpt>
      <trkpt lat="45.35812" lon="4.52706">
        <ele>1275.4</ele>
        <time>2023-04-30T14:07:58Z</time>
      </trkpt>
      <trkpt lat="45.35817" lon="4.52704">
        <ele>1274.8</ele>
        <time>2023-04-30T14:07:59Z</time>
      </trkpt>
      <trkpt lat="45.35822" lon="4.52702">
        <ele>1274.2</ele>
        <time>2023-04-30T14:08:00Z</time>
      </trkpt>
      <trkpt lat="45.35853" lon="4.52687">
        <ele>1272.2</ele>
        <time>2023-04-30T14:08:09Z</time>
      </trkpt>
      <trkpt lat="45.35869" lon="4.52678">
        <ele>1271.2</ele>
        <time>2023-04-30T14:08:13Z</time>
      </trkpt>
      <trkpt lat="45.35873" lon="4.52676">
        <ele>1270.8</ele>
        <time>2023-04-30T14:08:14Z</time>
      </trkpt>
      <trkpt lat="45.35878" lon="4.52672">
        <ele>1270</ele>
        <time>2023-04-30T14:08:15Z</time>
      </trkpt>
      <trkpt lat="45.35919" lon="4.52651">
        <ele>1267</ele>
        <time>2023-04-30T14:08:24Z</time>
      </trkpt>
      <trkpt lat="45.35931" lon="4.52647">
        <ele>1265.8</ele>
        <time>2023-04-30T14:08:27Z</time>
      </trkpt>
      <trkpt lat="45.35971" lon="4.52637">
        <ele>1264.4</ele>
        <time>2023-04-30T14:08:38Z</time>
      </trkpt>
      <trkpt lat="45.36009" lon="4.5262">
        <ele>1264.2</ele>
        <time>2023-04-30T14:08:49Z</time>
      </trkpt>
      <trkpt lat="45.36012" lon="4.52617">
        <ele>1263.8</ele>
        <time>2023-04-30T14:08:50Z</time>
      </trkpt>
      <trkpt lat="45.36023" lon="4.52606">
        <ele>1260.6</ele>
        <time>2023-04-30T14:08:56Z</time>
      </trkpt>
      <trkpt lat="45.3603" lon="4.52601">
        <ele>1259.2</ele>
        <time>2023-04-30T14:09:00Z</time>
      </trkpt>
      <trkpt lat="45.36048" lon="4.52576">
        <ele>1256.6</ele>
        <time>2023-04-30T14:09:11Z</time>
      </trkpt>
      <trkpt lat="45.36072" lon="4.52546">
        <ele>1253.6</ele>
        <time>2023-04-30T14:09:20Z</time>
      </trkpt>
      <trkpt lat="45.36075" lon="4.52544">
        <ele>1253.2</ele>
        <time>2023-04-30T14:09:21Z</time>
      </trkpt>
      <trkpt lat="45.36077" lon="4.52544">
        <ele>1252.8</ele>
        <time>2023-04-30T14:09:22Z</time>
      </trkpt>
      <trkpt lat="45.3608" lon="4.52544">
        <ele>1252.2</ele>
        <time>2023-04-30T14:09:23Z</time>
      </trkpt>
      <trkpt lat="45.36082" lon="4.52543">
        <ele>1251.8</ele>
        <time>2023-04-30T14:09:24Z</time>
      </trkpt>
      <trkpt lat="45.36085" lon="4.52542">
        <ele>1251.4</ele>
        <time>2023-04-30T14:09:25Z</time>
      </trkpt>
      <trkpt lat="45.36088" lon="4.52541">
        <ele>1251</ele>
        <time>2023-04-30T14:09:26Z</time>
      </trkpt>
      <trkpt lat="45.3609" lon="4.5254">
        <ele>1250.6</ele>
        <time>2023-04-30T14:09:27Z</time>
      </trkpt>
      <trkpt lat="45.36093" lon="4.52539">
        <ele>1250.4</ele>
        <time>2023-04-30T14:09:28Z</time>
      </trkpt>
      <trkpt lat="45.36096" lon="4.52538">
        <ele>1250.2</ele>
        <time>2023-04-30T14:09:29Z</time>
      </trkpt>
      <trkpt lat="45.36098" lon="4.52538">
        <ele>1250.2</ele>
        <time>2023-04-30T14:09:30Z</time>
      </trkpt>
      <trkpt lat="45.36101" lon="4.52538">
        <ele>1250</ele>
        <time>2023-04-30T14:09:31Z</time>
      </trkpt>
      <trkpt lat="45.36105" lon="4.52537">
        <ele>1249.6</ele>
        <time>2023-04-30T14:09:44Z</time>
      </trkpt>
      <trkpt lat="45.3611" lon="4.52534">
        <ele>1249.4</ele>
        <time>2023-04-30T14:11:04Z</time>
      </trkpt>
      <trkpt lat="45.3611" lon="4.52535">
        <ele>1249.4</ele>
        <time>2023-04-30T14:11:24Z</time>
      </trkpt>
      <trkpt lat="45.36112" lon="4.52536">
        <ele>1249.2</ele>
        <time>2023-04-30T14:12:15Z</time>
      </trkpt>
      <trkpt lat="45.36113" lon="4.52536">
        <ele>1249</ele>
        <time>2023-04-30T14:12:35Z</time>
      </trkpt>
      <trkpt lat="45.36126" lon="4.52543">
        <ele>1249.2</ele>
        <time>2023-04-30T14:12:49Z</time>
      </trkpt>
      <trkpt lat="45.36127" lon="4.52543">
        <ele>1249.2</ele>
        <time>2023-04-30T14:12:50Z</time>
      </trkpt>
      <trkpt lat="45.36139" lon="4.52548">
        <ele>1249.2</ele>
        <time>2023-04-30T14:13:00Z</time>
      </trkpt>
      <trkpt lat="45.36153" lon="4.52549">
        <ele>1249</ele>
        <time>2023-04-30T14:13:07Z</time>
      </trkpt>
      <trkpt lat="45.36155" lon="4.5255">
        <ele>1249</ele>
        <time>2023-04-30T14:13:08Z</time>
      </trkpt>
      <trkpt lat="45.36158" lon="4.52551">
        <ele>1248.8</ele>
        <time>2023-04-30T14:13:09Z</time>
      </trkpt>
      <trkpt lat="45.3616" lon="4.52552">
        <ele>1248.8</ele>
        <time>2023-04-30T14:13:10Z</time>
      </trkpt>
      <trkpt lat="45.36163" lon="4.52553">
        <ele>1248.6</ele>
        <time>2023-04-30T14:13:11Z</time>
      </trkpt>
      <trkpt lat="45.36193" lon="4.52562">
        <ele>1246.8</ele>
        <time>2023-04-30T14:13:21Z</time>
      </trkpt>
      <trkpt lat="45.36197" lon="4.52562">
        <ele>1246.6</ele>
        <time>2023-04-30T14:13:22Z</time>
      </trkpt>
      <trkpt lat="45.362" lon="4.52563">
        <ele>1246.4</ele>
        <time>2023-04-30T14:13:23Z</time>
      </trkpt>
      <trkpt lat="45.36204" lon="4.52564">
        <ele>1246.4</ele>
        <time>2023-04-30T14:13:24Z</time>
      </trkpt>
      <trkpt lat="45.36211" lon="4.52566">
        <ele>1246.2</ele>
        <time>2023-04-30T14:13:25Z</time>
      </trkpt>
      <trkpt lat="45.36216" lon="4.52567">
        <ele>1246.2</ele>
        <time>2023-04-30T14:13:26Z</time>
      </trkpt>
      <trkpt lat="45.3622" lon="4.52569">
        <ele>1245.8</ele>
        <time>2023-04-30T14:13:27Z</time>
      </trkpt>
      <trkpt lat="45.36224" lon="4.5257">
        <ele>1245.8</ele>
        <time>2023-04-30T14:13:28Z</time>
      </trkpt>
      <trkpt lat="45.36247" lon="4.52579">
        <ele>1244.8</ele>
        <time>2023-04-30T14:13:33Z</time>
      </trkpt>
      <trkpt lat="45.36251" lon="4.52581">
        <ele>1244.4</ele>
        <time>2023-04-30T14:13:34Z</time>
      </trkpt>
      <trkpt lat="45.36288" lon="4.5259">
        <ele>1241.2</ele>
        <time>2023-04-30T14:13:42Z</time>
      </trkpt>
      <trkpt lat="45.36306" lon="4.5259">
        <ele>1239.4</ele>
        <time>2023-04-30T14:13:46Z</time>
      </trkpt>
      <trkpt lat="45.36347" lon="4.52603">
        <ele>1236.4</ele>
        <time>2023-04-30T14:13:55Z</time>
      </trkpt>
      <trkpt lat="45.36379" lon="4.52613">
        <ele>1234.4</ele>
        <time>2023-04-30T14:14:05Z</time>
      </trkpt>
      <trkpt lat="45.36382" lon="4.52613">
        <ele>1234.4</ele>
        <time>2023-04-30T14:14:07Z</time>
      </trkpt>
      <trkpt lat="45.36384" lon="4.52613">
        <ele>1234.4</ele>
        <time>2023-04-30T14:14:08Z</time>
      </trkpt>
      <trkpt lat="45.36386" lon="4.52612">
        <ele>1234.4</ele>
        <time>2023-04-30T14:14:09Z</time>
      </trkpt>
      <trkpt lat="45.36388" lon="4.52612">
        <ele>1234.4</ele>
        <time>2023-04-30T14:14:10Z</time>
      </trkpt>
      <trkpt lat="45.36389" lon="4.52612">
        <ele>1234.4</ele>
        <time>2023-04-30T14:14:11Z</time>
      </trkpt>
      <trkpt lat="45.36395" lon="4.52618">
        <ele>1236</ele>
        <time>2023-04-30T14:14:27Z</time>
      </trkpt>
      <trkpt lat="45.36396" lon="4.52623">
        <ele>1236</ele>
        <time>2023-04-30T14:15:09Z</time>
      </trkpt>
      <trkpt lat="45.36403" lon="4.52624">
        <ele>1236</ele>
        <time>2023-04-30T14:15:13Z</time>
      </trkpt>
      <trkpt lat="45.36424" lon="4.52629">
        <ele>1236.2</ele>
        <time>2023-04-30T14:15:23Z</time>
      </trkpt>
      <trkpt lat="45.36453" lon="4.52641">
        <ele>1237.2</ele>
        <time>2023-04-30T14:15:34Z</time>
      </trkpt>
      <trkpt lat="45.36478" lon="4.52642">
        <ele>1237.6</ele>
        <time>2023-04-30T14:15:42Z</time>
      </trkpt>
      <trkpt lat="45.36482" lon="4.5264">
        <ele>1237.6</ele>
        <time>2023-04-30T14:15:43Z</time>
      </trkpt>
      <trkpt lat="45.36485" lon="4.52639">
        <ele>1237.6</ele>
        <time>2023-04-30T14:15:44Z</time>
      </trkpt>
      <trkpt lat="45.36502" lon="4.52634">
        <ele>1237.4</ele>
        <time>2023-04-30T14:15:50Z</time>
      </trkpt>
      <trkpt lat="45.36504" lon="4.52636">
        <ele>1237.2</ele>
        <time>2023-04-30T14:15:51Z</time>
      </trkpt>
      <trkpt lat="45.36507" lon="4.52638">
        <ele>1237.2</ele>
        <time>2023-04-30T14:15:52Z</time>
      </trkpt>
      <trkpt lat="45.36535" lon="4.52658">
        <ele>1234.6</ele>
        <time>2023-04-30T14:16:02Z</time>
      </trkpt>
      <trkpt lat="45.36578" lon="4.52698">
        <ele>1231</ele>
        <time>2023-04-30T14:16:14Z</time>
      </trkpt>
      <trkpt lat="45.36589" lon="4.52705">
        <ele>1229</ele>
        <time>2023-04-30T14:16:17Z</time>
      </trkpt>
      <trkpt lat="45.36593" lon="4.52707">
        <ele>1228.4</ele>
        <time>2023-04-30T14:16:18Z</time>
      </trkpt>
      <trkpt lat="45.36597" lon="4.5271">
        <ele>1228</ele>
        <time>2023-04-30T14:16:19Z</time>
      </trkpt>
      <trkpt lat="45.36602" lon="4.52712">
        <ele>1227.6</ele>
        <time>2023-04-30T14:16:20Z</time>
      </trkpt>
      <trkpt lat="45.36608" lon="4.52715">
        <ele>1227</ele>
        <time>2023-04-30T14:16:21Z</time>
      </trkpt>
      <trkpt lat="45.36613" lon="4.52717">
        <ele>1226.6</ele>
        <time>2023-04-30T14:16:22Z</time>
      </trkpt>
      <trkpt lat="45.3662" lon="4.52719">
        <ele>1226</ele>
        <time>2023-04-30T14:16:23Z</time>
      </trkpt>
      <trkpt lat="45.36626" lon="4.52722">
        <ele>1225.4</ele>
        <time>2023-04-30T14:16:24Z</time>
      </trkpt>
      <trkpt lat="45.36656" lon="4.52736">
        <ele>1222</ele>
        <time>2023-04-30T14:16:28Z</time>
      </trkpt>
      <trkpt lat="45.36679" lon="4.52748">
        <ele>1218.8</ele>
        <time>2023-04-30T14:16:31Z</time>
      </trkpt>
      <trkpt lat="45.367" lon="4.52758">
        <ele>1214.8</ele>
        <time>2023-04-30T14:16:35Z</time>
      </trkpt>
      <trkpt lat="45.36711" lon="4.52762">
        <ele>1213.2</ele>
        <time>2023-04-30T14:16:38Z</time>
      </trkpt>
      <trkpt lat="45.36731" lon="4.52774">
        <ele>1212</ele>
        <time>2023-04-30T14:16:44Z</time>
      </trkpt>
      <trkpt lat="45.36776" lon="4.52794">
        <ele>1210</ele>
        <time>2023-04-30T14:16:54Z</time>
      </trkpt>
      <trkpt lat="45.36801" lon="4.52817">
        <ele>1209.4</ele>
        <time>2023-04-30T14:17:05Z</time>
      </trkpt>
      <trkpt lat="45.36806" lon="4.52823">
        <ele>1209.2</ele>
        <time>2023-04-30T14:17:07Z</time>
      </trkpt>
      <trkpt lat="45.36809" lon="4.52824">
        <ele>1209.2</ele>
        <time>2023-04-30T14:17:08Z</time>
      </trkpt>
      <trkpt lat="45.36812" lon="4.52825">
        <ele>1209.2</ele>
        <time>2023-04-30T14:17:09Z</time>
      </trkpt>
      <trkpt lat="45.36815" lon="4.52826">
        <ele>1209.2</ele>
        <time>2023-04-30T14:17:10Z</time>
      </trkpt>
      <trkpt lat="45.36819" lon="4.52827">
        <ele>1209</ele>
        <time>2023-04-30T14:17:11Z</time>
      </trkpt>
      <trkpt lat="45.36822" lon="4.52827">
        <ele>1208.8</ele>
        <time>2023-04-30T14:17:12Z</time>
      </trkpt>
      <trkpt lat="45.36847" lon="4.52833">
        <ele>1208.2</ele>
        <time>2023-04-30T14:17:18Z</time>
      </trkpt>
      <trkpt lat="45.36858" lon="4.52848">
        <ele>1207.6</ele>
        <time>2023-04-30T14:17:26Z</time>
      </trkpt>
      <trkpt lat="45.36861" lon="4.52847">
        <ele>1207.4</ele>
        <time>2023-04-30T14:17:33Z</time>
      </trkpt>
      <trkpt lat="45.36862" lon="4.52845">
        <ele>1207.4</ele>
        <time>2023-04-30T14:17:34Z</time>
      </trkpt>
      <trkpt lat="45.36861" lon="4.52844">
        <ele>1207.4</ele>
        <time>2023-04-30T14:17:35Z</time>
      </trkpt>
      <trkpt lat="45.3686" lon="4.52842">
        <ele>1207.4</ele>
        <time>2023-04-30T14:17:36Z</time>
      </trkpt>
      <trkpt lat="45.36858" lon="4.52861">
        <ele>1207.4</ele>
        <time>2023-04-30T14:17:45Z</time>
      </trkpt>
      <trkpt lat="45.36858" lon="4.52863">
        <ele>1207.4</ele>
        <time>2023-04-30T14:17:46Z</time>
      </trkpt>
      <trkpt lat="45.36865" lon="4.52904">
        <ele>1209.2</ele>
        <time>2023-04-30T14:18:02Z</time>
      </trkpt>
      <trkpt lat="45.36871" lon="4.52936">
        <ele>1211.8</ele>
        <time>2023-04-30T14:18:15Z</time>
      </trkpt>
      <trkpt lat="45.36879" lon="4.52967">
        <ele>1214.8</ele>
        <time>2023-04-30T14:18:29Z</time>
      </trkpt>
      <trkpt lat="45.36886" lon="4.52997">
        <ele>1217.8</ele>
        <time>2023-04-30T14:18:44Z</time>
      </trkpt>
      <trkpt lat="45.36899" lon="4.53015">
        <ele>1221.2</ele>
        <time>2023-04-30T14:18:56Z</time>
      </trkpt>
      <trkpt lat="45.36904" lon="4.53029">
        <ele>1222.6</ele>
        <time>2023-04-30T14:19:04Z</time>
      </trkpt>
      <trkpt lat="45.36908" lon="4.53042">
        <ele>1225.4</ele>
        <time>2023-04-30T14:19:21Z</time>
      </trkpt>
      <trkpt lat="45.3691" lon="4.53062">
        <ele>1226</ele>
        <time>2023-04-30T14:19:47Z</time>
      </trkpt>
      <trkpt lat="45.36909" lon="4.53071">
        <ele>1226.6</ele>
        <time>2023-04-30T14:19:52Z</time>
      </trkpt>
      <trkpt lat="45.36908" lon="4.53084">
        <ele>1227.8</ele>
        <time>2023-04-30T14:19:58Z</time>
      </trkpt>
      <trkpt lat="45.3691" lon="4.53094">
        <ele>1228.6</ele>
        <time>2023-04-30T14:20:03Z</time>
      </trkpt>
      <trkpt lat="45.36915" lon="4.53126">
        <ele>1231.6</ele>
        <time>2023-04-30T14:20:19Z</time>
      </trkpt>
      <trkpt lat="45.36921" lon="4.53162">
        <ele>1234.8</ele>
        <time>2023-04-30T14:20:35Z</time>
      </trkpt>
      <trkpt lat="45.36922" lon="4.53169">
        <ele>1235.4</ele>
        <time>2023-04-30T14:20:39Z</time>
      </trkpt>
      <trkpt lat="45.36923" lon="4.53174">
        <ele>1235.8</ele>
        <time>2023-04-30T14:20:41Z</time>
      </trkpt>
      <trkpt lat="45.36924" lon="4.53177">
        <ele>1236</ele>
        <time>2023-04-30T14:20:42Z</time>
      </trkpt>
      <trkpt lat="45.36929" lon="4.53207">
        <ele>1238.6</ele>
        <time>2023-04-30T14:20:56Z</time>
      </trkpt>
      <trkpt lat="45.36931" lon="4.53236">
        <ele>1240.8</ele>
        <time>2023-04-30T14:21:09Z</time>
      </trkpt>
      <trkpt lat="45.36939" lon="4.53269">
        <ele>1242.6</ele>
        <time>2023-04-30T14:21:25Z</time>
      </trkpt>
      <trkpt lat="45.36945" lon="4.53283">
        <ele>1243.8</ele>
        <time>2023-04-30T14:21:34Z</time>
      </trkpt>
      <trkpt lat="45.36945" lon="4.53285">
        <ele>1244</ele>
        <time>2023-04-30T14:21:35Z</time>
      </trkpt>
      <trkpt lat="45.36948" lon="4.53295">
        <ele>1247</ele>
        <time>2023-04-30T14:21:51Z</time>
      </trkpt>
      <trkpt lat="45.36956" lon="4.53317">
        <ele>1248.2</ele>
        <time>2023-04-30T14:22:11Z</time>
      </trkpt>
      <trkpt lat="45.36956" lon="4.53319">
        <ele>1248.6</ele>
        <time>2023-04-30T14:22:13Z</time>
      </trkpt>
      <trkpt lat="45.36958" lon="4.5332">
        <ele>1248.8</ele>
        <time>2023-04-30T14:22:14Z</time>
      </trkpt>
      <trkpt lat="45.36964" lon="4.53332">
        <ele>1250.4</ele>
        <time>2023-04-30T14:22:27Z</time>
      </trkpt>
      <trkpt lat="45.36966" lon="4.53338">
        <ele>1251.2</ele>
        <time>2023-04-30T14:22:37Z</time>
      </trkpt>
      <trkpt lat="45.36966" lon="4.5334">
        <ele>1251.4</ele>
        <time>2023-04-30T14:22:38Z</time>
      </trkpt>
      <trkpt lat="45.36967" lon="4.53341">
        <ele>1251.4</ele>
        <time>2023-04-30T14:22:39Z</time>
      </trkpt>
      <trkpt lat="45.3697" lon="4.53352">
        <ele>1253</ele>
        <time>2023-04-30T14:22:54Z</time>
      </trkpt>
      <trkpt lat="45.36971" lon="4.5336">
        <ele>1253</ele>
        <time>2023-04-30T14:22:58Z</time>
      </trkpt>
      <trkpt lat="45.36971" lon="4.53363">
        <ele>1253</ele>
        <time>2023-04-30T14:22:59Z</time>
      </trkpt>
      <trkpt lat="45.36972" lon="4.53365">
        <ele>1253</ele>
        <time>2023-04-30T14:23:00Z</time>
      </trkpt>
      <trkpt lat="45.36973" lon="4.53367">
        <ele>1253.2</ele>
        <time>2023-04-30T14:23:01Z</time>
      </trkpt>
      <trkpt lat="45.36973" lon="4.5337">
        <ele>1253.2</ele>
        <time>2023-04-30T14:23:02Z</time>
      </trkpt>
      <trkpt lat="45.36974" lon="4.53372">
        <ele>1253.2</ele>
        <time>2023-04-30T14:23:03Z</time>
      </trkpt>
      <trkpt lat="45.36975" lon="4.53374">
        <ele>1253.2</ele>
        <time>2023-04-30T14:23:04Z</time>
      </trkpt>
      <trkpt lat="45.36976" lon="4.53377">
        <ele>1253.2</ele>
        <time>2023-04-30T14:23:05Z</time>
      </trkpt>
      <trkpt lat="45.36977" lon="4.53379">
        <ele>1253.2</ele>
        <time>2023-04-30T14:23:06Z</time>
      </trkpt>
      <trkpt lat="45.36978" lon="4.53381">
        <ele>1253.4</ele>
        <time>2023-04-30T14:23:07Z</time>
      </trkpt>
      <trkpt lat="45.36979" lon="4.53382">
        <ele>1253.4</ele>
        <time>2023-04-30T14:23:08Z</time>
      </trkpt>
      <trkpt lat="45.36981" lon="4.53384">
        <ele>1253.6</ele>
        <time>2023-04-30T14:23:09Z</time>
      </trkpt>
      <trkpt lat="45.36982" lon="4.53386">
        <ele>1253.6</ele>
        <time>2023-04-30T14:23:10Z</time>
      </trkpt>
      <trkpt lat="45.36983" lon="4.53388">
        <ele>1253.6</ele>
        <time>2023-04-30T14:23:11Z</time>
      </trkpt>
      <trkpt lat="45.36984" lon="4.53389">
        <ele>1253.8</ele>
        <time>2023-04-30T14:23:12Z</time>
      </trkpt>
      <trkpt lat="45.36985" lon="4.53391">
        <ele>1253.8</ele>
        <time>2023-04-30T14:23:13Z</time>
      </trkpt>
      <trkpt lat="45.36988" lon="4.53395">
        <ele>1255.2</ele>
        <time>2023-04-30T14:23:26Z</time>
      </trkpt>
      <trkpt lat="45.36995" lon="4.53394">
        <ele>1254.4</ele>
        <time>2023-04-30T14:25:11Z</time>
      </trkpt>
      <trkpt lat="45.36988" lon="4.53394">
        <ele>1254.8</ele>
        <time>2023-04-30T14:27:38Z</time>
      </trkpt>
      <trkpt lat="45.36991" lon="4.53394">
        <ele>1255.4</ele>
        <time>2023-04-30T14:28:41Z</time>
      </trkpt>
      <trkpt lat="45.3699" lon="4.53409">
        <ele>1255</ele>
        <time>2023-04-30T14:29:16Z</time>
      </trkpt>
      <trkpt lat="45.36989" lon="4.5341">
        <ele>1255</ele>
        <time>2023-04-30T14:29:17Z</time>
      </trkpt>
      <trkpt lat="45.36988" lon="4.53412">
        <ele>1255</ele>
        <time>2023-04-30T14:29:18Z</time>
      </trkpt>
      <trkpt lat="45.36971" lon="4.53428">
        <ele>1255.6</ele>
        <time>2023-04-30T14:29:32Z</time>
      </trkpt>
      <trkpt lat="45.36966" lon="4.53433">
        <ele>1255.6</ele>
        <time>2023-04-30T14:29:36Z</time>
      </trkpt>
      <trkpt lat="45.36963" lon="4.53435">
        <ele>1255.8</ele>
        <time>2023-04-30T14:29:38Z</time>
      </trkpt>
      <trkpt lat="45.36955" lon="4.53446">
        <ele>1256.4</ele>
        <time>2023-04-30T14:29:44Z</time>
      </trkpt>
      <trkpt lat="45.36938" lon="4.53454">
        <ele>1257</ele>
        <time>2023-04-30T14:29:56Z</time>
      </trkpt>
      <trkpt lat="45.3692" lon="4.53471">
        <ele>1257.2</ele>
        <time>2023-04-30T14:30:09Z</time>
      </trkpt>
      <trkpt lat="45.36905" lon="4.53486">
        <ele>1258</ele>
        <time>2023-04-30T14:30:22Z</time>
      </trkpt>
      <trkpt lat="45.36897" lon="4.53494">
        <ele>1258.4</ele>
        <time>2023-04-30T14:30:28Z</time>
      </trkpt>
      <trkpt lat="45.36891" lon="4.53501">
        <ele>1258.8</ele>
        <time>2023-04-30T14:30:34Z</time>
      </trkpt>
      <trkpt lat="45.36886" lon="4.53511">
        <ele>1259.6</ele>
        <time>2023-04-30T14:30:40Z</time>
      </trkpt>
      <trkpt lat="45.36882" lon="4.53516">
        <ele>1260.2</ele>
        <time>2023-04-30T14:30:44Z</time>
      </trkpt>
      <trkpt lat="45.36881" lon="4.5352">
        <ele>1260.2</ele>
        <time>2023-04-30T14:30:47Z</time>
      </trkpt>
      <trkpt lat="45.36872" lon="4.53522">
        <ele>1260.8</ele>
        <time>2023-04-30T14:30:54Z</time>
      </trkpt>
      <trkpt lat="45.36863" lon="4.53536">
        <ele>1262.4</ele>
        <time>2023-04-30T14:31:07Z</time>
      </trkpt>
      <trkpt lat="45.36857" lon="4.53542">
        <ele>1262.8</ele>
        <time>2023-04-30T14:31:47Z</time>
      </trkpt>
      <trkpt lat="45.36847" lon="4.53549">
        <ele>1263</ele>
        <time>2023-04-30T14:32:00Z</time>
      </trkpt>
      <trkpt lat="45.36841" lon="4.53556">
        <ele>1262</ele>
        <time>2023-04-30T14:32:30Z</time>
      </trkpt>
      <trkpt lat="45.36842" lon="4.53557">
        <ele>1261.4</ele>
        <time>2023-04-30T14:32:54Z</time>
      </trkpt>
      <trkpt lat="45.36843" lon="4.53562">
        <ele>1263.4</ele>
        <time>2023-04-30T14:33:09Z</time>
      </trkpt>
      <trkpt lat="45.36838" lon="4.53568">
        <ele>1263.4</ele>
        <time>2023-04-30T14:33:23Z</time>
      </trkpt>
      <trkpt lat="45.36837" lon="4.53574">
        <ele>1263.2</ele>
        <time>2023-04-30T14:33:43Z</time>
      </trkpt>
      <trkpt lat="45.36833" lon="4.53571">
        <ele>1262.8</ele>
        <time>2023-04-30T14:34:00Z</time>
      </trkpt>
      <trkpt lat="45.36831" lon="4.53566">
        <ele>1261.8</ele>
        <time>2023-04-30T14:34:15Z</time>
      </trkpt>
      <trkpt lat="45.36826" lon="4.5357">
        <ele>1260.4</ele>
        <time>2023-04-30T14:34:37Z</time>
      </trkpt>
      <trkpt lat="45.36827" lon="4.53583">
        <ele>1259</ele>
        <time>2023-04-30T14:34:53Z</time>
      </trkpt>
      <trkpt lat="45.36826" lon="4.536">
        <ele>1259.2</ele>
        <time>2023-04-30T14:35:16Z</time>
      </trkpt>
      <trkpt lat="45.36823" lon="4.53614">
        <ele>1258.8</ele>
        <time>2023-04-30T14:35:31Z</time>
      </trkpt>
      <trkpt lat="45.36825" lon="4.53627">
        <ele>1259.4</ele>
        <time>2023-04-30T14:35:52Z</time>
      </trkpt>
      <trkpt lat="45.36827" lon="4.53637">
        <ele>1260.2</ele>
        <time>2023-04-30T14:36:04Z</time>
      </trkpt>
      <trkpt lat="45.3683" lon="4.53642">
        <ele>1260.8</ele>
        <time>2023-04-30T14:36:22Z</time>
      </trkpt>
      <trkpt lat="45.36836" lon="4.53641">
        <ele>1262.4</ele>
        <time>2023-04-30T14:36:35Z</time>
      </trkpt>
      <trkpt lat="45.3684" lon="4.53645">
        <ele>1263.4</ele>
        <time>2023-04-30T14:36:50Z</time>
      </trkpt>
      <trkpt lat="45.36845" lon="4.53649">
        <ele>1265</ele>
        <time>2023-04-30T14:37:06Z</time>
      </trkpt>
      <trkpt lat="45.36852" lon="4.53644">
        <ele>1265.8</ele>
        <time>2023-04-30T14:37:21Z</time>
      </trkpt>
      <trkpt lat="45.36861" lon="4.53643">
        <ele>1267.4</ele>
        <time>2023-04-30T14:37:41Z</time>
      </trkpt>
      <trkpt lat="45.36869" lon="4.53634">
        <ele>1268.6</ele>
        <time>2023-04-30T14:37:58Z</time>
      </trkpt>
      <trkpt lat="45.36873" lon="4.5363">
        <ele>1269</ele>
        <time>2023-04-30T14:38:15Z</time>
      </trkpt>
      <trkpt lat="45.36882" lon="4.53629">
        <ele>1268.8</ele>
        <time>2023-04-30T14:38:32Z</time>
      </trkpt>
      <trkpt lat="45.36883" lon="4.53624">
        <ele>1268.6</ele>
        <time>2023-04-30T14:38:37Z</time>
      </trkpt>
      <trkpt lat="45.36882" lon="4.53621">
        <ele>1268.4</ele>
        <time>2023-04-30T14:38:39Z</time>
      </trkpt>
      <trkpt lat="45.36883" lon="4.53614">
        <ele>1267.8</ele>
        <time>2023-04-30T14:38:44Z</time>
      </trkpt>
      <trkpt lat="45.36898" lon="4.53606">
        <ele>1267.4</ele>
        <time>2023-04-30T14:38:59Z</time>
      </trkpt>
      <trkpt lat="45.369" lon="4.53605">
        <ele>1267.2</ele>
        <time>2023-04-30T14:39:02Z</time>
      </trkpt>
      <trkpt lat="45.36903" lon="4.53591">
        <ele>1266.8</ele>
        <time>2023-04-30T14:39:16Z</time>
      </trkpt>
      <trkpt lat="45.36902" lon="4.53581">
        <ele>1266.6</ele>
        <time>2023-04-30T14:39:20Z</time>
      </trkpt>
      <trkpt lat="45.36903" lon="4.53561">
        <ele>1266.6</ele>
        <time>2023-04-30T14:39:29Z</time>
      </trkpt>
      <trkpt lat="45.36901" lon="4.53549">
        <ele>1265.2</ele>
        <time>2023-04-30T14:39:35Z</time>
      </trkpt>
      <trkpt lat="45.36903" lon="4.53531">
        <ele>1263.6</ele>
        <time>2023-04-30T14:39:49Z</time>
      </trkpt>
      <trkpt lat="45.36902" lon="4.53525">
        <ele>1262.8</ele>
        <time>2023-04-30T14:39:53Z</time>
      </trkpt>
      <trkpt lat="45.36897" lon="4.53509">
        <ele>1262.6</ele>
        <time>2023-04-30T14:39:58Z</time>
      </trkpt>
      <trkpt lat="45.36908" lon="4.53483">
        <ele>1262</ele>
        <time>2023-04-30T14:40:04Z</time>
      </trkpt>
      <trkpt lat="45.36931" lon="4.53455">
        <ele>1258.6</ele>
        <time>2023-04-30T14:40:12Z</time>
      </trkpt>
      <trkpt lat="45.3694" lon="4.53451">
        <ele>1257.6</ele>
        <time>2023-04-30T14:40:16Z</time>
      </trkpt>
      <trkpt lat="45.36953" lon="4.53441">
        <ele>1257</ele>
        <time>2023-04-30T14:40:22Z</time>
      </trkpt>
      <trkpt lat="45.36971" lon="4.53422">
        <ele>1256.6</ele>
        <time>2023-04-30T14:40:32Z</time>
      </trkpt>
      <trkpt lat="45.36976" lon="4.53416">
        <ele>1256.4</ele>
        <time>2023-04-30T14:40:35Z</time>
      </trkpt>
      <trkpt lat="45.36984" lon="4.53408">
        <ele>1256.2</ele>
        <time>2023-04-30T14:40:41Z</time>
      </trkpt>
      <trkpt lat="45.36987" lon="4.53407">
        <ele>1256.2</ele>
        <time>2023-04-30T14:40:43Z</time>
      </trkpt>
      <trkpt lat="45.36992" lon="4.53414">
        <ele>1256.2</ele>
        <time>2023-04-30T14:40:46Z</time>
      </trkpt>
      <trkpt lat="45.36993" lon="4.53416">
        <ele>1256</ele>
        <time>2023-04-30T14:40:47Z</time>
      </trkpt>
      <trkpt lat="45.36994" lon="4.53419">
        <ele>1255.8</ele>
        <time>2023-04-30T14:40:48Z</time>
      </trkpt>
      <trkpt lat="45.36994" lon="4.53422">
        <ele>1255.6</ele>
        <time>2023-04-30T14:40:49Z</time>
      </trkpt>
      <trkpt lat="45.36995" lon="4.53426">
        <ele>1255.6</ele>
        <time>2023-04-30T14:40:50Z</time>
      </trkpt>
      <trkpt lat="45.36995" lon="4.53428">
        <ele>1255.4</ele>
        <time>2023-04-30T14:40:51Z</time>
      </trkpt>
      <trkpt lat="45.36996" lon="4.53431">
        <ele>1255.2</ele>
        <time>2023-04-30T14:40:52Z</time>
      </trkpt>
      <trkpt lat="45.36996" lon="4.53433">
        <ele>1255.2</ele>
        <time>2023-04-30T14:40:53Z</time>
      </trkpt>
      <trkpt lat="45.36996" lon="4.53436">
        <ele>1255.2</ele>
        <time>2023-04-30T14:40:54Z</time>
      </trkpt>
      <trkpt lat="45.36996" lon="4.53439">
        <ele>1255</ele>
        <time>2023-04-30T14:40:55Z</time>
      </trkpt>
      <trkpt lat="45.37005" lon="4.53476">
        <ele>1253.8</ele>
        <time>2023-04-30T14:41:05Z</time>
      </trkpt>
      <trkpt lat="45.37011" lon="4.535">
        <ele>1252</ele>
        <time>2023-04-30T14:41:10Z</time>
      </trkpt>
      <trkpt lat="45.37015" lon="4.53516">
        <ele>1251.4</ele>
        <time>2023-04-30T14:41:13Z</time>
      </trkpt>
      <trkpt lat="45.37015" lon="4.53557">
        <ele>1248.2</ele>
        <time>2023-04-30T14:41:20Z</time>
      </trkpt>
      <trkpt lat="45.37013" lon="4.5357">
        <ele>1247</ele>
        <time>2023-04-30T14:41:22Z</time>
      </trkpt>
      <trkpt lat="45.37009" lon="4.53587">
        <ele>1245</ele>
        <time>2023-04-30T14:41:25Z</time>
      </trkpt>
      <trkpt lat="45.37008" lon="4.53593">
        <ele>1244.8</ele>
        <time>2023-04-30T14:41:26Z</time>
      </trkpt>
      <trkpt lat="45.37004" lon="4.53642">
        <ele>1243.4</ele>
        <time>2023-04-30T14:41:37Z</time>
      </trkpt>
      <trkpt lat="45.36999" lon="4.53698">
        <ele>1242.8</ele>
        <time>2023-04-30T14:41:48Z</time>
      </trkpt>
      <trkpt lat="45.36998" lon="4.53706">
        <ele>1242.8</ele>
        <time>2023-04-30T14:41:50Z</time>
      </trkpt>
      <trkpt lat="45.36998" lon="4.5371">
        <ele>1242.8</ele>
        <time>2023-04-30T14:41:51Z</time>
      </trkpt>
      <trkpt lat="45.36998" lon="4.53713">
        <ele>1242.8</ele>
        <time>2023-04-30T14:41:52Z</time>
      </trkpt>
      <trkpt lat="45.36997" lon="4.53718">
        <ele>1242.8</ele>
        <time>2023-04-30T14:41:53Z</time>
      </trkpt>
      <trkpt lat="45.36995" lon="4.53724">
        <ele>1242.6</ele>
        <time>2023-04-30T14:41:54Z</time>
      </trkpt>
      <trkpt lat="45.36996" lon="4.53727">
        <ele>1242.6</ele>
        <time>2023-04-30T14:41:55Z</time>
      </trkpt>
      <trkpt lat="45.36996" lon="4.53731">
        <ele>1242.6</ele>
        <time>2023-04-30T14:41:56Z</time>
      </trkpt>
      <trkpt lat="45.36996" lon="4.53735">
        <ele>1242.6</ele>
        <time>2023-04-30T14:41:57Z</time>
      </trkpt>
      <trkpt lat="45.36995" lon="4.53739">
        <ele>1242.6</ele>
        <time>2023-04-30T14:41:58Z</time>
      </trkpt>
      <trkpt lat="45.36994" lon="4.53743">
        <ele>1242.6</ele>
        <time>2023-04-30T14:41:59Z</time>
      </trkpt>
      <trkpt lat="45.36994" lon="4.53747">
        <ele>1242.6</ele>
        <time>2023-04-30T14:42:00Z</time>
      </trkpt>
      <trkpt lat="45.36996" lon="4.53805">
        <ele>1242.8</ele>
        <time>2023-04-30T14:42:14Z</time>
      </trkpt>
      <trkpt lat="45.37001" lon="4.53848">
        <ele>1242.4</ele>
        <time>2023-04-30T14:42:28Z</time>
      </trkpt>
      <trkpt lat="45.37002" lon="4.5386">
        <ele>1242.6</ele>
        <time>2023-04-30T14:42:42Z</time>
      </trkpt>
      <trkpt lat="45.37004" lon="4.53892">
        <ele>1242.8</ele>
        <time>2023-04-30T14:42:53Z</time>
      </trkpt>
      <trkpt lat="45.37007" lon="4.53942">
        <ele>1241</ele>
        <time>2023-04-30T14:43:04Z</time>
      </trkpt>
      <trkpt lat="45.37007" lon="4.53948">
        <ele>1240.8</ele>
        <time>2023-04-30T14:43:05Z</time>
      </trkpt>
      <trkpt lat="45.37009" lon="4.53989">
        <ele>1239.4</ele>
        <time>2023-04-30T14:43:10Z</time>
      </trkpt>
      <trkpt lat="45.37005" lon="4.54016">
        <ele>1238.4</ele>
        <time>2023-04-30T14:43:13Z</time>
      </trkpt>
      <trkpt lat="45.37003" lon="4.54024">
        <ele>1237.4</ele>
        <time>2023-04-30T14:43:14Z</time>
      </trkpt>
      <trkpt lat="45.36997" lon="4.54047">
        <ele>1235</ele>
        <time>2023-04-30T14:43:17Z</time>
      </trkpt>
      <trkpt lat="45.36995" lon="4.54053">
        <ele>1234.2</ele>
        <time>2023-04-30T14:43:18Z</time>
      </trkpt>
      <trkpt lat="45.36994" lon="4.54059">
        <ele>1233.2</ele>
        <time>2023-04-30T14:43:19Z</time>
      </trkpt>
      <trkpt lat="45.36993" lon="4.54065">
        <ele>1232.6</ele>
        <time>2023-04-30T14:43:20Z</time>
      </trkpt>
      <trkpt lat="45.36993" lon="4.54071">
        <ele>1232.2</ele>
        <time>2023-04-30T14:43:21Z</time>
      </trkpt>
      <trkpt lat="45.36993" lon="4.54077">
        <ele>1232</ele>
        <time>2023-04-30T14:43:22Z</time>
      </trkpt>
      <trkpt lat="45.37002" lon="4.54149">
        <ele>1230.4</ele>
        <time>2023-04-30T14:43:37Z</time>
      </trkpt>
      <trkpt lat="45.37006" lon="4.54201">
        <ele>1230.2</ele>
        <time>2023-04-30T14:43:47Z</time>
      </trkpt>
      <trkpt lat="45.37006" lon="4.54207">
        <ele>1230.2</ele>
        <time>2023-04-30T14:43:48Z</time>
      </trkpt>
      <trkpt lat="45.37003" lon="4.54264">
        <ele>1228</ele>
        <time>2023-04-30T14:43:57Z</time>
      </trkpt>
      <trkpt lat="45.37" lon="4.5427">
        <ele>1227.6</ele>
        <time>2023-04-30T14:43:58Z</time>
      </trkpt>
      <trkpt lat="45.36997" lon="4.54274">
        <ele>1227</ele>
        <time>2023-04-30T14:43:59Z</time>
      </trkpt>
      <trkpt lat="45.36995" lon="4.54278">
        <ele>1226.2</ele>
        <time>2023-04-30T14:44:00Z</time>
      </trkpt>
      <trkpt lat="45.36993" lon="4.54281">
        <ele>1225.8</ele>
        <time>2023-04-30T14:44:01Z</time>
      </trkpt>
      <trkpt lat="45.36979" lon="4.54307">
        <ele>1224</ele>
        <time>2023-04-30T14:44:10Z</time>
      </trkpt>
      <trkpt lat="45.36978" lon="4.54309">
        <ele>1223.8</ele>
        <time>2023-04-30T14:44:11Z</time>
      </trkpt>
      <trkpt lat="45.36977" lon="4.54311">
        <ele>1223.8</ele>
        <time>2023-04-30T14:44:12Z</time>
      </trkpt>
      <trkpt lat="45.36967" lon="4.54333">
        <ele>1224</ele>
        <time>2023-04-30T14:44:26Z</time>
      </trkpt>
      <trkpt lat="45.36966" lon="4.54337">
        <ele>1224.2</ele>
        <time>2023-04-30T14:44:28Z</time>
      </trkpt>
      <trkpt lat="45.3696" lon="4.54346">
        <ele>1224.6</ele>
        <time>2023-04-30T14:44:46Z</time>
      </trkpt>
      <trkpt lat="45.36956" lon="4.54361">
        <ele>1225</ele>
        <time>2023-04-30T14:45:17Z</time>
      </trkpt>
      <trkpt lat="45.3694" lon="4.54387">
        <ele>1224.4</ele>
        <time>2023-04-30T14:45:57Z</time>
      </trkpt>
      <trkpt lat="45.36925" lon="4.54413">
        <ele>1225.6</ele>
        <time>2023-04-30T14:46:11Z</time>
      </trkpt>
      <trkpt lat="45.36919" lon="4.54424">
        <ele>1226.4</ele>
        <time>2023-04-30T14:46:18Z</time>
      </trkpt>
      <trkpt lat="45.36915" lon="4.54432">
        <ele>1227</ele>
        <time>2023-04-30T14:46:23Z</time>
      </trkpt>
      <trkpt lat="45.36913" lon="4.54434">
        <ele>1227</ele>
        <time>2023-04-30T14:46:24Z</time>
      </trkpt>
      <trkpt lat="45.36912" lon="4.54436">
        <ele>1227.2</ele>
        <time>2023-04-30T14:46:25Z</time>
      </trkpt>
      <trkpt lat="45.36907" lon="4.54442">
        <ele>1227.6</ele>
        <time>2023-04-30T14:46:29Z</time>
      </trkpt>
      <trkpt lat="45.36898" lon="4.5445">
        <ele>1228</ele>
        <time>2023-04-30T14:46:35Z</time>
      </trkpt>
      <trkpt lat="45.36896" lon="4.5445">
        <ele>1228.2</ele>
        <time>2023-04-30T14:46:36Z</time>
      </trkpt>
      <trkpt lat="45.36886" lon="4.54456">
        <ele>1228.8</ele>
        <time>2023-04-30T14:46:41Z</time>
      </trkpt>
      <trkpt lat="45.36884" lon="4.54457">
        <ele>1228.8</ele>
        <time>2023-04-30T14:46:42Z</time>
      </trkpt>
      <trkpt lat="45.36854" lon="4.54462">
        <ele>1230.2</ele>
        <time>2023-04-30T14:46:56Z</time>
      </trkpt>
      <trkpt lat="45.36829" lon="4.54471">
        <ele>1230.2</ele>
        <time>2023-04-30T14:47:08Z</time>
      </trkpt>
      <trkpt lat="45.36805" lon="4.54483">
        <ele>1230.4</ele>
        <time>2023-04-30T14:47:20Z</time>
      </trkpt>
      <trkpt lat="45.36777" lon="4.54497">
        <ele>1231.8</ele>
        <time>2023-04-30T14:47:36Z</time>
      </trkpt>
      <trkpt lat="45.36758" lon="4.54505">
        <ele>1232.2</ele>
        <time>2023-04-30T14:47:46Z</time>
      </trkpt>
      <trkpt lat="45.36757" lon="4.54505">
        <ele>1232.2</ele>
        <time>2023-04-30T14:47:47Z</time>
      </trkpt>
      <trkpt lat="45.36755" lon="4.54506">
        <ele>1232.2</ele>
        <time>2023-04-30T14:47:48Z</time>
      </trkpt>
      <trkpt lat="45.36753" lon="4.54507">
        <ele>1232.2</ele>
        <time>2023-04-30T14:47:49Z</time>
      </trkpt>
      <trkpt lat="45.36751" lon="4.54508">
        <ele>1232.4</ele>
        <time>2023-04-30T14:47:50Z</time>
      </trkpt>
      <trkpt lat="45.36749" lon="4.54509">
        <ele>1232.4</ele>
        <time>2023-04-30T14:47:51Z</time>
      </trkpt>
      <trkpt lat="45.36747" lon="4.5451">
        <ele>1232.4</ele>
        <time>2023-04-30T14:47:52Z</time>
      </trkpt>
      <trkpt lat="45.36745" lon="4.54511">
        <ele>1232.4</ele>
        <time>2023-04-30T14:47:53Z</time>
      </trkpt>
      <trkpt lat="45.36718" lon="4.5452">
        <ele>1233</ele>
        <time>2023-04-30T14:48:07Z</time>
      </trkpt>
      <trkpt lat="45.36696" lon="4.54535">
        <ele>1233.8</ele>
        <time>2023-04-30T14:48:22Z</time>
      </trkpt>
      <trkpt lat="45.36681" lon="4.54545">
        <ele>1234.8</ele>
        <time>2023-04-30T14:48:32Z</time>
      </trkpt>
      <trkpt lat="45.3668" lon="4.54546">
        <ele>1234.8</ele>
        <time>2023-04-30T14:48:33Z</time>
      </trkpt>
      <trkpt lat="45.36678" lon="4.54547">
        <ele>1235</ele>
        <time>2023-04-30T14:48:34Z</time>
      </trkpt>
      <trkpt lat="45.36677" lon="4.54548">
        <ele>1235.2</ele>
        <time>2023-04-30T14:48:35Z</time>
      </trkpt>
      <trkpt lat="45.36676" lon="4.54549">
        <ele>1235.2</ele>
        <time>2023-04-30T14:48:36Z</time>
      </trkpt>
      <trkpt lat="45.36675" lon="4.5455">
        <ele>1235.4</ele>
        <time>2023-04-30T14:48:37Z</time>
      </trkpt>
      <trkpt lat="45.36673" lon="4.54551">
        <ele>1235.4</ele>
        <time>2023-04-30T14:48:38Z</time>
      </trkpt>
      <trkpt lat="45.3667" lon="4.54555">
        <ele>1235.6</ele>
        <time>2023-04-30T14:48:41Z</time>
      </trkpt>
      <trkpt lat="45.36669" lon="4.54556">
        <ele>1235.8</ele>
        <time>2023-04-30T14:48:42Z</time>
      </trkpt>
      <trkpt lat="45.36667" lon="4.54557">
        <ele>1236</ele>
        <time>2023-04-30T14:48:43Z</time>
      </trkpt>
      <trkpt lat="45.36665" lon="4.54559">
        <ele>1236.2</ele>
        <time>2023-04-30T14:48:44Z</time>
      </trkpt>
      <trkpt lat="45.36664" lon="4.54561">
        <ele>1236.4</ele>
        <time>2023-04-30T14:48:45Z</time>
      </trkpt>
      <trkpt lat="45.36662" lon="4.54563">
        <ele>1236.6</ele>
        <time>2023-04-30T14:48:46Z</time>
      </trkpt>
      <trkpt lat="45.3666" lon="4.54566">
        <ele>1237</ele>
        <time>2023-04-30T14:48:48Z</time>
      </trkpt>
      <trkpt lat="45.36659" lon="4.54569">
        <ele>1237.4</ele>
        <time>2023-04-30T14:48:49Z</time>
      </trkpt>
      <trkpt lat="45.36658" lon="4.5457">
        <ele>1237.4</ele>
        <time>2023-04-30T14:48:50Z</time>
      </trkpt>
      <trkpt lat="45.36656" lon="4.54571">
        <ele>1237.6</ele>
        <time>2023-04-30T14:48:51Z</time>
      </trkpt>
      <trkpt lat="45.36654" lon="4.54572">
        <ele>1237.8</ele>
        <time>2023-04-30T14:48:52Z</time>
      </trkpt>
      <trkpt lat="45.36653" lon="4.54574">
        <ele>1238</ele>
        <time>2023-04-30T14:48:53Z</time>
      </trkpt>
      <trkpt lat="45.36651" lon="4.54575">
        <ele>1238</ele>
        <time>2023-04-30T14:48:54Z</time>
      </trkpt>
      <trkpt lat="45.36649" lon="4.54576">
        <ele>1238.2</ele>
        <time>2023-04-30T14:48:55Z</time>
      </trkpt>
      <trkpt lat="45.36647" lon="4.54578">
        <ele>1238.6</ele>
        <time>2023-04-30T14:48:56Z</time>
      </trkpt>
      <trkpt lat="45.36646" lon="4.54579">
        <ele>1238.8</ele>
        <time>2023-04-30T14:48:57Z</time>
      </trkpt>
      <trkpt lat="45.36644" lon="4.5458">
        <ele>1238.8</ele>
        <time>2023-04-30T14:48:58Z</time>
      </trkpt>
      <trkpt lat="45.36643" lon="4.54581">
        <ele>1239</ele>
        <time>2023-04-30T14:48:59Z</time>
      </trkpt>
      <trkpt lat="45.36641" lon="4.54583">
        <ele>1239.2</ele>
        <time>2023-04-30T14:49:00Z</time>
      </trkpt>
      <trkpt lat="45.36638" lon="4.54585">
        <ele>1239.6</ele>
        <time>2023-04-30T14:49:02Z</time>
      </trkpt>
      <trkpt lat="45.36637" lon="4.54586">
        <ele>1239.8</ele>
        <time>2023-04-30T14:49:03Z</time>
      </trkpt>
      <trkpt lat="45.36635" lon="4.54588">
        <ele>1240</ele>
        <time>2023-04-30T14:49:04Z</time>
      </trkpt>
      <trkpt lat="45.36617" lon="4.546">
        <ele>1242.2</ele>
        <time>2023-04-30T14:49:17Z</time>
      </trkpt>
      <trkpt lat="45.36605" lon="4.54612">
        <ele>1243.8</ele>
        <time>2023-04-30T14:49:26Z</time>
      </trkpt>
      <trkpt lat="45.36603" lon="4.54613">
        <ele>1244.2</ele>
        <time>2023-04-30T14:49:27Z</time>
      </trkpt>
      <trkpt lat="45.36602" lon="4.54615">
        <ele>1244.6</ele>
        <time>2023-04-30T14:49:28Z</time>
      </trkpt>
      <trkpt lat="45.36601" lon="4.54616">
        <ele>1244.8</ele>
        <time>2023-04-30T14:49:29Z</time>
      </trkpt>
      <trkpt lat="45.366" lon="4.54618">
        <ele>1245</ele>
        <time>2023-04-30T14:49:30Z</time>
      </trkpt>
      <trkpt lat="45.36599" lon="4.5462">
        <ele>1245.2</ele>
        <time>2023-04-30T14:49:31Z</time>
      </trkpt>
      <trkpt lat="45.36599" lon="4.54622">
        <ele>1245.4</ele>
        <time>2023-04-30T14:49:32Z</time>
      </trkpt>
      <trkpt lat="45.36597" lon="4.54623">
        <ele>1245.4</ele>
        <time>2023-04-30T14:49:33Z</time>
      </trkpt>
      <trkpt lat="45.36596" lon="4.54625">
        <ele>1245.4</ele>
        <time>2023-04-30T14:49:34Z</time>
      </trkpt>
      <trkpt lat="45.36595" lon="4.54626">
        <ele>1245.6</ele>
        <time>2023-04-30T14:49:35Z</time>
      </trkpt>
      <trkpt lat="45.36593" lon="4.54628">
        <ele>1245.6</ele>
        <time>2023-04-30T14:49:36Z</time>
      </trkpt>
      <trkpt lat="45.36592" lon="4.54629">
        <ele>1245.6</ele>
        <time>2023-04-30T14:49:37Z</time>
      </trkpt>
      <trkpt lat="45.3659" lon="4.54631">
        <ele>1245.6</ele>
        <time>2023-04-30T14:49:38Z</time>
      </trkpt>
      <trkpt lat="45.36589" lon="4.54632">
        <ele>1245.6</ele>
        <time>2023-04-30T14:49:39Z</time>
      </trkpt>
      <trkpt lat="45.36587" lon="4.54634">
        <ele>1245.6</ele>
        <time>2023-04-30T14:49:40Z</time>
      </trkpt>
      <trkpt lat="45.36585" lon="4.54636">
        <ele>1245.6</ele>
        <time>2023-04-30T14:49:41Z</time>
      </trkpt>
      <trkpt lat="45.36584" lon="4.54638">
        <ele>1245.6</ele>
        <time>2023-04-30T14:49:42Z</time>
      </trkpt>
      <trkpt lat="45.36565" lon="4.54659">
        <ele>1244.8</ele>
        <time>2023-04-30T14:49:54Z</time>
      </trkpt>
      <trkpt lat="45.36555" lon="4.54656">
        <ele>1244.6</ele>
        <time>2023-04-30T14:50:54Z</time>
      </trkpt>
      <trkpt lat="45.36539" lon="4.54676">
        <ele>1244.2</ele>
        <time>2023-04-30T14:51:19Z</time>
      </trkpt>
      <trkpt lat="45.36527" lon="4.54701">
        <ele>1243.6</ele>
        <time>2023-04-30T14:51:31Z</time>
      </trkpt>
      <trkpt lat="45.36525" lon="4.54704">
        <ele>1243.6</ele>
        <time>2023-04-30T14:51:32Z</time>
      </trkpt>
      <trkpt lat="45.36524" lon="4.54706">
        <ele>1243.6</ele>
        <time>2023-04-30T14:51:33Z</time>
      </trkpt>
      <trkpt lat="45.36509" lon="4.54742">
        <ele>1243.4</ele>
        <time>2023-04-30T14:51:41Z</time>
      </trkpt>
      <trkpt lat="45.36506" lon="4.54747">
        <ele>1243.2</ele>
        <time>2023-04-30T14:51:42Z</time>
      </trkpt>
      <trkpt lat="45.36503" lon="4.54751">
        <ele>1243.2</ele>
        <time>2023-04-30T14:51:43Z</time>
      </trkpt>
      <trkpt lat="45.36498" lon="4.54761">
        <ele>1242.8</ele>
        <time>2023-04-30T14:51:45Z</time>
      </trkpt>
      <trkpt lat="45.36496" lon="4.54766">
        <ele>1242.6</ele>
        <time>2023-04-30T14:51:46Z</time>
      </trkpt>
      <trkpt lat="45.36492" lon="4.54771">
        <ele>1242.4</ele>
        <time>2023-04-30T14:51:47Z</time>
      </trkpt>
      <trkpt lat="45.36489" lon="4.54777">
        <ele>1242</ele>
        <time>2023-04-30T14:51:48Z</time>
      </trkpt>
      <trkpt lat="45.36485" lon="4.54783">
        <ele>1241.8</ele>
        <time>2023-04-30T14:51:49Z</time>
      </trkpt>
      <trkpt lat="45.36482" lon="4.54788">
        <ele>1241.4</ele>
        <time>2023-04-30T14:51:50Z</time>
      </trkpt>
      <trkpt lat="45.36478" lon="4.54794">
        <ele>1240.8</ele>
        <time>2023-04-30T14:51:51Z</time>
      </trkpt>
      <trkpt lat="45.36475" lon="4.54801">
        <ele>1240.4</ele>
        <time>2023-04-30T14:51:52Z</time>
      </trkpt>
      <trkpt lat="45.36461" lon="4.54842">
        <ele>1238.6</ele>
        <time>2023-04-30T14:51:57Z</time>
      </trkpt>
      <trkpt lat="45.36442" lon="4.54915">
        <ele>1235.8</ele>
        <time>2023-04-30T14:52:05Z</time>
      </trkpt>
      <trkpt lat="45.36414" lon="4.55013">
        <ele>1233</ele>
        <time>2023-04-30T14:52:16Z</time>
      </trkpt>
      <trkpt lat="45.36394" lon="4.55115">
        <ele>1229.6</ele>
        <time>2023-04-30T14:52:25Z</time>
      </trkpt>
      <trkpt lat="45.36387" lon="4.55159">
        <ele>1226.4</ele>
        <time>2023-04-30T14:52:29Z</time>
      </trkpt>
      <trkpt lat="45.36381" lon="4.55214">
        <ele>1223.6</ele>
        <time>2023-04-30T14:52:34Z</time>
      </trkpt>
      <trkpt lat="45.36378" lon="4.5522">
        <ele>1222.8</ele>
        <time>2023-04-30T14:52:35Z</time>
      </trkpt>
      <trkpt lat="45.36375" lon="4.55223">
        <ele>1222.4</ele>
        <time>2023-04-30T14:52:36Z</time>
      </trkpt>
      <trkpt lat="45.36372" lon="4.55227">
        <ele>1222</ele>
        <time>2023-04-30T14:52:37Z</time>
      </trkpt>
      <trkpt lat="45.36371" lon="4.55229">
        <ele>1221.8</ele>
        <time>2023-04-30T14:52:38Z</time>
      </trkpt>
      <trkpt lat="45.36371" lon="4.5523">
        <ele>1220</ele>
        <time>2023-04-30T14:52:42Z</time>
      </trkpt>
      <trkpt lat="45.36375" lon="4.5523">
        <ele>1220</ele>
        <time>2023-04-30T14:53:27Z</time>
      </trkpt>
      <trkpt lat="45.36376" lon="4.55229">
        <ele>1220.6</ele>
        <time>2023-04-30T14:53:43Z</time>
      </trkpt>
      <trkpt lat="45.36377" lon="4.55245">
        <ele>1221.2</ele>
        <time>2023-04-30T14:54:01Z</time>
      </trkpt>
      <trkpt lat="45.36377" lon="4.55246">
        <ele>1221.4</ele>
        <time>2023-04-30T14:54:02Z</time>
      </trkpt>
      <trkpt lat="45.36378" lon="4.55248">
        <ele>1221.8</ele>
        <time>2023-04-30T14:54:03Z</time>
      </trkpt>
      <trkpt lat="45.36379" lon="4.55253">
        <ele>1222.4</ele>
        <time>2023-04-30T14:54:07Z</time>
      </trkpt>
      <trkpt lat="45.36384" lon="4.55281">
        <ele>1225.2</ele>
        <time>2023-04-30T14:54:31Z</time>
      </trkpt>
      <trkpt lat="45.3639" lon="4.5531">
        <ele>1228</ele>
        <time>2023-04-30T14:54:54Z</time>
      </trkpt>
      <trkpt lat="45.36393" lon="4.55321">
        <ele>1230</ele>
        <time>2023-04-30T14:55:12Z</time>
      </trkpt>
      <trkpt lat="45.36394" lon="4.55323">
        <ele>1230.4</ele>
        <time>2023-04-30T14:55:22Z</time>
      </trkpt>
      <trkpt lat="45.36396" lon="4.55332">
        <ele>1232.2</ele>
        <time>2023-04-30T14:55:45Z</time>
      </trkpt>
      <trkpt lat="45.36398" lon="4.55336">
        <ele>1231.8</ele>
        <time>2023-04-30T14:56:03Z</time>
      </trkpt>
      <trkpt lat="45.36399" lon="4.55339">
        <ele>1231.8</ele>
        <time>2023-04-30T14:56:09Z</time>
      </trkpt>
      <trkpt lat="45.36407" lon="4.55357">
        <ele>1232.4</ele>
        <time>2023-04-30T14:56:23Z</time>
      </trkpt>
      <trkpt lat="45.3641" lon="4.55364">
        <ele>1234.4</ele>
        <time>2023-04-30T14:56:43Z</time>
      </trkpt>
      <trkpt lat="45.36412" lon="4.55376">
        <ele>1235</ele>
        <time>2023-04-30T14:57:03Z</time>
      </trkpt>
      <trkpt lat="45.36419" lon="4.55391">
        <ele>1236</ele>
        <time>2023-04-30T14:57:15Z</time>
      </trkpt>
      <trkpt lat="45.36429" lon="4.55418">
        <ele>1239</ele>
        <time>2023-04-30T14:57:36Z</time>
      </trkpt>
      <trkpt lat="45.36433" lon="4.55426">
        <ele>1240</ele>
        <time>2023-04-30T14:57:43Z</time>
      </trkpt>
      <trkpt lat="45.36437" lon="4.55432">
        <ele>1241</ele>
        <time>2023-04-30T14:57:48Z</time>
      </trkpt>
      <trkpt lat="45.36446" lon="4.55454">
        <ele>1243.8</ele>
        <time>2023-04-30T14:58:05Z</time>
      </trkpt>
      <trkpt lat="45.36456" lon="4.55474">
        <ele>1246.2</ele>
        <time>2023-04-30T14:58:23Z</time>
      </trkpt>
      <trkpt lat="45.36462" lon="4.55489">
        <ele>1247.6</ele>
        <time>2023-04-30T14:58:38Z</time>
      </trkpt>
      <trkpt lat="45.36465" lon="4.55496">
        <ele>1248</ele>
        <time>2023-04-30T14:58:43Z</time>
      </trkpt>
      <trkpt lat="45.36474" lon="4.55514">
        <ele>1249.6</ele>
        <time>2023-04-30T14:58:58Z</time>
      </trkpt>
      <trkpt lat="45.36481" lon="4.55529">
        <ele>1251.2</ele>
        <time>2023-04-30T14:59:13Z</time>
      </trkpt>
      <trkpt lat="45.36491" lon="4.55543">
        <ele>1252.4</ele>
        <time>2023-04-30T14:59:31Z</time>
      </trkpt>
      <trkpt lat="45.36506" lon="4.55558">
        <ele>1254.4</ele>
        <time>2023-04-30T14:59:50Z</time>
      </trkpt>
      <trkpt lat="45.36514" lon="4.55565">
        <ele>1256.2</ele>
        <time>2023-04-30T15:00:02Z</time>
      </trkpt>
      <trkpt lat="45.36523" lon="4.55576">
        <ele>1256.6</ele>
        <time>2023-04-30T15:00:09Z</time>
      </trkpt>
      <trkpt lat="45.36527" lon="4.55582">
        <ele>1257</ele>
        <time>2023-04-30T15:00:14Z</time>
      </trkpt>
      <trkpt lat="45.3654" lon="4.55596">
        <ele>1258.2</ele>
        <time>2023-04-30T15:00:26Z</time>
      </trkpt>
      <trkpt lat="45.36546" lon="4.556">
        <ele>1258.8</ele>
        <time>2023-04-30T15:00:31Z</time>
      </trkpt>
      <trkpt lat="45.36562" lon="4.55616">
        <ele>1260.2</ele>
        <time>2023-04-30T15:00:43Z</time>
      </trkpt>
      <trkpt lat="45.36564" lon="4.55619">
        <ele>1260.6</ele>
        <time>2023-04-30T15:00:45Z</time>
      </trkpt>
      <trkpt lat="45.36578" lon="4.55633">
        <ele>1261.8</ele>
        <time>2023-04-30T15:00:57Z</time>
      </trkpt>
      <trkpt lat="45.36584" lon="4.55639">
        <ele>1262.4</ele>
        <time>2023-04-30T15:01:02Z</time>
      </trkpt>
      <trkpt lat="45.36599" lon="4.55648">
        <ele>1263.6</ele>
        <time>2023-04-30T15:01:15Z</time>
      </trkpt>
      <trkpt lat="45.366" lon="4.55647">
        <ele>1264.4</ele>
        <time>2023-04-30T15:01:32Z</time>
      </trkpt>
      <trkpt lat="45.36611" lon="4.55655">
        <ele>1265.4</ele>
        <time>2023-04-30T15:02:03Z</time>
      </trkpt>
      <trkpt lat="45.36626" lon="4.55664">
        <ele>1267.6</ele>
        <time>2023-04-30T15:02:19Z</time>
      </trkpt>
      <trkpt lat="45.36639" lon="4.5567">
        <ele>1269</ele>
        <time>2023-04-30T15:02:33Z</time>
      </trkpt>
      <trkpt lat="45.36651" lon="4.55676">
        <ele>1270.8</ele>
        <time>2023-04-30T15:02:53Z</time>
      </trkpt>
      <trkpt lat="45.36662" lon="4.55683">
        <ele>1272.4</ele>
        <time>2023-04-30T15:03:31Z</time>
      </trkpt>
      <trkpt lat="45.36674" lon="4.55691">
        <ele>1275.2</ele>
        <time>2023-04-30T15:04:11Z</time>
      </trkpt>
      <trkpt lat="45.36684" lon="4.55697">
        <ele>1277.4</ele>
        <time>2023-04-30T15:04:30Z</time>
      </trkpt>
      <trkpt lat="45.36696" lon="4.557">
        <ele>1278.2</ele>
        <time>2023-04-30T15:04:51Z</time>
      </trkpt>
      <trkpt lat="45.36707" lon="4.55705">
        <ele>1281.2</ele>
        <time>2023-04-30T15:05:08Z</time>
      </trkpt>
      <trkpt lat="45.36718" lon="4.55713">
        <ele>1284</ele>
        <time>2023-04-30T15:05:25Z</time>
      </trkpt>
      <trkpt lat="45.36727" lon="4.5572">
        <ele>1286.4</ele>
        <time>2023-04-30T15:05:50Z</time>
      </trkpt>
      <trkpt lat="45.36738" lon="4.55725">
        <ele>1287.8</ele>
        <time>2023-04-30T15:06:09Z</time>
      </trkpt>
      <trkpt lat="45.3674" lon="4.55726">
        <ele>1287.8</ele>
        <time>2023-04-30T15:06:11Z</time>
      </trkpt>
      <trkpt lat="45.36751" lon="4.55739">
        <ele>1289.4</ele>
        <time>2023-04-30T15:06:25Z</time>
      </trkpt>
      <trkpt lat="45.36764" lon="4.55745">
        <ele>1291.2</ele>
        <time>2023-04-30T15:06:44Z</time>
      </trkpt>
      <trkpt lat="45.36777" lon="4.55755">
        <ele>1291.6</ele>
        <time>2023-04-30T15:07:03Z</time>
      </trkpt>
      <trkpt lat="45.36786" lon="4.55759">
        <ele>1292.4</ele>
        <time>2023-04-30T15:07:10Z</time>
      </trkpt>
      <trkpt lat="45.368" lon="4.55766">
        <ele>1293</ele>
        <time>2023-04-30T15:07:18Z</time>
      </trkpt>
      <trkpt lat="45.36804" lon="4.55766">
        <ele>1293.2</ele>
        <time>2023-04-30T15:07:21Z</time>
      </trkpt>
      <trkpt lat="45.36814" lon="4.55766">
        <ele>1293.6</ele>
        <time>2023-04-30T15:07:26Z</time>
      </trkpt>
      <trkpt lat="45.36816" lon="4.55765">
        <ele>1293.6</ele>
        <time>2023-04-30T15:07:27Z</time>
      </trkpt>
      <trkpt lat="45.36817" lon="4.55765">
        <ele>1293.8</ele>
        <time>2023-04-30T15:07:28Z</time>
      </trkpt>
      <trkpt lat="45.36822" lon="4.55761">
        <ele>1294.2</ele>
        <time>2023-04-30T15:07:32Z</time>
      </trkpt>
      <trkpt lat="45.36824" lon="4.55761">
        <ele>1294.4</ele>
        <time>2023-04-30T15:07:33Z</time>
      </trkpt>
      <trkpt lat="45.36837" lon="4.55762">
        <ele>1297.2</ele>
        <time>2023-04-30T15:07:44Z</time>
      </trkpt>
      <trkpt lat="45.36847" lon="4.55763">
        <ele>1299.4</ele>
        <time>2023-04-30T15:08:06Z</time>
      </trkpt>
      <trkpt lat="45.36851" lon="4.55763">
        <ele>1300.2</ele>
        <time>2023-04-30T15:09:16Z</time>
      </trkpt>
      <trkpt lat="45.36862" lon="4.55765">
        <ele>1300.2</ele>
        <time>2023-04-30T15:09:23Z</time>
      </trkpt>
      <trkpt lat="45.36877" lon="4.55766">
        <ele>1301</ele>
        <time>2023-04-30T15:09:35Z</time>
      </trkpt>
      <trkpt lat="45.36896" lon="4.55769">
        <ele>1302.2</ele>
        <time>2023-04-30T15:09:49Z</time>
      </trkpt>
      <trkpt lat="45.36918" lon="4.55775">
        <ele>1304.2</ele>
        <time>2023-04-30T15:10:01Z</time>
      </trkpt>
      <trkpt lat="45.3692" lon="4.55777">
        <ele>1304.4</ele>
        <time>2023-04-30T15:10:03Z</time>
      </trkpt>
      <trkpt lat="45.36922" lon="4.55779">
        <ele>1304.6</ele>
        <time>2023-04-30T15:10:04Z</time>
      </trkpt>
      <trkpt lat="45.36923" lon="4.5578">
        <ele>1304.6</ele>
        <time>2023-04-30T15:10:05Z</time>
      </trkpt>
      <trkpt lat="45.36925" lon="4.55781">
        <ele>1304.8</ele>
        <time>2023-04-30T15:10:06Z</time>
      </trkpt>
      <trkpt lat="45.36926" lon="4.55782">
        <ele>1305</ele>
        <time>2023-04-30T15:10:07Z</time>
      </trkpt>
      <trkpt lat="45.3694" lon="4.5579">
        <ele>1306.4</ele>
        <time>2023-04-30T15:10:18Z</time>
      </trkpt>
      <trkpt lat="45.36942" lon="4.5579">
        <ele>1306.4</ele>
        <time>2023-04-30T15:10:19Z</time>
      </trkpt>
      <trkpt lat="45.36951" lon="4.558">
        <ele>1306.2</ele>
        <time>2023-04-30T15:10:35Z</time>
      </trkpt>
      <trkpt lat="45.36962" lon="4.55806">
        <ele>1306.2</ele>
        <time>2023-04-30T15:11:06Z</time>
      </trkpt>
      <trkpt lat="45.36964" lon="4.55807">
        <ele>1306.2</ele>
        <time>2023-04-30T15:11:07Z</time>
      </trkpt>
      <trkpt lat="45.36965" lon="4.55809">
        <ele>1306.2</ele>
        <time>2023-04-30T15:11:08Z</time>
      </trkpt>
      <trkpt lat="45.36975" lon="4.55818">
        <ele>1306.6</ele>
        <time>2023-04-30T15:11:15Z</time>
      </trkpt>
      <trkpt lat="45.36976" lon="4.55819">
        <ele>1306.6</ele>
        <time>2023-04-30T15:11:16Z</time>
      </trkpt>
      <trkpt lat="45.36978" lon="4.5582">
        <ele>1306.6</ele>
        <time>2023-04-30T15:11:17Z</time>
      </trkpt>
      <trkpt lat="45.3698" lon="4.55822">
        <ele>1306.6</ele>
        <time>2023-04-30T15:11:18Z</time>
      </trkpt>
      <trkpt lat="45.36981" lon="4.55823">
        <ele>1306.8</ele>
        <time>2023-04-30T15:11:19Z</time>
      </trkpt>
      <trkpt lat="45.36999" lon="4.55841">
        <ele>1308.2</ele>
        <time>2023-04-30T15:11:31Z</time>
      </trkpt>
      <trkpt lat="45.37014" lon="4.55862">
        <ele>1309.4</ele>
        <time>2023-04-30T15:11:44Z</time>
      </trkpt>
      <trkpt lat="45.37015" lon="4.55869">
        <ele>1310</ele>
        <time>2023-04-30T15:11:47Z</time>
      </trkpt>
      <trkpt lat="45.37015" lon="4.55871">
        <ele>1310</ele>
        <time>2023-04-30T15:11:48Z</time>
      </trkpt>
      <trkpt lat="45.37019" lon="4.55886">
        <ele>1310.4</ele>
        <time>2023-04-30T15:11:56Z</time>
      </trkpt>
      <trkpt lat="45.3702" lon="4.55888">
        <ele>1310.4</ele>
        <time>2023-04-30T15:11:57Z</time>
      </trkpt>
      <trkpt lat="45.3702" lon="4.55889">
        <ele>1310.4</ele>
        <time>2023-04-30T15:11:58Z</time>
      </trkpt>
      <trkpt lat="45.37021" lon="4.5589">
        <ele>1310.4</ele>
        <time>2023-04-30T15:11:59Z</time>
      </trkpt>
      <trkpt lat="45.37024" lon="4.55894">
        <ele>1310.4</ele>
        <time>2023-04-30T15:12:03Z</time>
      </trkpt>
      <trkpt lat="45.37025" lon="4.55895">
        <ele>1310.6</ele>
        <time>2023-04-30T15:12:04Z</time>
      </trkpt>
      <trkpt lat="45.37026" lon="4.55897">
        <ele>1310.6</ele>
        <time>2023-04-30T15:12:05Z</time>
      </trkpt>
      <trkpt lat="45.37027" lon="4.55899">
        <ele>1310.6</ele>
        <time>2023-04-30T15:12:06Z</time>
      </trkpt>
      <trkpt lat="45.37029" lon="4.559">
        <ele>1310.6</ele>
        <time>2023-04-30T15:12:07Z</time>
      </trkpt>
      <trkpt lat="45.37047" lon="4.55911">
        <ele>1311.6</ele>
        <time>2023-04-30T15:12:19Z</time>
      </trkpt>
      <trkpt lat="45.3706" lon="4.55918">
        <ele>1311.8</ele>
        <time>2023-04-30T15:12:27Z</time>
      </trkpt>
      <trkpt lat="45.37062" lon="4.55919">
        <ele>1311.8</ele>
        <time>2023-04-30T15:12:28Z</time>
      </trkpt>
      <trkpt lat="45.37064" lon="4.5592">
        <ele>1312</ele>
        <time>2023-04-30T15:12:29Z</time>
      </trkpt>
      <trkpt lat="45.37084" lon="4.5593">
        <ele>1313.2</ele>
        <time>2023-04-30T15:12:41Z</time>
      </trkpt>
      <trkpt lat="45.371" lon="4.5594">
        <ele>1313.2</ele>
        <time>2023-04-30T15:12:51Z</time>
      </trkpt>
      <trkpt lat="45.37102" lon="4.55941">
        <ele>1313.2</ele>
        <time>2023-04-30T15:12:52Z</time>
      </trkpt>
      <trkpt lat="45.37127" lon="4.5595">
        <ele>1313.6</ele>
        <time>2023-04-30T15:13:03Z</time>
      </trkpt>
      <trkpt lat="45.37129" lon="4.55952">
        <ele>1313.6</ele>
        <time>2023-04-30T15:13:04Z</time>
      </trkpt>
      <trkpt lat="45.3713" lon="4.55953">
        <ele>1313.6</ele>
        <time>2023-04-30T15:13:05Z</time>
      </trkpt>
      <trkpt lat="45.37132" lon="4.55954">
        <ele>1313.8</ele>
        <time>2023-04-30T15:13:06Z</time>
      </trkpt>
      <trkpt lat="45.37135" lon="4.55955">
        <ele>1313.8</ele>
        <time>2023-04-30T15:13:07Z</time>
      </trkpt>
      <trkpt lat="45.37137" lon="4.55957">
        <ele>1313.8</ele>
        <time>2023-04-30T15:13:08Z</time>
      </trkpt>
      <trkpt lat="45.37139" lon="4.55958">
        <ele>1313.8</ele>
        <time>2023-04-30T15:13:09Z</time>
      </trkpt>
      <trkpt lat="45.37141" lon="4.55959">
        <ele>1313.8</ele>
        <time>2023-04-30T15:13:10Z</time>
      </trkpt>
      <trkpt lat="45.37143" lon="4.5596">
        <ele>1313.8</ele>
        <time>2023-04-30T15:13:11Z</time>
      </trkpt>
      <trkpt lat="45.37146" lon="4.55962">
        <ele>1313.8</ele>
        <time>2023-04-30T15:13:12Z</time>
      </trkpt>
      <trkpt lat="45.37148" lon="4.55963">
        <ele>1313.8</ele>
        <time>2023-04-30T15:13:13Z</time>
      </trkpt>
      <trkpt lat="45.37169" lon="4.55983">
        <ele>1313</ele>
        <time>2023-04-30T15:13:24Z</time>
      </trkpt>
      <trkpt lat="45.37192" lon="4.56001">
        <ele>1312.2</ele>
        <time>2023-04-30T15:13:35Z</time>
      </trkpt>
      <trkpt lat="45.37207" lon="4.56014">
        <ele>1311.8</ele>
        <time>2023-04-30T15:13:42Z</time>
      </trkpt>
      <trkpt lat="45.3721" lon="4.56015">
        <ele>1311.8</ele>
        <time>2023-04-30T15:13:43Z</time>
      </trkpt>
      <trkpt lat="45.37213" lon="4.56016">
        <ele>1311.6</ele>
        <time>2023-04-30T15:13:44Z</time>
      </trkpt>
      <trkpt lat="45.37216" lon="4.56017">
        <ele>1311.6</ele>
        <time>2023-04-30T15:13:45Z</time>
      </trkpt>
      <trkpt lat="45.37219" lon="4.56016">
        <ele>1311.6</ele>
        <time>2023-04-30T15:13:46Z</time>
      </trkpt>
      <trkpt lat="45.37221" lon="4.56014">
        <ele>1311.4</ele>
        <time>2023-04-30T15:13:47Z</time>
      </trkpt>
      <trkpt lat="45.37222" lon="4.56011">
        <ele>1311.4</ele>
        <time>2023-04-30T15:13:48Z</time>
      </trkpt>
      <trkpt lat="45.37222" lon="4.56008">
        <ele>1311</ele>
        <time>2023-04-30T15:13:50Z</time>
      </trkpt>
      <trkpt lat="45.37222" lon="4.56005">
        <ele>1310.2</ele>
        <time>2023-04-30T15:14:18Z</time>
      </trkpt>
      <trkpt lat="45.37222" lon="4.55997">
        <ele>1310.4</ele>
        <time>2023-04-30T15:14:22Z</time>
      </trkpt>
      <trkpt lat="45.37221" lon="4.55992">
        <ele>1310.4</ele>
        <time>2023-04-30T15:14:24Z</time>
      </trkpt>
      <trkpt lat="45.37218" lon="4.55971">
        <ele>1310.2</ele>
        <time>2023-04-30T15:14:34Z</time>
      </trkpt>
      <trkpt lat="45.37214" lon="4.55942">
        <ele>1310</ele>
        <time>2023-04-30T15:14:46Z</time>
      </trkpt>
      <trkpt lat="45.3721" lon="4.55905">
        <ele>1309.8</ele>
        <time>2023-04-30T15:14:58Z</time>
      </trkpt>
      <trkpt lat="45.3721" lon="4.55902">
        <ele>1309.8</ele>
        <time>2023-04-30T15:14:59Z</time>
      </trkpt>
      <trkpt lat="45.3721" lon="4.55899">
        <ele>1309.8</ele>
        <time>2023-04-30T15:15:00Z</time>
      </trkpt>
      <trkpt lat="45.3721" lon="4.55896">
        <ele>1309.8</ele>
        <time>2023-04-30T15:15:01Z</time>
      </trkpt>
      <trkpt lat="45.3721" lon="4.55893">
        <ele>1309.6</ele>
        <time>2023-04-30T15:15:02Z</time>
      </trkpt>
      <trkpt lat="45.3721" lon="4.55889">
        <ele>1309.6</ele>
        <time>2023-04-30T15:15:03Z</time>
      </trkpt>
      <trkpt lat="45.37209" lon="4.55886">
        <ele>1309.6</ele>
        <time>2023-04-30T15:15:04Z</time>
      </trkpt>
      <trkpt lat="45.37208" lon="4.55882">
        <ele>1309.4</ele>
        <time>2023-04-30T15:15:05Z</time>
      </trkpt>
      <trkpt lat="45.37207" lon="4.55879">
        <ele>1309.4</ele>
        <time>2023-04-30T15:15:06Z</time>
      </trkpt>
      <trkpt lat="45.37206" lon="4.55874">
        <ele>1309.2</ele>
        <time>2023-04-30T15:15:08Z</time>
      </trkpt>
      <trkpt lat="45.37206" lon="4.55872">
        <ele>1309</ele>
        <time>2023-04-30T15:15:09Z</time>
      </trkpt>
      <trkpt lat="45.37206" lon="4.5587">
        <ele>1308.8</ele>
        <time>2023-04-30T15:15:10Z</time>
      </trkpt>
      <trkpt lat="45.37206" lon="4.55867">
        <ele>1308.6</ele>
        <time>2023-04-30T15:15:11Z</time>
      </trkpt>
      <trkpt lat="45.37205" lon="4.55864">
        <ele>1308.4</ele>
        <time>2023-04-30T15:15:12Z</time>
      </trkpt>
      <trkpt lat="45.37203" lon="4.5586">
        <ele>1308</ele>
        <time>2023-04-30T15:15:13Z</time>
      </trkpt>
      <trkpt lat="45.37194" lon="4.55837">
        <ele>1306.6</ele>
        <time>2023-04-30T15:15:20Z</time>
      </trkpt>
      <trkpt lat="45.37192" lon="4.55835">
        <ele>1306.4</ele>
        <time>2023-04-30T15:15:21Z</time>
      </trkpt>
      <trkpt lat="45.37191" lon="4.55832">
        <ele>1306.4</ele>
        <time>2023-04-30T15:15:22Z</time>
      </trkpt>
      <trkpt lat="45.3719" lon="4.55828">
        <ele>1306.2</ele>
        <time>2023-04-30T15:15:23Z</time>
      </trkpt>
      <trkpt lat="45.37188" lon="4.55823">
        <ele>1305.6</ele>
        <time>2023-04-30T15:15:26Z</time>
      </trkpt>
      <trkpt lat="45.37186" lon="4.55819">
        <ele>1305.2</ele>
        <time>2023-04-30T15:15:42Z</time>
      </trkpt>
      <trkpt lat="45.37176" lon="4.55812">
        <ele>1305.2</ele>
        <time>2023-04-30T15:16:03Z</time>
      </trkpt>
      <trkpt lat="45.3717" lon="4.55805">
        <ele>1305.2</ele>
        <time>2023-04-30T15:16:10Z</time>
      </trkpt>
      <trkpt lat="45.37168" lon="4.55803">
        <ele>1305.2</ele>
        <time>2023-04-30T15:16:12Z</time>
      </trkpt>
      <trkpt lat="45.37159" lon="4.55792">
        <ele>1304.8</ele>
        <time>2023-04-30T15:16:24Z</time>
      </trkpt>
      <trkpt lat="45.37149" lon="4.55748">
        <ele>1303.4</ele>
        <time>2023-04-30T15:16:36Z</time>
      </trkpt>
      <trkpt lat="45.37138" lon="4.55714">
        <ele>1300.2</ele>
        <time>2023-04-30T15:16:44Z</time>
      </trkpt>
      <trkpt lat="45.37138" lon="4.55711">
        <ele>1299.6</ele>
        <time>2023-04-30T15:16:45Z</time>
      </trkpt>
      <trkpt lat="45.37128" lon="4.55676">
        <ele>1297.2</ele>
        <time>2023-04-30T15:16:55Z</time>
      </trkpt>
      <trkpt lat="45.3712" lon="4.55657">
        <ele>1297.6</ele>
        <time>2023-04-30T15:17:02Z</time>
      </trkpt>
      <trkpt lat="45.37119" lon="4.55655">
        <ele>1297.6</ele>
        <time>2023-04-30T15:17:03Z</time>
      </trkpt>
      <trkpt lat="45.37119" lon="4.55652">
        <ele>1297.6</ele>
        <time>2023-04-30T15:17:04Z</time>
      </trkpt>
      <trkpt lat="45.37118" lon="4.55648">
        <ele>1297.4</ele>
        <time>2023-04-30T15:17:05Z</time>
      </trkpt>
      <trkpt lat="45.37119" lon="4.55645">
        <ele>1297.4</ele>
        <time>2023-04-30T15:17:06Z</time>
      </trkpt>
      <trkpt lat="45.37112" lon="4.55609">
        <ele>1296.8</ele>
        <time>2023-04-30T15:17:16Z</time>
      </trkpt>
      <trkpt lat="45.37111" lon="4.55607">
        <ele>1296.8</ele>
        <time>2023-04-30T15:17:17Z</time>
      </trkpt>
      <trkpt lat="45.37111" lon="4.55601">
        <ele>1296.8</ele>
        <time>2023-04-30T15:17:21Z</time>
      </trkpt>
      <trkpt lat="45.37111" lon="4.5559">
        <ele>1297.2</ele>
        <time>2023-04-30T15:17:25Z</time>
      </trkpt>
      <trkpt lat="45.37111" lon="4.55587">
        <ele>1297.4</ele>
        <time>2023-04-30T15:17:26Z</time>
      </trkpt>
      <trkpt lat="45.37111" lon="4.55583">
        <ele>1297.6</ele>
        <time>2023-04-30T15:17:27Z</time>
      </trkpt>
      <trkpt lat="45.37112" lon="4.5558">
        <ele>1297.8</ele>
        <time>2023-04-30T15:17:28Z</time>
      </trkpt>
      <trkpt lat="45.37112" lon="4.55577">
        <ele>1297.8</ele>
        <time>2023-04-30T15:17:29Z</time>
      </trkpt>
      <trkpt lat="45.37112" lon="4.55574">
        <ele>1298</ele>
        <time>2023-04-30T15:17:30Z</time>
      </trkpt>
      <trkpt lat="45.37112" lon="4.55571">
        <ele>1298</ele>
        <time>2023-04-30T15:17:31Z</time>
      </trkpt>
      <trkpt lat="45.37112" lon="4.55568">
        <ele>1298.2</ele>
        <time>2023-04-30T15:17:32Z</time>
      </trkpt>
      <trkpt lat="45.37111" lon="4.55558">
        <ele>1299.8</ele>
        <time>2023-04-30T15:17:45Z</time>
      </trkpt>
      <trkpt lat="45.37108" lon="4.55556">
        <ele>1300.2</ele>
        <time>2023-04-30T15:18:13Z</time>
      </trkpt>
      <trkpt lat="45.37106" lon="4.55554">
        <ele>1300.2</ele>
        <time>2023-04-30T15:18:44Z</time>
      </trkpt>
      <trkpt lat="45.3711" lon="4.55545">
        <ele>1300.4</ele>
        <time>2023-04-30T15:18:57Z</time>
      </trkpt>
      <trkpt lat="45.37114" lon="4.55517">
        <ele>1299.6</ele>
        <time>2023-04-30T15:19:07Z</time>
      </trkpt>
      <trkpt lat="45.37116" lon="4.55501">
        <ele>1299.6</ele>
        <time>2023-04-30T15:19:19Z</time>
      </trkpt>
      <trkpt lat="45.37116" lon="4.55498">
        <ele>1299.8</ele>
        <time>2023-04-30T15:19:22Z</time>
      </trkpt>
      <trkpt lat="45.37121" lon="4.5548">
        <ele>1300</ele>
        <time>2023-04-30T15:19:38Z</time>
      </trkpt>
      <trkpt lat="45.37122" lon="4.55476">
        <ele>1300</ele>
        <time>2023-04-30T15:19:40Z</time>
      </trkpt>
      <trkpt lat="45.37125" lon="4.55464">
        <ele>1300</ele>
        <time>2023-04-30T15:19:50Z</time>
      </trkpt>
      <trkpt lat="45.37129" lon="4.55462">
        <ele>1300.2</ele>
        <time>2023-04-30T15:19:55Z</time>
      </trkpt>
      <trkpt lat="45.37134" lon="4.55451">
        <ele>1299.4</ele>
        <time>2023-04-30T15:20:07Z</time>
      </trkpt>
      <trkpt lat="45.37138" lon="4.55443">
        <ele>1298.6</ele>
        <time>2023-04-30T15:20:12Z</time>
      </trkpt>
      <trkpt lat="45.3714" lon="4.55438">
        <ele>1298.4</ele>
        <time>2023-04-30T15:20:14Z</time>
      </trkpt>
      <trkpt lat="45.37141" lon="4.55435">
        <ele>1298.4</ele>
        <time>2023-04-30T15:20:15Z</time>
      </trkpt>
      <trkpt lat="45.37145" lon="4.55419">
        <ele>1298</ele>
        <time>2023-04-30T15:20:20Z</time>
      </trkpt>
      <trkpt lat="45.37146" lon="4.55416">
        <ele>1297.8</ele>
        <time>2023-04-30T15:20:21Z</time>
      </trkpt>
      <trkpt lat="45.37155" lon="4.55378">
        <ele>1296.6</ele>
        <time>2023-04-30T15:20:31Z</time>
      </trkpt>
      <trkpt lat="45.37152" lon="4.55338">
        <ele>1295.8</ele>
        <time>2023-04-30T15:20:50Z</time>
      </trkpt>
      <trkpt lat="45.37151" lon="4.553">
        <ele>1294.2</ele>
        <time>2023-04-30T15:21:01Z</time>
      </trkpt>
      <trkpt lat="45.37151" lon="4.55296">
        <ele>1294.2</ele>
        <time>2023-04-30T15:21:02Z</time>
      </trkpt>
      <trkpt lat="45.37152" lon="4.55282">
        <ele>1292.8</ele>
        <time>2023-04-30T15:21:13Z</time>
      </trkpt>
      <trkpt lat="45.37152" lon="4.55263">
        <ele>1292.8</ele>
        <time>2023-04-30T15:21:30Z</time>
      </trkpt>
      <trkpt lat="45.37154" lon="4.55254">
        <ele>1290.6</ele>
        <time>2023-04-30T15:21:42Z</time>
      </trkpt>
      <trkpt lat="45.37155" lon="4.55251">
        <ele>1290.4</ele>
        <time>2023-04-30T15:21:43Z</time>
      </trkpt>
      <trkpt lat="45.37155" lon="4.55247">
        <ele>1290.4</ele>
        <time>2023-04-30T15:21:44Z</time>
      </trkpt>
      <trkpt lat="45.37156" lon="4.55243">
        <ele>1290.2</ele>
        <time>2023-04-30T15:21:45Z</time>
      </trkpt>
      <trkpt lat="45.37157" lon="4.55238">
        <ele>1290.2</ele>
        <time>2023-04-30T15:21:46Z</time>
      </trkpt>
      <trkpt lat="45.37157" lon="4.55233">
        <ele>1290.2</ele>
        <time>2023-04-30T15:21:47Z</time>
      </trkpt>
      <trkpt lat="45.37163" lon="4.552">
        <ele>1289.6</ele>
        <time>2023-04-30T15:21:53Z</time>
      </trkpt>
      <trkpt lat="45.37175" lon="4.55156">
        <ele>1288.4</ele>
        <time>2023-04-30T15:22:00Z</time>
      </trkpt>
      <trkpt lat="45.37187" lon="4.55122">
        <ele>1287.4</ele>
        <time>2023-04-30T15:22:05Z</time>
      </trkpt>
      <trkpt lat="45.37189" lon="4.55115">
        <ele>1287</ele>
        <time>2023-04-30T15:22:06Z</time>
      </trkpt>
      <trkpt lat="45.37191" lon="4.55102">
        <ele>1286</ele>
        <time>2023-04-30T15:22:08Z</time>
      </trkpt>
      <trkpt lat="45.37186" lon="4.55089">
        <ele>1285.8</ele>
        <time>2023-04-30T15:22:17Z</time>
      </trkpt>
      <trkpt lat="45.37182" lon="4.55073">
        <ele>1287</ele>
        <time>2023-04-30T15:22:32Z</time>
      </trkpt>
      <trkpt lat="45.37181" lon="4.55061">
        <ele>1288.6</ele>
        <time>2023-04-30T15:22:43Z</time>
      </trkpt>
      <trkpt lat="45.37183" lon="4.55058">
        <ele>1288.6</ele>
        <time>2023-04-30T15:22:44Z</time>
      </trkpt>
      <trkpt lat="45.37183" lon="4.55055">
        <ele>1288.6</ele>
        <time>2023-04-30T15:22:45Z</time>
      </trkpt>
      <trkpt lat="45.37184" lon="4.55053">
        <ele>1288.6</ele>
        <time>2023-04-30T15:22:46Z</time>
      </trkpt>
      <trkpt lat="45.37185" lon="4.5505">
        <ele>1288.6</ele>
        <time>2023-04-30T15:22:47Z</time>
      </trkpt>
      <trkpt lat="45.37195" lon="4.55019">
        <ele>1288.4</ele>
        <time>2023-04-30T15:22:56Z</time>
      </trkpt>
      <trkpt lat="45.37199" lon="4.54985">
        <ele>1287.8</ele>
        <time>2023-04-30T15:23:05Z</time>
      </trkpt>
      <trkpt lat="45.37199" lon="4.5498">
        <ele>1287.8</ele>
        <time>2023-04-30T15:23:06Z</time>
      </trkpt>
      <trkpt lat="45.372" lon="4.54976">
        <ele>1287.6</ele>
        <time>2023-04-30T15:23:07Z</time>
      </trkpt>
      <trkpt lat="45.37204" lon="4.54962">
        <ele>1287.4</ele>
        <time>2023-04-30T15:23:11Z</time>
      </trkpt>
      <trkpt lat="45.37205" lon="4.54959">
        <ele>1287.4</ele>
        <time>2023-04-30T15:23:12Z</time>
      </trkpt>
      <trkpt lat="45.37208" lon="4.54954">
        <ele>1287.2</ele>
        <time>2023-04-30T15:23:14Z</time>
      </trkpt>
      <trkpt lat="45.37215" lon="4.54935">
        <ele>1286.8</ele>
        <time>2023-04-30T15:23:18Z</time>
      </trkpt>
      <trkpt lat="45.37215" lon="4.54928">
        <ele>1286.8</ele>
        <time>2023-04-30T15:23:19Z</time>
      </trkpt>
      <trkpt lat="45.37215" lon="4.54922">
        <ele>1286.8</ele>
        <time>2023-04-30T15:23:20Z</time>
      </trkpt>
      <trkpt lat="45.37216" lon="4.54915">
        <ele>1286.2</ele>
        <time>2023-04-30T15:23:21Z</time>
      </trkpt>
      <trkpt lat="45.37216" lon="4.54908">
        <ele>1286</ele>
        <time>2023-04-30T15:23:22Z</time>
      </trkpt>
      <trkpt lat="45.37217" lon="4.54902">
        <ele>1285.6</ele>
        <time>2023-04-30T15:23:23Z</time>
      </trkpt>
      <trkpt lat="45.37217" lon="4.54897">
        <ele>1285</ele>
        <time>2023-04-30T15:23:24Z</time>
      </trkpt>
      <trkpt lat="45.37218" lon="4.54892">
        <ele>1284.4</ele>
        <time>2023-04-30T15:23:25Z</time>
      </trkpt>
      <trkpt lat="45.3722" lon="4.54888">
        <ele>1284</ele>
        <time>2023-04-30T15:23:26Z</time>
      </trkpt>
      <trkpt lat="45.3722" lon="4.54884">
        <ele>1283.6</ele>
        <time>2023-04-30T15:23:27Z</time>
      </trkpt>
      <trkpt lat="45.37226" lon="4.54865">
        <ele>1282</ele>
        <time>2023-04-30T15:23:36Z</time>
      </trkpt>
      <trkpt lat="45.37228" lon="4.54859">
        <ele>1282</ele>
        <time>2023-04-30T15:23:37Z</time>
      </trkpt>
      <trkpt lat="45.37229" lon="4.54855">
        <ele>1282</ele>
        <time>2023-04-30T15:23:38Z</time>
      </trkpt>
      <trkpt lat="45.37233" lon="4.54842">
        <ele>1280</ele>
        <time>2023-04-30T15:23:52Z</time>
      </trkpt>
      <trkpt lat="45.37221" lon="4.5484">
        <ele>1280</ele>
        <time>2023-04-30T15:24:02Z</time>
      </trkpt>
      <trkpt lat="45.3722" lon="4.54838">
        <ele>1280</ele>
        <time>2023-04-30T15:24:03Z</time>
      </trkpt>
      <trkpt lat="45.37218" lon="4.54837">
        <ele>1280</ele>
        <time>2023-04-30T15:24:04Z</time>
      </trkpt>
      <trkpt lat="45.37204" lon="4.54812">
        <ele>1280</ele>
        <time>2023-04-30T15:24:12Z</time>
      </trkpt>
      <trkpt lat="45.37191" lon="4.54786">
        <ele>1276.8</ele>
        <time>2023-04-30T15:24:20Z</time>
      </trkpt>
      <trkpt lat="45.37187" lon="4.5478">
        <ele>1276.6</ele>
        <time>2023-04-30T15:24:21Z</time>
      </trkpt>
      <trkpt lat="45.37168" lon="4.54741">
        <ele>1273.4</ele>
        <time>2023-04-30T15:24:30Z</time>
      </trkpt>
      <trkpt lat="45.37163" lon="4.54724">
        <ele>1271</ele>
        <time>2023-04-30T15:24:34Z</time>
      </trkpt>
      <trkpt lat="45.37151" lon="4.54705">
        <ele>1268</ele>
        <time>2023-04-30T15:24:40Z</time>
      </trkpt>
      <trkpt lat="45.37149" lon="4.54702">
        <ele>1267.4</ele>
        <time>2023-04-30T15:24:41Z</time>
      </trkpt>
      <trkpt lat="45.37132" lon="4.54665">
        <ele>1265</ele>
        <time>2023-04-30T15:24:50Z</time>
      </trkpt>
      <trkpt lat="45.37115" lon="4.54632">
        <ele>1260.8</ele>
        <time>2023-04-30T15:24:57Z</time>
      </trkpt>
      <trkpt lat="45.37102" lon="4.54606">
        <ele>1258</ele>
        <time>2023-04-30T15:25:02Z</time>
      </trkpt>
      <trkpt lat="45.37088" lon="4.54591">
        <ele>1255.8</ele>
        <time>2023-04-30T15:25:06Z</time>
      </trkpt>
      <trkpt lat="45.37069" lon="4.54563">
        <ele>1251.6</ele>
        <time>2023-04-30T15:25:12Z</time>
      </trkpt>
      <trkpt lat="45.37048" lon="4.54532">
        <ele>1248.4</ele>
        <time>2023-04-30T15:25:19Z</time>
      </trkpt>
      <trkpt lat="45.3704" lon="4.54511">
        <ele>1245.8</ele>
        <time>2023-04-30T15:25:23Z</time>
      </trkpt>
      <trkpt lat="45.37027" lon="4.54473">
        <ele>1242.2</ele>
        <time>2023-04-30T15:25:30Z</time>
      </trkpt>
      <trkpt lat="45.37022" lon="4.54432">
        <ele>1237.6</ele>
        <time>2023-04-30T15:25:37Z</time>
      </trkpt>
      <trkpt lat="45.37021" lon="4.54426">
        <ele>1237</ele>
        <time>2023-04-30T15:25:38Z</time>
      </trkpt>
      <trkpt lat="45.37014" lon="4.54406">
        <ele>1235.2</ele>
        <time>2023-04-30T15:25:41Z</time>
      </trkpt>
      <trkpt lat="45.37012" lon="4.54397">
        <ele>1234.8</ele>
        <time>2023-04-30T15:25:42Z</time>
      </trkpt>
      <trkpt lat="45.37009" lon="4.54378">
        <ele>1234.4</ele>
        <time>2023-04-30T15:25:44Z</time>
      </trkpt>
      <trkpt lat="45.37008" lon="4.54369">
        <ele>1234</ele>
        <time>2023-04-30T15:25:45Z</time>
      </trkpt>
      <trkpt lat="45.37008" lon="4.5436">
        <ele>1233.2</ele>
        <time>2023-04-30T15:25:46Z</time>
      </trkpt>
      <trkpt lat="45.37009" lon="4.54353">
        <ele>1232.8</ele>
        <time>2023-04-30T15:25:47Z</time>
      </trkpt>
      <trkpt lat="45.3701" lon="4.54347">
        <ele>1232.4</ele>
        <time>2023-04-30T15:25:48Z</time>
      </trkpt>
      <trkpt lat="45.3701" lon="4.5434">
        <ele>1231.6</ele>
        <time>2023-04-30T15:25:49Z</time>
      </trkpt>
      <trkpt lat="45.37009" lon="4.54334">
        <ele>1231</ele>
        <time>2023-04-30T15:25:50Z</time>
      </trkpt>
      <trkpt lat="45.37009" lon="4.54328">
        <ele>1230.2</ele>
        <time>2023-04-30T15:25:51Z</time>
      </trkpt>
      <trkpt lat="45.37007" lon="4.54322">
        <ele>1229.6</ele>
        <time>2023-04-30T15:25:52Z</time>
      </trkpt>
      <trkpt lat="45.37004" lon="4.54304">
        <ele>1227.8</ele>
        <time>2023-04-30T15:25:55Z</time>
      </trkpt>
      <trkpt lat="45.36993" lon="4.54283">
        <ele>1227.2</ele>
        <time>2023-04-30T15:25:59Z</time>
      </trkpt>
      <trkpt lat="45.36989" lon="4.54277">
        <ele>1227.2</ele>
        <time>2023-04-30T15:26:00Z</time>
      </trkpt>
      <trkpt lat="45.36916" lon="4.5421">
        <ele>1225</ele>
        <time>2023-04-30T15:26:12Z</time>
      </trkpt>
      <trkpt lat="45.3685" lon="4.54146">
        <ele>1221.8</ele>
        <time>2023-04-30T15:26:20Z</time>
      </trkpt>
      <trkpt lat="45.36835" lon="4.54129">
        <ele>1220.6</ele>
        <time>2023-04-30T15:26:22Z</time>
      </trkpt>
      <trkpt lat="45.36824" lon="4.54111">
        <ele>1219</ele>
        <time>2023-04-30T15:26:24Z</time>
      </trkpt>
      <trkpt lat="45.3682" lon="4.54102">
        <ele>1218</ele>
        <time>2023-04-30T15:26:25Z</time>
      </trkpt>
      <trkpt lat="45.36817" lon="4.54092">
        <ele>1217</ele>
        <time>2023-04-30T15:26:26Z</time>
      </trkpt>
      <trkpt lat="45.36815" lon="4.54082">
        <ele>1216</ele>
        <time>2023-04-30T15:26:27Z</time>
      </trkpt>
      <trkpt lat="45.36813" lon="4.54072">
        <ele>1214.8</ele>
        <time>2023-04-30T15:26:28Z</time>
      </trkpt>
      <trkpt lat="45.36806" lon="4.5403">
        <ele>1211.6</ele>
        <time>2023-04-30T15:26:32Z</time>
      </trkpt>
      <trkpt lat="45.36796" lon="4.53984">
        <ele>1211.2</ele>
        <time>2023-04-30T15:26:36Z</time>
      </trkpt>
      <trkpt lat="45.36792" lon="4.53972">
        <ele>1211</ele>
        <time>2023-04-30T15:26:37Z</time>
      </trkpt>
      <trkpt lat="45.36787" lon="4.53961">
        <ele>1210.8</ele>
        <time>2023-04-30T15:26:38Z</time>
      </trkpt>
      <trkpt lat="45.36746" lon="4.53883">
        <ele>1207</ele>
        <time>2023-04-30T15:26:45Z</time>
      </trkpt>
      <trkpt lat="45.3672" lon="4.53836">
        <ele>1203.2</ele>
        <time>2023-04-30T15:26:49Z</time>
      </trkpt>
      <trkpt lat="45.36692" lon="4.53775">
        <ele>1199.8</ele>
        <time>2023-04-30T15:26:54Z</time>
      </trkpt>
      <trkpt lat="45.3668" lon="4.53736">
        <ele>1198.4</ele>
        <time>2023-04-30T15:26:57Z</time>
      </trkpt>
      <trkpt lat="45.36669" lon="4.53664">
        <ele>1195.2</ele>
        <time>2023-04-30T15:27:03Z</time>
      </trkpt>
      <trkpt lat="45.3667" lon="4.53525">
        <ele>1194.8</ele>
        <time>2023-04-30T15:27:17Z</time>
      </trkpt>
      <trkpt lat="45.36677" lon="4.53401">
        <ele>1191.8</ele>
        <time>2023-04-30T15:27:31Z</time>
      </trkpt>
      <trkpt lat="45.3668" lon="4.53378">
        <ele>1191.2</ele>
        <time>2023-04-30T15:27:34Z</time>
      </trkpt>
      <trkpt lat="45.36688" lon="4.53348">
        <ele>1191.2</ele>
        <time>2023-04-30T15:27:39Z</time>
      </trkpt>
      <trkpt lat="45.36695" lon="4.53327">
        <ele>1191.4</ele>
        <time>2023-04-30T15:27:43Z</time>
      </trkpt>
      <trkpt lat="45.36696" lon="4.53322">
        <ele>1191.4</ele>
        <time>2023-04-30T15:27:44Z</time>
      </trkpt>
      <trkpt lat="45.36697" lon="4.53316">
        <ele>1191.4</ele>
        <time>2023-04-30T15:27:45Z</time>
      </trkpt>
      <trkpt lat="45.36705" lon="4.53259">
        <ele>1192.2</ele>
        <time>2023-04-30T15:27:58Z</time>
      </trkpt>
      <trkpt lat="45.36713" lon="4.53206">
        <ele>1195.4</ele>
        <time>2023-04-30T15:28:11Z</time>
      </trkpt>
      <trkpt lat="45.36719" lon="4.53152">
        <ele>1198.4</ele>
        <time>2023-04-30T15:28:24Z</time>
      </trkpt>
      <trkpt lat="45.36725" lon="4.53085">
        <ele>1201.2</ele>
        <time>2023-04-30T15:28:40Z</time>
      </trkpt>
      <trkpt lat="45.3674" lon="4.5301">
        <ele>1203.2</ele>
        <time>2023-04-30T15:29:00Z</time>
      </trkpt>
      <trkpt lat="45.36753" lon="4.52968">
        <ele>1205.6</ele>
        <time>2023-04-30T15:29:13Z</time>
      </trkpt>
      <trkpt lat="45.36772" lon="4.52906">
        <ele>1207.2</ele>
        <time>2023-04-30T15:29:31Z</time>
      </trkpt>
      <trkpt lat="45.36789" lon="4.52848">
        <ele>1208.6</ele>
        <time>2023-04-30T15:29:46Z</time>
      </trkpt>
      <trkpt lat="45.368" lon="4.52824">
        <ele>1209.8</ele>
        <time>2023-04-30T15:29:59Z</time>
      </trkpt>
      <trkpt lat="45.36799" lon="4.52826">
        <ele>1210.2</ele>
        <time>2023-04-30T15:30:49Z</time>
      </trkpt>
      <trkpt lat="45.36799" lon="4.52827">
        <ele>1210.2</ele>
        <time>2023-04-30T15:31:12Z</time>
      </trkpt>
      <trkpt lat="45.36799" lon="4.52823">
        <ele>1210.8</ele>
        <time>2023-04-30T15:31:37Z</time>
      </trkpt>
      <trkpt lat="45.36799" lon="4.52822">
        <ele>1210.8</ele>
        <time>2023-04-30T15:31:38Z</time>
      </trkpt>
      <trkpt lat="45.36798" lon="4.5282">
        <ele>1210.8</ele>
        <time>2023-04-30T15:31:39Z</time>
      </trkpt>
      <trkpt lat="45.36797" lon="4.52818">
        <ele>1210.8</ele>
        <time>2023-04-30T15:31:40Z</time>
      </trkpt>
      <trkpt lat="45.36797" lon="4.52815">
        <ele>1210.8</ele>
        <time>2023-04-30T15:31:41Z</time>
      </trkpt>
      <trkpt lat="45.36796" lon="4.52813">
        <ele>1210.8</ele>
        <time>2023-04-30T15:31:42Z</time>
      </trkpt>
      <trkpt lat="45.36792" lon="4.52794">
        <ele>1210.6</ele>
        <time>2023-04-30T15:31:49Z</time>
      </trkpt>
      <trkpt lat="45.3679" lon="4.52793">
        <ele>1210.6</ele>
        <time>2023-04-30T15:31:50Z</time>
      </trkpt>
      <trkpt lat="45.36789" lon="4.52791">
        <ele>1210.6</ele>
        <time>2023-04-30T15:31:51Z</time>
      </trkpt>
      <trkpt lat="45.36787" lon="4.5279">
        <ele>1210.6</ele>
        <time>2023-04-30T15:31:52Z</time>
      </trkpt>
      <trkpt lat="45.36785" lon="4.5279">
        <ele>1210.6</ele>
        <time>2023-04-30T15:31:53Z</time>
      </trkpt>
      <trkpt lat="45.3676" lon="4.52783">
        <ele>1210.8</ele>
        <time>2023-04-30T15:32:06Z</time>
      </trkpt>
      <trkpt lat="45.36758" lon="4.52782">
        <ele>1210.8</ele>
        <time>2023-04-30T15:32:07Z</time>
      </trkpt>
      <trkpt lat="45.36757" lon="4.52782">
        <ele>1210.8</ele>
        <time>2023-04-30T15:32:08Z</time>
      </trkpt>
      <trkpt lat="45.36723" lon="4.52766">
        <ele>1212.6</ele>
        <time>2023-04-30T15:32:25Z</time>
      </trkpt>
      <trkpt lat="45.36699" lon="4.52754">
        <ele>1214.2</ele>
        <time>2023-04-30T15:32:38Z</time>
      </trkpt>
      <trkpt lat="45.36691" lon="4.5275">
        <ele>1214.2</ele>
        <time>2023-04-30T15:32:43Z</time>
      </trkpt>
      <trkpt lat="45.36689" lon="4.52749">
        <ele>1214.2</ele>
        <time>2023-04-30T15:32:44Z</time>
      </trkpt>
      <trkpt lat="45.36687" lon="4.52748">
        <ele>1214.4</ele>
        <time>2023-04-30T15:32:45Z</time>
      </trkpt>
      <trkpt lat="45.36685" lon="4.52748">
        <ele>1214.4</ele>
        <time>2023-04-30T15:32:46Z</time>
      </trkpt>
      <trkpt lat="45.36684" lon="4.52747">
        <ele>1214.6</ele>
        <time>2023-04-30T15:32:47Z</time>
      </trkpt>
      <trkpt lat="45.36682" lon="4.52746">
        <ele>1214.6</ele>
        <time>2023-04-30T15:32:48Z</time>
      </trkpt>
      <trkpt lat="45.36659" lon="4.52733">
        <ele>1216.2</ele>
        <time>2023-04-30T15:33:02Z</time>
      </trkpt>
      <trkpt lat="45.36634" lon="4.52719">
        <ele>1219</ele>
        <time>2023-04-30T15:33:18Z</time>
      </trkpt>
      <trkpt lat="45.36609" lon="4.5271">
        <ele>1221.6</ele>
        <time>2023-04-30T15:33:32Z</time>
      </trkpt>
      <trkpt lat="45.36588" lon="4.52697">
        <ele>1224</ele>
        <time>2023-04-30T15:33:46Z</time>
      </trkpt>
      <trkpt lat="45.36572" lon="4.52682">
        <ele>1227.2</ele>
        <time>2023-04-30T15:33:58Z</time>
      </trkpt>
      <trkpt lat="45.36557" lon="4.52666">
        <ele>1230.2</ele>
        <time>2023-04-30T15:34:10Z</time>
      </trkpt>
      <trkpt lat="45.36544" lon="4.52653">
        <ele>1232.4</ele>
        <time>2023-04-30T15:34:21Z</time>
      </trkpt>
      <trkpt lat="45.36533" lon="4.52643">
        <ele>1233.8</ele>
        <time>2023-04-30T15:34:29Z</time>
      </trkpt>
      <trkpt lat="45.36531" lon="4.52642">
        <ele>1233.8</ele>
        <time>2023-04-30T15:34:30Z</time>
      </trkpt>
      <trkpt lat="45.36516" lon="4.52631">
        <ele>1236.2</ele>
        <time>2023-04-30T15:34:42Z</time>
      </trkpt>
      <trkpt lat="45.365" lon="4.52625">
        <ele>1238</ele>
        <time>2023-04-30T15:34:52Z</time>
      </trkpt>
      <trkpt lat="45.36497" lon="4.52625">
        <ele>1238.2</ele>
        <time>2023-04-30T15:34:54Z</time>
      </trkpt>
      <trkpt lat="45.36492" lon="4.52622">
        <ele>1239.8</ele>
        <time>2023-04-30T15:35:14Z</time>
      </trkpt>
      <trkpt lat="45.36485" lon="4.52629">
        <ele>1239.8</ele>
        <time>2023-04-30T15:36:48Z</time>
      </trkpt>
      <trkpt lat="45.36481" lon="4.52632">
        <ele>1239.8</ele>
        <time>2023-04-30T15:36:51Z</time>
      </trkpt>
      <trkpt lat="45.36478" lon="4.52635">
        <ele>1239.8</ele>
        <time>2023-04-30T15:36:54Z</time>
      </trkpt>
      <trkpt lat="45.36477" lon="4.52635">
        <ele>1239.8</ele>
        <time>2023-04-30T15:36:55Z</time>
      </trkpt>
      <trkpt lat="45.36475" lon="4.52636">
        <ele>1239.8</ele>
        <time>2023-04-30T15:36:56Z</time>
      </trkpt>
      <trkpt lat="45.36473" lon="4.52637">
        <ele>1239.8</ele>
        <time>2023-04-30T15:36:58Z</time>
      </trkpt>
      <trkpt lat="45.36472" lon="4.52637">
        <ele>1239.8</ele>
        <time>2023-04-30T15:36:59Z</time>
      </trkpt>
      <trkpt lat="45.36471" lon="4.52637">
        <ele>1239.8</ele>
        <time>2023-04-30T15:37:00Z</time>
      </trkpt>
      <trkpt lat="45.3647" lon="4.52638">
        <ele>1239.8</ele>
        <time>2023-04-30T15:37:01Z</time>
      </trkpt>
      <trkpt lat="45.36466" lon="4.52638">
        <ele>1239.8</ele>
        <time>2023-04-30T15:37:04Z</time>
      </trkpt>
      <trkpt lat="45.36465" lon="4.52638">
        <ele>1240</ele>
        <time>2023-04-30T15:37:05Z</time>
      </trkpt>
      <trkpt lat="45.36464" lon="4.52638">
        <ele>1240</ele>
        <time>2023-04-30T15:37:06Z</time>
      </trkpt>
      <trkpt lat="45.36463" lon="4.52637">
        <ele>1240.2</ele>
        <time>2023-04-30T15:37:07Z</time>
      </trkpt>
      <trkpt lat="45.36461" lon="4.52637">
        <ele>1240.4</ele>
        <time>2023-04-30T15:37:08Z</time>
      </trkpt>
      <trkpt lat="45.3646" lon="4.52636">
        <ele>1240.4</ele>
        <time>2023-04-30T15:37:09Z</time>
      </trkpt>
      <trkpt lat="45.36458" lon="4.52636">
        <ele>1240.4</ele>
        <time>2023-04-30T15:37:10Z</time>
      </trkpt>
      <trkpt lat="45.36457" lon="4.52634">
        <ele>1240.4</ele>
        <time>2023-04-30T15:37:11Z</time>
      </trkpt>
      <trkpt lat="45.36424" lon="4.5262">
        <ele>1239.8</ele>
        <time>2023-04-30T15:37:23Z</time>
      </trkpt>
      <trkpt lat="45.3642" lon="4.52618">
        <ele>1239.8</ele>
        <time>2023-04-30T15:37:24Z</time>
      </trkpt>
      <trkpt lat="45.36416" lon="4.52616">
        <ele>1239.4</ele>
        <time>2023-04-30T15:37:25Z</time>
      </trkpt>
      <trkpt lat="45.36412" lon="4.52614">
        <ele>1239.2</ele>
        <time>2023-04-30T15:37:26Z</time>
      </trkpt>
      <trkpt lat="45.36408" lon="4.52612">
        <ele>1239.2</ele>
        <time>2023-04-30T15:37:27Z</time>
      </trkpt>
      <trkpt lat="45.36403" lon="4.5261">
        <ele>1238.8</ele>
        <time>2023-04-30T15:37:28Z</time>
      </trkpt>
      <trkpt lat="45.36398" lon="4.52607">
        <ele>1238.4</ele>
        <time>2023-04-30T15:37:29Z</time>
      </trkpt>
      <trkpt lat="45.36378" lon="4.52593">
        <ele>1237.6</ele>
        <time>2023-04-30T15:37:32Z</time>
      </trkpt>
      <trkpt lat="45.36373" lon="4.52586">
        <ele>1237.4</ele>
        <time>2023-04-30T15:37:33Z</time>
      </trkpt>
      <trkpt lat="45.36363" lon="4.52568">
        <ele>1237</ele>
        <time>2023-04-30T15:37:35Z</time>
      </trkpt>
      <trkpt lat="45.36358" lon="4.52559">
        <ele>1236.8</ele>
        <time>2023-04-30T15:37:36Z</time>
      </trkpt>
      <trkpt lat="45.36334" lon="4.52516">
        <ele>1233.4</ele>
        <time>2023-04-30T15:37:41Z</time>
      </trkpt>
      <trkpt lat="45.36317" lon="4.52493">
        <ele>1230.2</ele>
        <time>2023-04-30T15:37:44Z</time>
      </trkpt>
      <trkpt lat="45.36292" lon="4.52457">
        <ele>1227.2</ele>
        <time>2023-04-30T15:37:49Z</time>
      </trkpt>
      <trkpt lat="45.36264" lon="4.52412">
        <ele>1225.2</ele>
        <time>2023-04-30T15:37:59Z</time>
      </trkpt>
      <trkpt lat="45.36261" lon="4.52411">
        <ele>1225.2</ele>
        <time>2023-04-30T15:38:00Z</time>
      </trkpt>
      <trkpt lat="45.36257" lon="4.52409">
        <ele>1225</ele>
        <time>2023-04-30T15:38:06Z</time>
      </trkpt>
      <trkpt lat="45.36256" lon="4.52397">
        <ele>1224.8</ele>
        <time>2023-04-30T15:38:17Z</time>
      </trkpt>
      <trkpt lat="45.36255" lon="4.52394">
        <ele>1224.8</ele>
        <time>2023-04-30T15:38:19Z</time>
      </trkpt>
      <trkpt lat="45.36252" lon="4.5239">
        <ele>1224.6</ele>
        <time>2023-04-30T15:38:21Z</time>
      </trkpt>
      <trkpt lat="45.36251" lon="4.52387">
        <ele>1224.6</ele>
        <time>2023-04-30T15:38:22Z</time>
      </trkpt>
      <trkpt lat="45.36249" lon="4.52384">
        <ele>1224.4</ele>
        <time>2023-04-30T15:38:23Z</time>
      </trkpt>
      <trkpt lat="45.36248" lon="4.5238">
        <ele>1224.4</ele>
        <time>2023-04-30T15:38:24Z</time>
      </trkpt>
      <trkpt lat="45.36246" lon="4.52375">
        <ele>1224.2</ele>
        <time>2023-04-30T15:38:25Z</time>
      </trkpt>
      <trkpt lat="45.36235" lon="4.52331">
        <ele>1221.6</ele>
        <time>2023-04-30T15:38:35Z</time>
      </trkpt>
      <trkpt lat="45.36233" lon="4.52319">
        <ele>1219.8</ele>
        <time>2023-04-30T15:38:39Z</time>
      </trkpt>
      <trkpt lat="45.3622" lon="4.52278">
        <ele>1217.4</ele>
        <time>2023-04-30T15:38:49Z</time>
      </trkpt>
      <trkpt lat="45.36204" lon="4.52251">
        <ele>1215</ele>
        <time>2023-04-30T15:38:55Z</time>
      </trkpt>
      <trkpt lat="45.36198" lon="4.5224">
        <ele>1214.4</ele>
        <time>2023-04-30T15:38:57Z</time>
      </trkpt>
      <trkpt lat="45.36187" lon="4.52214">
        <ele>1212.6</ele>
        <time>2023-04-30T15:39:01Z</time>
      </trkpt>
      <trkpt lat="45.36184" lon="4.52209">
        <ele>1212.2</ele>
        <time>2023-04-30T15:39:02Z</time>
      </trkpt>
      <trkpt lat="45.3618" lon="4.52205">
        <ele>1212</ele>
        <time>2023-04-30T15:39:03Z</time>
      </trkpt>
      <trkpt lat="45.36176" lon="4.52201">
        <ele>1211.6</ele>
        <time>2023-04-30T15:39:04Z</time>
      </trkpt>
      <trkpt lat="45.36153" lon="4.52177">
        <ele>1208.6</ele>
        <time>2023-04-30T15:39:11Z</time>
      </trkpt>
      <trkpt lat="45.36136" lon="4.5214">
        <ele>1205.2</ele>
        <time>2023-04-30T15:39:22Z</time>
      </trkpt>
      <trkpt lat="45.36138" lon="4.52126">
        <ele>1202.6</ele>
        <time>2023-04-30T15:40:15Z</time>
      </trkpt>
      <trkpt lat="45.36141" lon="4.52086">
        <ele>1200.6</ele>
        <time>2023-04-30T15:40:26Z</time>
      </trkpt>
      <trkpt lat="45.36142" lon="4.52083">
        <ele>1200.2</ele>
        <time>2023-04-30T15:40:27Z</time>
      </trkpt>
      <trkpt lat="45.36144" lon="4.52079">
        <ele>1200</ele>
        <time>2023-04-30T15:40:28Z</time>
      </trkpt>
      <trkpt lat="45.36145" lon="4.52075">
        <ele>1199.6</ele>
        <time>2023-04-30T15:40:29Z</time>
      </trkpt>
      <trkpt lat="45.36147" lon="4.5207">
        <ele>1199</ele>
        <time>2023-04-30T15:40:30Z</time>
      </trkpt>
      <trkpt lat="45.36148" lon="4.52066">
        <ele>1198.6</ele>
        <time>2023-04-30T15:40:31Z</time>
      </trkpt>
      <trkpt lat="45.3615" lon="4.52063">
        <ele>1198.2</ele>
        <time>2023-04-30T15:40:32Z</time>
      </trkpt>
      <trkpt lat="45.36152" lon="4.52059">
        <ele>1198</ele>
        <time>2023-04-30T15:40:33Z</time>
      </trkpt>
      <trkpt lat="45.36159" lon="4.52045">
        <ele>1196.8</ele>
        <time>2023-04-30T15:40:36Z</time>
      </trkpt>
      <trkpt lat="45.36161" lon="4.52041">
        <ele>1196.4</ele>
        <time>2023-04-30T15:40:37Z</time>
      </trkpt>
      <trkpt lat="45.36164" lon="4.52037">
        <ele>1196</ele>
        <time>2023-04-30T15:40:38Z</time>
      </trkpt>
      <trkpt lat="45.36166" lon="4.52032">
        <ele>1195.8</ele>
        <time>2023-04-30T15:40:39Z</time>
      </trkpt>
      <trkpt lat="45.36167" lon="4.52029">
        <ele>1195.4</ele>
        <time>2023-04-30T15:40:40Z</time>
      </trkpt>
      <trkpt lat="45.36168" lon="4.52025">
        <ele>1194.8</ele>
        <time>2023-04-30T15:40:41Z</time>
      </trkpt>
      <trkpt lat="45.36169" lon="4.52021">
        <ele>1194.4</ele>
        <time>2023-04-30T15:40:42Z</time>
      </trkpt>
      <trkpt lat="45.36171" lon="4.52017">
        <ele>1194</ele>
        <time>2023-04-30T15:40:43Z</time>
      </trkpt>
      <trkpt lat="45.36172" lon="4.52012">
        <ele>1193.6</ele>
        <time>2023-04-30T15:40:44Z</time>
      </trkpt>
      <trkpt lat="45.36172" lon="4.52007">
        <ele>1193.2</ele>
        <time>2023-04-30T15:40:45Z</time>
      </trkpt>
      <trkpt lat="45.36172" lon="4.52004">
        <ele>1192.8</ele>
        <time>2023-04-30T15:40:46Z</time>
      </trkpt>
      <trkpt lat="45.36181" lon="4.5196">
        <ele>1189.6</ele>
        <time>2023-04-30T15:40:56Z</time>
      </trkpt>
      <trkpt lat="45.36182" lon="4.51942">
        <ele>1186.6</ele>
        <time>2023-04-30T15:41:02Z</time>
      </trkpt>
      <trkpt lat="45.36183" lon="4.51938">
        <ele>1184.8</ele>
        <time>2023-04-30T15:41:30Z</time>
      </trkpt>
      <trkpt lat="45.36184" lon="4.51936">
        <ele>1184.8</ele>
        <time>2023-04-30T15:41:31Z</time>
      </trkpt>
      <trkpt lat="45.36184" lon="4.51933">
        <ele>1184.8</ele>
        <time>2023-04-30T15:41:32Z</time>
      </trkpt>
      <trkpt lat="45.36185" lon="4.51931">
        <ele>1184.8</ele>
        <time>2023-04-30T15:41:33Z</time>
      </trkpt>
      <trkpt lat="45.36187" lon="4.51929">
        <ele>1184.8</ele>
        <time>2023-04-30T15:41:34Z</time>
      </trkpt>
      <trkpt lat="45.36188" lon="4.51926">
        <ele>1184.8</ele>
        <time>2023-04-30T15:41:35Z</time>
      </trkpt>
      <trkpt lat="45.36189" lon="4.51924">
        <ele>1184.8</ele>
        <time>2023-04-30T15:41:36Z</time>
      </trkpt>
      <trkpt lat="45.36208" lon="4.51878">
        <ele>1182.8</ele>
        <time>2023-04-30T15:41:48Z</time>
      </trkpt>
      <trkpt lat="45.36213" lon="4.51853">
        <ele>1179.2</ele>
        <time>2023-04-30T15:41:53Z</time>
      </trkpt>
      <trkpt lat="45.36222" lon="4.51832">
        <ele>1176.8</ele>
        <time>2023-04-30T15:41:58Z</time>
      </trkpt>
      <trkpt lat="45.36242" lon="4.51827">
        <ele>1175.8</ele>
        <time>2023-04-30T15:42:04Z</time>
      </trkpt>
      <trkpt lat="45.36244" lon="4.51829">
        <ele>1175.4</ele>
        <time>2023-04-30T15:42:05Z</time>
      </trkpt>
      <trkpt lat="45.36248" lon="4.51832">
        <ele>1174.8</ele>
        <time>2023-04-30T15:42:07Z</time>
      </trkpt>
      <trkpt lat="45.3625" lon="4.51831">
        <ele>1174.6</ele>
        <time>2023-04-30T15:42:08Z</time>
      </trkpt>
      <trkpt lat="45.36252" lon="4.51829">
        <ele>1174.2</ele>
        <time>2023-04-30T15:42:09Z</time>
      </trkpt>
      <trkpt lat="45.36267" lon="4.51817">
        <ele>1173.8</ele>
        <time>2023-04-30T15:42:13Z</time>
      </trkpt>
      <trkpt lat="45.36272" lon="4.51814">
        <ele>1173.8</ele>
        <time>2023-04-30T15:42:14Z</time>
      </trkpt>
      <trkpt lat="45.36318" lon="4.51793">
        <ele>1172.2</ele>
        <time>2023-04-30T15:42:21Z</time>
      </trkpt>
      <trkpt lat="45.36322" lon="4.51788">
        <ele>1171.4</ele>
        <time>2023-04-30T15:42:22Z</time>
      </trkpt>
      <trkpt lat="45.36324" lon="4.51782">
        <ele>1170.6</ele>
        <time>2023-04-30T15:42:23Z</time>
      </trkpt>
      <trkpt lat="45.36324" lon="4.51776">
        <ele>1169.6</ele>
        <time>2023-04-30T15:42:24Z</time>
      </trkpt>
      <trkpt lat="45.36322" lon="4.51771">
        <ele>1168.6</ele>
        <time>2023-04-30T15:42:25Z</time>
      </trkpt>
      <trkpt lat="45.3632" lon="4.51767">
        <ele>1167.4</ele>
        <time>2023-04-30T15:42:26Z</time>
      </trkpt>
      <trkpt lat="45.36317" lon="4.51764">
        <ele>1166.4</ele>
        <time>2023-04-30T15:42:27Z</time>
      </trkpt>
      <trkpt lat="45.36315" lon="4.51761">
        <ele>1166</ele>
        <time>2023-04-30T15:42:28Z</time>
      </trkpt>
      <trkpt lat="45.36312" lon="4.51758">
        <ele>1165.8</ele>
        <time>2023-04-30T15:42:29Z</time>
      </trkpt>
      <trkpt lat="45.36297" lon="4.51745">
        <ele>1165.4</ele>
        <time>2023-04-30T15:42:37Z</time>
      </trkpt>
      <trkpt lat="45.36287" lon="4.51723">
        <ele>1165.6</ele>
        <time>2023-04-30T15:42:48Z</time>
      </trkpt>
      <trkpt lat="45.36286" lon="4.51713">
        <ele>1165.4</ele>
        <time>2023-04-30T15:42:52Z</time>
      </trkpt>
      <trkpt lat="45.36287" lon="4.51701">
        <ele>1165.4</ele>
        <time>2023-04-30T15:42:58Z</time>
      </trkpt>
      <trkpt lat="45.3629" lon="4.51663">
        <ele>1167</ele>
        <time>2023-04-30T15:43:15Z</time>
      </trkpt>
      <trkpt lat="45.36291" lon="4.51633">
        <ele>1167.6</ele>
        <time>2023-04-30T15:43:29Z</time>
      </trkpt>
      <trkpt lat="45.36287" lon="4.51616">
        <ele>1169</ele>
        <time>2023-04-30T15:43:52Z</time>
      </trkpt>
      <trkpt lat="45.36288" lon="4.51612">
        <ele>1169.2</ele>
        <time>2023-04-30T15:43:54Z</time>
      </trkpt>
      <trkpt lat="45.36286" lon="4.51602">
        <ele>1169.4</ele>
        <time>2023-04-30T15:43:59Z</time>
      </trkpt>
      <trkpt lat="45.36284" lon="4.51588">
        <ele>1172.2</ele>
        <time>2023-04-30T15:44:16Z</time>
      </trkpt>
      <trkpt lat="45.36277" lon="4.51575">
        <ele>1172.4</ele>
        <time>2023-04-30T15:44:35Z</time>
      </trkpt>
      <trkpt lat="45.36277" lon="4.51555">
        <ele>1174.8</ele>
        <time>2023-04-30T15:44:54Z</time>
      </trkpt>
      <trkpt lat="45.36278" lon="4.51537">
        <ele>1176.4</ele>
        <time>2023-04-30T15:45:18Z</time>
      </trkpt>
      <trkpt lat="45.36277" lon="4.51511">
        <ele>1178.6</ele>
        <time>2023-04-30T15:45:40Z</time>
      </trkpt>
      <trkpt lat="45.36282" lon="4.51492">
        <ele>1180.8</ele>
        <time>2023-04-30T15:46:00Z</time>
      </trkpt>
      <trkpt lat="45.36283" lon="4.51475">
        <ele>1182.2</ele>
        <time>2023-04-30T15:46:22Z</time>
      </trkpt>
      <trkpt lat="45.36284" lon="4.51466">
        <ele>1183.4</ele>
        <time>2023-04-30T15:46:34Z</time>
      </trkpt>
      <trkpt lat="45.36288" lon="4.51438">
        <ele>1184.2</ele>
        <time>2023-04-30T15:46:56Z</time>
      </trkpt>
      <trkpt lat="45.3629" lon="4.51419">
        <ele>1185.4</ele>
        <time>2023-04-30T15:47:10Z</time>
      </trkpt>
      <trkpt lat="45.36291" lon="4.5139">
        <ele>1186.6</ele>
        <time>2023-04-30T15:47:26Z</time>
      </trkpt>
      <trkpt lat="45.3629" lon="4.5137">
        <ele>1188.2</ele>
        <time>2023-04-30T15:47:38Z</time>
      </trkpt>
      <trkpt lat="45.36289" lon="4.51363">
        <ele>1188.4</ele>
        <time>2023-04-30T15:47:41Z</time>
      </trkpt>
      <trkpt lat="45.36289" lon="4.51359">
        <ele>1188.6</ele>
        <time>2023-04-30T15:47:43Z</time>
      </trkpt>
      <trkpt lat="45.36288" lon="4.51348">
        <ele>1189</ele>
        <time>2023-04-30T15:47:47Z</time>
      </trkpt>
      <trkpt lat="45.36286" lon="4.51333">
        <ele>1189.2</ele>
        <time>2023-04-30T15:47:53Z</time>
      </trkpt>
      <trkpt lat="45.36284" lon="4.51318">
        <ele>1189.2</ele>
        <time>2023-04-30T15:47:59Z</time>
      </trkpt>
      <trkpt lat="45.36281" lon="4.51303">
        <ele>1189.4</ele>
        <time>2023-04-30T15:48:05Z</time>
      </trkpt>
      <trkpt lat="45.3628" lon="4.513">
        <ele>1189.4</ele>
        <time>2023-04-30T15:48:06Z</time>
      </trkpt>
      <trkpt lat="45.36278" lon="4.51297">
        <ele>1189.4</ele>
        <time>2023-04-30T15:48:07Z</time>
      </trkpt>
      <trkpt lat="45.36276" lon="4.51294">
        <ele>1189.4</ele>
        <time>2023-04-30T15:48:08Z</time>
      </trkpt>
      <trkpt lat="45.36275" lon="4.5129">
        <ele>1189.6</ele>
        <time>2023-04-30T15:48:09Z</time>
      </trkpt>
      <trkpt lat="45.36262" lon="4.51274">
        <ele>1190</ele>
        <time>2023-04-30T15:48:24Z</time>
      </trkpt>
      <trkpt lat="45.3626" lon="4.51273">
        <ele>1190</ele>
        <time>2023-04-30T15:48:25Z</time>
      </trkpt>
      <trkpt lat="45.36259" lon="4.51273">
        <ele>1190</ele>
        <time>2023-04-30T15:48:26Z</time>
      </trkpt>
      <trkpt lat="45.36258" lon="4.51273">
        <ele>1190</ele>
        <time>2023-04-30T15:48:27Z</time>
      </trkpt>
      <trkpt lat="45.36257" lon="4.51273">
        <ele>1190.2</ele>
        <time>2023-04-30T15:48:28Z</time>
      </trkpt>
      <trkpt lat="45.36255" lon="4.51273">
        <ele>1190.2</ele>
        <time>2023-04-30T15:48:29Z</time>
      </trkpt>
      <trkpt lat="45.36254" lon="4.51273">
        <ele>1190.2</ele>
        <time>2023-04-30T15:48:30Z</time>
      </trkpt>
      <trkpt lat="45.36253" lon="4.51274">
        <ele>1190.2</ele>
        <time>2023-04-30T15:48:31Z</time>
      </trkpt>
      <trkpt lat="45.36253" lon="4.51275">
        <ele>1190.2</ele>
        <time>2023-04-30T15:48:32Z</time>
      </trkpt>
      <trkpt lat="45.36252" lon="4.51275">
        <ele>1190.2</ele>
        <time>2023-04-30T15:48:33Z</time>
      </trkpt>
      <trkpt lat="45.3625" lon="4.51276">
        <ele>1191.8</ele>
        <time>2023-04-30T15:48:49Z</time>
      </trkpt>
      <trkpt lat="45.36238" lon="4.51281">
        <ele>1191.8</ele>
        <time>2023-04-30T15:49:11Z</time>
      </trkpt>
      <trkpt lat="45.36237" lon="4.5128">
        <ele>1191.8</ele>
        <time>2023-04-30T15:49:12Z</time>
      </trkpt>
      <trkpt lat="45.36227" lon="4.5128">
        <ele>1192.6</ele>
        <time>2023-04-30T15:49:24Z</time>
      </trkpt>
      <trkpt lat="45.36221" lon="4.51284">
        <ele>1193</ele>
        <time>2023-04-30T15:49:31Z</time>
      </trkpt>
      <trkpt lat="45.36218" lon="4.51286">
        <ele>1193</ele>
        <time>2023-04-30T15:49:34Z</time>
      </trkpt>
      <trkpt lat="45.36212" lon="4.51287">
        <ele>1193.6</ele>
        <time>2023-04-30T15:49:39Z</time>
      </trkpt>
      <trkpt lat="45.36211" lon="4.51287">
        <ele>1193.6</ele>
        <time>2023-04-30T15:49:40Z</time>
      </trkpt>
      <trkpt lat="45.3621" lon="4.51288">
        <ele>1193.6</ele>
        <time>2023-04-30T15:49:41Z</time>
      </trkpt>
      <trkpt lat="45.36209" lon="4.51288">
        <ele>1193.6</ele>
        <time>2023-04-30T15:49:42Z</time>
      </trkpt>
      <trkpt lat="45.36202" lon="4.5129">
        <ele>1194.2</ele>
        <time>2023-04-30T15:49:48Z</time>
      </trkpt>
      <trkpt lat="45.362" lon="4.51291">
        <ele>1194.4</ele>
        <time>2023-04-30T15:49:50Z</time>
      </trkpt>
      <trkpt lat="45.36186" lon="4.51293">
        <ele>1195.6</ele>
        <time>2023-04-30T15:50:04Z</time>
      </trkpt>
      <trkpt lat="45.36172" lon="4.51296">
        <ele>1196.6</ele>
        <time>2023-04-30T15:50:16Z</time>
      </trkpt>
      <trkpt lat="45.36154" lon="4.51296">
        <ele>1198.4</ele>
        <time>2023-04-30T15:50:27Z</time>
      </trkpt>
      <trkpt lat="45.36136" lon="4.51299">
        <ele>1199.8</ele>
        <time>2023-04-30T15:50:39Z</time>
      </trkpt>
      <trkpt lat="45.36113" lon="4.51311">
        <ele>1201</ele>
        <time>2023-04-30T15:50:50Z</time>
      </trkpt>
      <trkpt lat="45.361" lon="4.51317">
        <ele>1201.6</ele>
        <time>2023-04-30T15:50:58Z</time>
      </trkpt>
      <trkpt lat="45.36097" lon="4.51318">
        <ele>1201.8</ele>
        <time>2023-04-30T15:51:00Z</time>
      </trkpt>
      <trkpt lat="45.36076" lon="4.51331">
        <ele>1203.6</ele>
        <time>2023-04-30T15:51:14Z</time>
      </trkpt>
      <trkpt lat="45.36059" lon="4.51341">
        <ele>1204.6</ele>
        <time>2023-04-30T15:51:23Z</time>
      </trkpt>
      <trkpt lat="45.36057" lon="4.51341">
        <ele>1204.6</ele>
        <time>2023-04-30T15:51:24Z</time>
      </trkpt>
      <trkpt lat="45.36047" lon="4.51347">
        <ele>1205</ele>
        <time>2023-04-30T15:51:29Z</time>
      </trkpt>
      <trkpt lat="45.36045" lon="4.51349">
        <ele>1205.2</ele>
        <time>2023-04-30T15:51:30Z</time>
      </trkpt>
      <trkpt lat="45.36043" lon="4.51349">
        <ele>1205.4</ele>
        <time>2023-04-30T15:51:31Z</time>
      </trkpt>
      <trkpt lat="45.36041" lon="4.5135">
        <ele>1205.6</ele>
        <time>2023-04-30T15:51:32Z</time>
      </trkpt>
      <trkpt lat="45.3604" lon="4.51351">
        <ele>1205.6</ele>
        <time>2023-04-30T15:51:33Z</time>
      </trkpt>
      <trkpt lat="45.36038" lon="4.51351">
        <ele>1205.8</ele>
        <time>2023-04-30T15:51:34Z</time>
      </trkpt>
      <trkpt lat="45.36037" lon="4.51351">
        <ele>1205.8</ele>
        <time>2023-04-30T15:51:35Z</time>
      </trkpt>
      <trkpt lat="45.36035" lon="4.51351">
        <ele>1205.8</ele>
        <time>2023-04-30T15:51:36Z</time>
      </trkpt>
      <trkpt lat="45.36034" lon="4.51351">
        <ele>1205.8</ele>
        <time>2023-04-30T15:51:37Z</time>
      </trkpt>
      <trkpt lat="45.36022" lon="4.51352">
        <ele>1206.2</ele>
        <time>2023-04-30T15:51:46Z</time>
      </trkpt>
      <trkpt lat="45.3602" lon="4.51352">
        <ele>1206.2</ele>
        <time>2023-04-30T15:51:47Z</time>
      </trkpt>
      <trkpt lat="45.36018" lon="4.51353">
        <ele>1206.4</ele>
        <time>2023-04-30T15:51:48Z</time>
      </trkpt>
      <trkpt lat="45.3601" lon="4.51352">
        <ele>1206.4</ele>
        <time>2023-04-30T15:51:52Z</time>
      </trkpt>
      <trkpt lat="45.36008" lon="4.51352">
        <ele>1206.6</ele>
        <time>2023-04-30T15:51:53Z</time>
      </trkpt>
      <trkpt lat="45.36004" lon="4.51352">
        <ele>1206.6</ele>
        <time>2023-04-30T15:51:55Z</time>
      </trkpt>
      <trkpt lat="45.36002" lon="4.51352">
        <ele>1206.8</ele>
        <time>2023-04-30T15:51:56Z</time>
      </trkpt>
      <trkpt lat="45.36" lon="4.51353">
        <ele>1206.8</ele>
        <time>2023-04-30T15:51:57Z</time>
      </trkpt>
      <trkpt lat="45.35997" lon="4.51352">
        <ele>1206.8</ele>
        <time>2023-04-30T15:52:00Z</time>
      </trkpt>
      <trkpt lat="45.35995" lon="4.51352">
        <ele>1206.8</ele>
        <time>2023-04-30T15:52:01Z</time>
      </trkpt>
      <trkpt lat="45.35977" lon="4.51353">
        <ele>1206.8</ele>
        <time>2023-04-30T15:52:13Z</time>
      </trkpt>
      <trkpt lat="45.35968" lon="4.51349">
        <ele>1206.6</ele>
        <time>2023-04-30T15:53:05Z</time>
      </trkpt>
      <trkpt lat="45.35953" lon="4.51353">
        <ele>1206.8</ele>
        <time>2023-04-30T15:53:27Z</time>
      </trkpt>
      <trkpt lat="45.35938" lon="4.51357">
        <ele>1207</ele>
        <time>2023-04-30T15:53:38Z</time>
      </trkpt>
      <trkpt lat="45.35929" lon="4.51358">
        <ele>1207</ele>
        <time>2023-04-30T15:53:51Z</time>
      </trkpt>
      <trkpt lat="45.35928" lon="4.51359">
        <ele>1207</ele>
        <time>2023-04-30T15:53:52Z</time>
      </trkpt>
      <trkpt lat="45.35926" lon="4.51359">
        <ele>1206.8</ele>
        <time>2023-04-30T15:53:53Z</time>
      </trkpt>
      <trkpt lat="45.35899" lon="4.51373">
        <ele>1206.4</ele>
        <time>2023-04-30T15:54:05Z</time>
      </trkpt>
      <trkpt lat="45.35856" lon="4.51379">
        <ele>1206.6</ele>
        <time>2023-04-30T15:54:17Z</time>
      </trkpt>
      <trkpt lat="45.35833" lon="4.51383">
        <ele>1206</ele>
        <time>2023-04-30T15:54:26Z</time>
      </trkpt>
      <trkpt lat="45.35805" lon="4.51385">
        <ele>1205.4</ele>
        <time>2023-04-30T15:54:37Z</time>
      </trkpt>
      <trkpt lat="45.3579" lon="4.51389">
        <ele>1205.2</ele>
        <time>2023-04-30T15:54:43Z</time>
      </trkpt>
      <trkpt lat="45.35787" lon="4.51389">
        <ele>1205.2</ele>
        <time>2023-04-30T15:54:44Z</time>
      </trkpt>
      <trkpt lat="45.35776" lon="4.51394">
        <ele>1205</ele>
        <time>2023-04-30T15:54:48Z</time>
      </trkpt>
      <trkpt lat="45.35742" lon="4.51411">
        <ele>1204</ele>
        <time>2023-04-30T15:54:58Z</time>
      </trkpt>
      <trkpt lat="45.35739" lon="4.5141">
        <ele>1203.8</ele>
        <time>2023-04-30T15:54:59Z</time>
      </trkpt>
      <trkpt lat="45.35698" lon="4.51411">
        <ele>1203.2</ele>
        <time>2023-04-30T15:55:10Z</time>
      </trkpt>
      <trkpt lat="45.35665" lon="4.51415">
        <ele>1203.8</ele>
        <time>2023-04-30T15:55:20Z</time>
      </trkpt>
      <trkpt lat="45.35637" lon="4.51422">
        <ele>1204.6</ele>
        <time>2023-04-30T15:55:31Z</time>
      </trkpt>
      <trkpt lat="45.35617" lon="4.51424">
        <ele>1204.8</ele>
        <time>2023-04-30T15:55:40Z</time>
      </trkpt>
      <trkpt lat="45.35615" lon="4.51425">
        <ele>1204.8</ele>
        <time>2023-04-30T15:55:41Z</time>
      </trkpt>
      <trkpt lat="45.35612" lon="4.51426">
        <ele>1204.8</ele>
        <time>2023-04-30T15:55:42Z</time>
      </trkpt>
      <trkpt lat="45.3557" lon="4.51444">
        <ele>1204</ele>
        <time>2023-04-30T15:55:53Z</time>
      </trkpt>
      <trkpt lat="45.35537" lon="4.51462">
        <ele>1202.6</ele>
        <time>2023-04-30T15:56:03Z</time>
      </trkpt>
      <trkpt lat="45.35495" lon="4.51472">
        <ele>1200.8</ele>
        <time>2023-04-30T15:56:13Z</time>
      </trkpt>
      <trkpt lat="45.35457" lon="4.51474">
        <ele>1198.4</ele>
        <time>2023-04-30T15:56:20Z</time>
      </trkpt>
      <trkpt lat="45.35424" lon="4.5148">
        <ele>1196</ele>
        <time>2023-04-30T15:56:25Z</time>
      </trkpt>
      <trkpt lat="45.35417" lon="4.51483">
        <ele>1195.4</ele>
        <time>2023-04-30T15:56:26Z</time>
      </trkpt>
      <trkpt lat="45.3541" lon="4.51486">
        <ele>1195</ele>
        <time>2023-04-30T15:56:27Z</time>
      </trkpt>
      <trkpt lat="45.35404" lon="4.5149">
        <ele>1194.6</ele>
        <time>2023-04-30T15:56:28Z</time>
      </trkpt>
      <trkpt lat="45.35399" lon="4.51495">
        <ele>1194.2</ele>
        <time>2023-04-30T15:56:29Z</time>
      </trkpt>
      <trkpt lat="45.35394" lon="4.515">
        <ele>1193.8</ele>
        <time>2023-04-30T15:56:30Z</time>
      </trkpt>
      <trkpt lat="45.35391" lon="4.51506">
        <ele>1192.6</ele>
        <time>2023-04-30T15:56:31Z</time>
      </trkpt>
      <trkpt lat="45.3539" lon="4.51512">
        <ele>1191.8</ele>
        <time>2023-04-30T15:56:32Z</time>
      </trkpt>
      <trkpt lat="45.35387" lon="4.51552">
        <ele>1188.8</ele>
        <time>2023-04-30T15:56:42Z</time>
      </trkpt>
      <trkpt lat="45.35387" lon="4.51558">
        <ele>1188.8</ele>
        <time>2023-04-30T15:56:43Z</time>
      </trkpt>
      <trkpt lat="45.35386" lon="4.51565">
        <ele>1188.6</ele>
        <time>2023-04-30T15:56:44Z</time>
      </trkpt>
      <trkpt lat="45.35385" lon="4.51571">
        <ele>1188.6</ele>
        <time>2023-04-30T15:56:45Z</time>
      </trkpt>
      <trkpt lat="45.35384" lon="4.51577">
        <ele>1188.6</ele>
        <time>2023-04-30T15:56:46Z</time>
      </trkpt>
      <trkpt lat="45.35382" lon="4.51584">
        <ele>1188.6</ele>
        <time>2023-04-30T15:56:47Z</time>
      </trkpt>
      <trkpt lat="45.3538" lon="4.5159">
        <ele>1188.6</ele>
        <time>2023-04-30T15:56:48Z</time>
      </trkpt>
      <trkpt lat="45.35378" lon="4.51594">
        <ele>1188.4</ele>
        <time>2023-04-30T15:56:49Z</time>
      </trkpt>
      <trkpt lat="45.35376" lon="4.51597">
        <ele>1188.4</ele>
        <time>2023-04-30T15:56:50Z</time>
      </trkpt>
      <trkpt lat="45.35374" lon="4.51599">
        <ele>1188.2</ele>
        <time>2023-04-30T15:56:51Z</time>
      </trkpt>
      <trkpt lat="45.35372" lon="4.516">
        <ele>1187.8</ele>
        <time>2023-04-30T15:56:52Z</time>
      </trkpt>
      <trkpt lat="45.35371" lon="4.51601">
        <ele>1187.2</ele>
        <time>2023-04-30T15:56:53Z</time>
      </trkpt>
      <trkpt lat="45.35368" lon="4.51606">
        <ele>1185.6</ele>
        <time>2023-04-30T15:56:56Z</time>
      </trkpt>
      <trkpt lat="45.35364" lon="4.51615">
        <ele>1185.6</ele>
        <time>2023-04-30T15:57:01Z</time>
      </trkpt>
      <trkpt lat="45.35359" lon="4.51617">
        <ele>1185.6</ele>
        <time>2023-04-30T15:57:17Z</time>
      </trkpt>
      <trkpt lat="45.35348" lon="4.5161">
        <ele>1185.6</ele>
        <time>2023-04-30T15:57:27Z</time>
      </trkpt>
      <trkpt lat="45.35319" lon="4.51599">
        <ele>1186.6</ele>
        <time>2023-04-30T15:57:43Z</time>
      </trkpt>
      <trkpt lat="45.35307" lon="4.51597">
        <ele>1187.4</ele>
        <time>2023-04-30T15:57:48Z</time>
      </trkpt>
      <trkpt lat="45.35303" lon="4.51596">
        <ele>1187.6</ele>
        <time>2023-04-30T15:57:49Z</time>
      </trkpt>
      <trkpt lat="45.35301" lon="4.51596">
        <ele>1187.6</ele>
        <time>2023-04-30T15:57:50Z</time>
      </trkpt>
      <trkpt lat="45.3529" lon="4.51598">
        <ele>1188.6</ele>
        <time>2023-04-30T15:58:05Z</time>
      </trkpt>
      <trkpt lat="45.35266" lon="4.5159">
        <ele>1188.8</ele>
        <time>2023-04-30T15:58:34Z</time>
      </trkpt>
      <trkpt lat="45.35247" lon="4.51588">
        <ele>1189.2</ele>
        <time>2023-04-30T15:58:42Z</time>
      </trkpt>
      <trkpt lat="45.35209" lon="4.51583">
        <ele>1190.8</ele>
        <time>2023-04-30T15:58:56Z</time>
      </trkpt>
      <trkpt lat="45.35185" lon="4.5158">
        <ele>1192</ele>
        <time>2023-04-30T15:59:07Z</time>
      </trkpt>
      <trkpt lat="45.35177" lon="4.51582">
        <ele>1192.2</ele>
        <time>2023-04-30T15:59:11Z</time>
      </trkpt>
      <trkpt lat="45.35175" lon="4.51581">
        <ele>1192.4</ele>
        <time>2023-04-30T15:59:12Z</time>
      </trkpt>
      <trkpt lat="45.35171" lon="4.51582">
        <ele>1192.6</ele>
        <time>2023-04-30T15:59:13Z</time>
      </trkpt>
      <trkpt lat="45.3513" lon="4.51585">
        <ele>1193.8</ele>
        <time>2023-04-30T15:59:29Z</time>
      </trkpt>
      <trkpt lat="45.35104" lon="4.51589">
        <ele>1194.6</ele>
        <time>2023-04-30T15:59:40Z</time>
      </trkpt>
      <trkpt lat="45.35072" lon="4.51595">
        <ele>1196.2</ele>
        <time>2023-04-30T15:59:52Z</time>
      </trkpt>
      <trkpt lat="45.35059" lon="4.51593">
        <ele>1196.6</ele>
        <time>2023-04-30T15:59:58Z</time>
      </trkpt>
      <trkpt lat="45.35057" lon="4.51592">
        <ele>1196.6</ele>
        <time>2023-04-30T15:59:59Z</time>
      </trkpt>
      <trkpt lat="45.35039" lon="4.51584">
        <ele>1196.6</ele>
        <time>2023-04-30T16:00:09Z</time>
      </trkpt>
      <trkpt lat="45.35037" lon="4.51582">
        <ele>1196.6</ele>
        <time>2023-04-30T16:00:10Z</time>
      </trkpt>
      <trkpt lat="45.35004" lon="4.51574">
        <ele>1195</ele>
        <time>2023-04-30T16:00:19Z</time>
      </trkpt>
      <trkpt lat="45.34978" lon="4.51569">
        <ele>1191.8</ele>
        <time>2023-04-30T16:00:24Z</time>
      </trkpt>
      <trkpt lat="45.34971" lon="4.51568">
        <ele>1191.4</ele>
        <time>2023-04-30T16:00:25Z</time>
      </trkpt>
      <trkpt lat="45.34944" lon="4.51562">
        <ele>1189.8</ele>
        <time>2023-04-30T16:00:28Z</time>
      </trkpt>
      <trkpt lat="45.34936" lon="4.51559">
        <ele>1188.8</ele>
        <time>2023-04-30T16:00:29Z</time>
      </trkpt>
      <trkpt lat="45.34929" lon="4.51557">
        <ele>1188.2</ele>
        <time>2023-04-30T16:00:30Z</time>
      </trkpt>
      <trkpt lat="45.34924" lon="4.51553">
        <ele>1187.8</ele>
        <time>2023-04-30T16:00:31Z</time>
      </trkpt>
      <trkpt lat="45.34919" lon="4.51549">
        <ele>1187.4</ele>
        <time>2023-04-30T16:00:32Z</time>
      </trkpt>
      <trkpt lat="45.34901" lon="4.51522">
        <ele>1186.2</ele>
        <time>2023-04-30T16:00:40Z</time>
      </trkpt>
      <trkpt lat="45.34889" lon="4.51495">
        <ele>1187.4</ele>
        <time>2023-04-30T16:01:22Z</time>
      </trkpt>
      <trkpt lat="45.34888" lon="4.51493">
        <ele>1187.4</ele>
        <time>2023-04-30T16:01:23Z</time>
      </trkpt>
      <trkpt lat="45.34886" lon="4.51491">
        <ele>1187.4</ele>
        <time>2023-04-30T16:01:24Z</time>
      </trkpt>
      <trkpt lat="45.34867" lon="4.51468">
        <ele>1189.4</ele>
        <time>2023-04-30T16:01:38Z</time>
      </trkpt>
      <trkpt lat="45.34862" lon="4.51465">
        <ele>1190.2</ele>
        <time>2023-04-30T16:01:42Z</time>
      </trkpt>
      <trkpt lat="45.34847" lon="4.51443">
        <ele>1193.2</ele>
        <time>2023-04-30T16:01:54Z</time>
      </trkpt>
      <trkpt lat="45.34841" lon="4.5143">
        <ele>1194.4</ele>
        <time>2023-04-30T16:02:00Z</time>
      </trkpt>
      <trkpt lat="45.3484" lon="4.51427">
        <ele>1194.6</ele>
        <time>2023-04-30T16:02:01Z</time>
      </trkpt>
      <trkpt lat="45.34839" lon="4.51425">
        <ele>1194.8</ele>
        <time>2023-04-30T16:02:02Z</time>
      </trkpt>
      <trkpt lat="45.3483" lon="4.514">
        <ele>1197</ele>
        <time>2023-04-30T16:02:15Z</time>
      </trkpt>
      <trkpt lat="45.34819" lon="4.5137">
        <ele>1198.4</ele>
        <time>2023-04-30T16:02:27Z</time>
      </trkpt>
      <trkpt lat="45.34802" lon="4.51345">
        <ele>1199.6</ele>
        <time>2023-04-30T16:02:41Z</time>
      </trkpt>
      <trkpt lat="45.34782" lon="4.51323">
        <ele>1200</ele>
        <time>2023-04-30T16:02:54Z</time>
      </trkpt>
      <trkpt lat="45.34761" lon="4.513">
        <ele>1200.4</ele>
        <time>2023-04-30T16:03:06Z</time>
      </trkpt>
      <trkpt lat="45.34744" lon="4.51278">
        <ele>1200.4</ele>
        <time>2023-04-30T16:03:18Z</time>
      </trkpt>
      <trkpt lat="45.34736" lon="4.5127">
        <ele>1200.4</ele>
        <time>2023-04-30T16:03:24Z</time>
      </trkpt>
      <trkpt lat="45.34735" lon="4.51267">
        <ele>1200.4</ele>
        <time>2023-04-30T16:03:25Z</time>
      </trkpt>
      <trkpt lat="45.34733" lon="4.51265">
        <ele>1200.4</ele>
        <time>2023-04-30T16:03:26Z</time>
      </trkpt>
      <trkpt lat="45.34713" lon="4.5123">
        <ele>1199.8</ele>
        <time>2023-04-30T16:03:37Z</time>
      </trkpt>
      <trkpt lat="45.34703" lon="4.51169">
        <ele>1196.8</ele>
        <time>2023-04-30T16:03:46Z</time>
      </trkpt>
      <trkpt lat="45.34703" lon="4.5116">
        <ele>1196.4</ele>
        <time>2023-04-30T16:03:47Z</time>
      </trkpt>
      <trkpt lat="45.34704" lon="4.51152">
        <ele>1196</ele>
        <time>2023-04-30T16:03:48Z</time>
      </trkpt>
      <trkpt lat="45.34706" lon="4.51144">
        <ele>1195.8</ele>
        <time>2023-04-30T16:03:49Z</time>
      </trkpt>
      <trkpt lat="45.34708" lon="4.51136">
        <ele>1195.6</ele>
        <time>2023-04-30T16:03:50Z</time>
      </trkpt>
      <trkpt lat="45.34708" lon="4.51129">
        <ele>1195.2</ele>
        <time>2023-04-30T16:03:51Z</time>
      </trkpt>
      <trkpt lat="45.34709" lon="4.51124">
        <ele>1195</ele>
        <time>2023-04-30T16:03:52Z</time>
      </trkpt>
      <trkpt lat="45.34709" lon="4.51119">
        <ele>1194.8</ele>
        <time>2023-04-30T16:03:53Z</time>
      </trkpt>
      <trkpt lat="45.34709" lon="4.51116">
        <ele>1194.4</ele>
        <time>2023-04-30T16:03:54Z</time>
      </trkpt>
      <trkpt lat="45.34711" lon="4.51113">
        <ele>1194.4</ele>
        <time>2023-04-30T16:03:55Z</time>
      </trkpt>
      <trkpt lat="45.34719" lon="4.51095">
        <ele>1194</ele>
        <time>2023-04-30T16:04:03Z</time>
      </trkpt>
      <trkpt lat="45.3472" lon="4.51056">
        <ele>1195.2</ele>
        <time>2023-04-30T16:04:16Z</time>
      </trkpt>
      <trkpt lat="45.34718" lon="4.51021">
        <ele>1198</ele>
        <time>2023-04-30T16:04:27Z</time>
      </trkpt>
      <trkpt lat="45.34722" lon="4.50997">
        <ele>1199.4</ele>
        <time>2023-04-30T16:04:38Z</time>
      </trkpt>
      <trkpt lat="45.34724" lon="4.5096">
        <ele>1199.6</ele>
        <time>2023-04-30T16:04:52Z</time>
      </trkpt>
      <trkpt lat="45.34722" lon="4.50942">
        <ele>1199.8</ele>
        <time>2023-04-30T16:05:00Z</time>
      </trkpt>
      <trkpt lat="45.34713" lon="4.50916">
        <ele>1200.2</ele>
        <time>2023-04-30T16:05:11Z</time>
      </trkpt>
      <trkpt lat="45.34712" lon="4.50913">
        <ele>1200.2</ele>
        <time>2023-04-30T16:05:12Z</time>
      </trkpt>
      <trkpt lat="45.34711" lon="4.5091">
        <ele>1200.2</ele>
        <time>2023-04-30T16:05:13Z</time>
      </trkpt>
      <trkpt lat="45.34711" lon="4.50907">
        <ele>1200.2</ele>
        <time>2023-04-30T16:05:14Z</time>
      </trkpt>
      <trkpt lat="45.3471" lon="4.50904">
        <ele>1200.2</ele>
        <time>2023-04-30T16:05:15Z</time>
      </trkpt>
      <trkpt lat="45.3471" lon="4.509">
        <ele>1200.2</ele>
        <time>2023-04-30T16:05:16Z</time>
      </trkpt>
      <trkpt lat="45.34709" lon="4.50889">
        <ele>1200.2</ele>
        <time>2023-04-30T16:05:20Z</time>
      </trkpt>
      <trkpt lat="45.34709" lon="4.50886">
        <ele>1200.2</ele>
        <time>2023-04-30T16:05:21Z</time>
      </trkpt>
      <trkpt lat="45.34707" lon="4.50863">
        <ele>1200.4</ele>
        <time>2023-04-30T16:05:29Z</time>
      </trkpt>
      <trkpt lat="45.34706" lon="4.50859">
        <ele>1200.4</ele>
        <time>2023-04-30T16:05:30Z</time>
      </trkpt>
      <trkpt lat="45.34705" lon="4.50849">
        <ele>1200.6</ele>
        <time>2023-04-30T16:05:33Z</time>
      </trkpt>
      <trkpt lat="45.34705" lon="4.50846">
        <ele>1200.8</ele>
        <time>2023-04-30T16:05:34Z</time>
      </trkpt>
      <trkpt lat="45.34704" lon="4.50843">
        <ele>1200.8</ele>
        <time>2023-04-30T16:05:35Z</time>
      </trkpt>
      <trkpt lat="45.34705" lon="4.50841">
        <ele>1201</ele>
        <time>2023-04-30T16:05:36Z</time>
      </trkpt>
      <trkpt lat="45.34705" lon="4.50839">
        <ele>1201.2</ele>
        <time>2023-04-30T16:05:37Z</time>
      </trkpt>
      <trkpt lat="45.34705" lon="4.50827">
        <ele>1203</ele>
        <time>2023-04-30T16:05:57Z</time>
      </trkpt>
      <trkpt lat="45.34702" lon="4.50803">
        <ele>1203.4</ele>
        <time>2023-04-30T16:07:09Z</time>
      </trkpt>
      <trkpt lat="45.34698" lon="4.50765">
        <ele>1202.8</ele>
        <time>2023-04-30T16:07:20Z</time>
      </trkpt>
      <trkpt lat="45.34698" lon="4.50761">
        <ele>1202.8</ele>
        <time>2023-04-30T16:07:21Z</time>
      </trkpt>
      <trkpt lat="45.34698" lon="4.50758">
        <ele>1202.8</ele>
        <time>2023-04-30T16:07:22Z</time>
      </trkpt>
      <trkpt lat="45.34698" lon="4.50755">
        <ele>1202.6</ele>
        <time>2023-04-30T16:07:23Z</time>
      </trkpt>
      <trkpt lat="45.34698" lon="4.50751">
        <ele>1202.6</ele>
        <time>2023-04-30T16:07:24Z</time>
      </trkpt>
      <trkpt lat="45.34698" lon="4.50747">
        <ele>1202.6</ele>
        <time>2023-04-30T16:07:25Z</time>
      </trkpt>
      <trkpt lat="45.34697" lon="4.50744">
        <ele>1202.6</ele>
        <time>2023-04-30T16:07:26Z</time>
      </trkpt>
      <trkpt lat="45.34697" lon="4.5074">
        <ele>1202.6</ele>
        <time>2023-04-30T16:07:27Z</time>
      </trkpt>
      <trkpt lat="45.34697" lon="4.50736">
        <ele>1202.6</ele>
        <time>2023-04-30T16:07:28Z</time>
      </trkpt>
      <trkpt lat="45.34696" lon="4.50732">
        <ele>1202.6</ele>
        <time>2023-04-30T16:07:29Z</time>
      </trkpt>
      <trkpt lat="45.34696" lon="4.50728">
        <ele>1202.6</ele>
        <time>2023-04-30T16:07:30Z</time>
      </trkpt>
      <trkpt lat="45.34696" lon="4.50724">
        <ele>1202.8</ele>
        <time>2023-04-30T16:07:31Z</time>
      </trkpt>
      <trkpt lat="45.34696" lon="4.50721">
        <ele>1202.8</ele>
        <time>2023-04-30T16:07:32Z</time>
      </trkpt>
      <trkpt lat="45.34696" lon="4.50717">
        <ele>1202.8</ele>
        <time>2023-04-30T16:07:33Z</time>
      </trkpt>
      <trkpt lat="45.34695" lon="4.50713">
        <ele>1202.8</ele>
        <time>2023-04-30T16:07:34Z</time>
      </trkpt>
      <trkpt lat="45.34694" lon="4.50709">
        <ele>1203</ele>
        <time>2023-04-30T16:07:35Z</time>
      </trkpt>
      <trkpt lat="45.34694" lon="4.50704">
        <ele>1203</ele>
        <time>2023-04-30T16:07:36Z</time>
      </trkpt>
      <trkpt lat="45.34694" lon="4.50701">
        <ele>1203</ele>
        <time>2023-04-30T16:07:37Z</time>
      </trkpt>
      <trkpt lat="45.34694" lon="4.50697">
        <ele>1203</ele>
        <time>2023-04-30T16:07:38Z</time>
      </trkpt>
      <trkpt lat="45.34694" lon="4.50692">
        <ele>1203.2</ele>
        <time>2023-04-30T16:07:39Z</time>
      </trkpt>
      <trkpt lat="45.34694" lon="4.50688">
        <ele>1203.2</ele>
        <time>2023-04-30T16:07:40Z</time>
      </trkpt>
      <trkpt lat="45.34694" lon="4.50684">
        <ele>1203.4</ele>
        <time>2023-04-30T16:07:41Z</time>
      </trkpt>
      <trkpt lat="45.34692" lon="4.50675">
        <ele>1205.2</ele>
        <time>2023-04-30T16:07:55Z</time>
      </trkpt>
      <trkpt lat="45.34694" lon="4.50669">
        <ele>1205.2</ele>
        <time>2023-04-30T16:08:25Z</time>
      </trkpt>
      <trkpt lat="45.34694" lon="4.50667">
        <ele>1205.2</ele>
        <time>2023-04-30T16:08:26Z</time>
      </trkpt>
      <trkpt lat="45.34694" lon="4.50664">
        <ele>1205.2</ele>
        <time>2023-04-30T16:08:27Z</time>
      </trkpt>
      <trkpt lat="45.34694" lon="4.50661">
        <ele>1205.2</ele>
        <time>2023-04-30T16:08:28Z</time>
      </trkpt>
      <trkpt lat="45.34694" lon="4.50659">
        <ele>1205.2</ele>
        <time>2023-04-30T16:08:29Z</time>
      </trkpt>
      <trkpt lat="45.34694" lon="4.50656">
        <ele>1205.2</ele>
        <time>2023-04-30T16:08:30Z</time>
      </trkpt>
      <trkpt lat="45.34694" lon="4.50652">
        <ele>1205.2</ele>
        <time>2023-04-30T16:08:31Z</time>
      </trkpt>
      <trkpt lat="45.34693" lon="4.50649">
        <ele>1205.2</ele>
        <time>2023-04-30T16:08:32Z</time>
      </trkpt>
      <trkpt lat="45.34694" lon="4.50643">
        <ele>1205.2</ele>
        <time>2023-04-30T16:08:34Z</time>
      </trkpt>
      <trkpt lat="45.34696" lon="4.50636">
        <ele>1205.2</ele>
        <time>2023-04-30T16:08:36Z</time>
      </trkpt>
      <trkpt lat="45.34697" lon="4.50634">
        <ele>1205</ele>
        <time>2023-04-30T16:08:37Z</time>
      </trkpt>
      <trkpt lat="45.34698" lon="4.5063">
        <ele>1205</ele>
        <time>2023-04-30T16:08:38Z</time>
      </trkpt>
      <trkpt lat="45.34699" lon="4.50625">
        <ele>1205</ele>
        <time>2023-04-30T16:08:39Z</time>
      </trkpt>
      <trkpt lat="45.347" lon="4.50621">
        <ele>1205</ele>
        <time>2023-04-30T16:08:40Z</time>
      </trkpt>
      <trkpt lat="45.34701" lon="4.50617">
        <ele>1205</ele>
        <time>2023-04-30T16:08:41Z</time>
      </trkpt>
      <trkpt lat="45.34701" lon="4.50612">
        <ele>1205</ele>
        <time>2023-04-30T16:08:42Z</time>
      </trkpt>
      <trkpt lat="45.34701" lon="4.50609">
        <ele>1205</ele>
        <time>2023-04-30T16:08:43Z</time>
      </trkpt>
      <trkpt lat="45.34702" lon="4.50605">
        <ele>1205</ele>
        <time>2023-04-30T16:08:44Z</time>
      </trkpt>
      <trkpt lat="45.34702" lon="4.50601">
        <ele>1205</ele>
        <time>2023-04-30T16:08:45Z</time>
      </trkpt>
      <trkpt lat="45.34701" lon="4.50596">
        <ele>1204.8</ele>
        <time>2023-04-30T16:08:46Z</time>
      </trkpt>
      <trkpt lat="45.34701" lon="4.50592">
        <ele>1204.8</ele>
        <time>2023-04-30T16:08:47Z</time>
      </trkpt>
      <trkpt lat="45.347" lon="4.50588">
        <ele>1204.6</ele>
        <time>2023-04-30T16:08:48Z</time>
      </trkpt>
      <trkpt lat="45.34699" lon="4.50584">
        <ele>1204.6</ele>
        <time>2023-04-30T16:08:49Z</time>
      </trkpt>
      <trkpt lat="45.34698" lon="4.50583">
        <ele>1204.6</ele>
        <time>2023-04-30T16:08:50Z</time>
      </trkpt>
      <trkpt lat="45.34696" lon="4.5058">
        <ele>1204.4</ele>
        <time>2023-04-30T16:08:51Z</time>
      </trkpt>
      <trkpt lat="45.34693" lon="4.50577">
        <ele>1204.4</ele>
        <time>2023-04-30T16:08:52Z</time>
      </trkpt>
      <trkpt lat="45.34691" lon="4.50573">
        <ele>1204.2</ele>
        <time>2023-04-30T16:08:53Z</time>
      </trkpt>
      <trkpt lat="45.34688" lon="4.50569">
        <ele>1204.2</ele>
        <time>2023-04-30T16:08:54Z</time>
      </trkpt>
      <trkpt lat="45.34685" lon="4.50566">
        <ele>1204.2</ele>
        <time>2023-04-30T16:08:55Z</time>
      </trkpt>
      <trkpt lat="45.34681" lon="4.50562">
        <ele>1204</ele>
        <time>2023-04-30T16:08:56Z</time>
      </trkpt>
      <trkpt lat="45.34678" lon="4.50558">
        <ele>1204</ele>
        <time>2023-04-30T16:08:57Z</time>
      </trkpt>
      <trkpt lat="45.34675" lon="4.50555">
        <ele>1204</ele>
        <time>2023-04-30T16:08:58Z</time>
      </trkpt>
      <trkpt lat="45.34671" lon="4.50551">
        <ele>1204</ele>
        <time>2023-04-30T16:08:59Z</time>
      </trkpt>
      <trkpt lat="45.34666" lon="4.50548">
        <ele>1203.8</ele>
        <time>2023-04-30T16:09:00Z</time>
      </trkpt>
      <trkpt lat="45.34661" lon="4.50547">
        <ele>1203.6</ele>
        <time>2023-04-30T16:09:01Z</time>
      </trkpt>
      <trkpt lat="45.34652" lon="4.50545">
        <ele>1202.8</ele>
        <time>2023-04-30T16:09:03Z</time>
      </trkpt>
      <trkpt lat="45.34638" lon="4.5054">
        <ele>1201.6</ele>
        <time>2023-04-30T16:09:06Z</time>
      </trkpt>
      <trkpt lat="45.34634" lon="4.50538">
        <ele>1200.8</ele>
        <time>2023-04-30T16:09:07Z</time>
      </trkpt>
      <trkpt lat="45.3463" lon="4.50537">
        <ele>1200.4</ele>
        <time>2023-04-30T16:09:08Z</time>
      </trkpt>
      <trkpt lat="45.34628" lon="4.50537">
        <ele>1200</ele>
        <time>2023-04-30T16:09:09Z</time>
      </trkpt>
      <trkpt lat="45.34624" lon="4.50536">
        <ele>1199.6</ele>
        <time>2023-04-30T16:09:10Z</time>
      </trkpt>
      <trkpt lat="45.34621" lon="4.50535">
        <ele>1199.2</ele>
        <time>2023-04-30T16:09:11Z</time>
      </trkpt>
      <trkpt lat="45.34617" lon="4.50536">
        <ele>1199</ele>
        <time>2023-04-30T16:09:12Z</time>
      </trkpt>
      <trkpt lat="45.34613" lon="4.50537">
        <ele>1199</ele>
        <time>2023-04-30T16:09:13Z</time>
      </trkpt>
      <trkpt lat="45.34609" lon="4.50538">
        <ele>1198.8</ele>
        <time>2023-04-30T16:09:14Z</time>
      </trkpt>
      <trkpt lat="45.34606" lon="4.50537">
        <ele>1198.6</ele>
        <time>2023-04-30T16:09:15Z</time>
      </trkpt>
      <trkpt lat="45.34602" lon="4.50538">
        <ele>1198.2</ele>
        <time>2023-04-30T16:09:16Z</time>
      </trkpt>
      <trkpt lat="45.34598" lon="4.50538">
        <ele>1198</ele>
        <time>2023-04-30T16:09:17Z</time>
      </trkpt>
      <trkpt lat="45.34567" lon="4.5054">
        <ele>1195.4</ele>
        <time>2023-04-30T16:09:26Z</time>
      </trkpt>
      <trkpt lat="45.34537" lon="4.50544">
        <ele>1193.6</ele>
        <time>2023-04-30T16:09:35Z</time>
      </trkpt>
      <trkpt lat="45.34516" lon="4.50541">
        <ele>1192</ele>
        <time>2023-04-30T16:09:42Z</time>
      </trkpt>
      <trkpt lat="45.34513" lon="4.50539">
        <ele>1191.8</ele>
        <time>2023-04-30T16:09:43Z</time>
      </trkpt>
      <trkpt lat="45.34493" lon="4.50516">
        <ele>1189.2</ele>
        <time>2023-04-30T16:09:51Z</time>
      </trkpt>
      <trkpt lat="45.34474" lon="4.50486">
        <ele>1185.8</ele>
        <time>2023-04-30T16:09:57Z</time>
      </trkpt>
      <trkpt lat="45.34466" lon="4.50475">
        <ele>1184.4</ele>
        <time>2023-04-30T16:09:59Z</time>
      </trkpt>
      <trkpt lat="45.34449" lon="4.50457">
        <ele>1181.2</ele>
        <time>2023-04-30T16:10:05Z</time>
      </trkpt>
      <trkpt lat="45.34442" lon="4.50434">
        <ele>1179.8</ele>
        <time>2023-04-30T16:10:12Z</time>
      </trkpt>
      <trkpt lat="45.34441" lon="4.50431">
        <ele>1179.6</ele>
        <time>2023-04-30T16:10:13Z</time>
      </trkpt>
      <trkpt lat="45.34439" lon="4.50398">
        <ele>1177.8</ele>
        <time>2023-04-30T16:10:23Z</time>
      </trkpt>
      <trkpt lat="45.34438" lon="4.50394">
        <ele>1177.6</ele>
        <time>2023-04-30T16:10:24Z</time>
      </trkpt>
      <trkpt lat="45.34438" lon="4.50391">
        <ele>1177.6</ele>
        <time>2023-04-30T16:10:25Z</time>
      </trkpt>
      <trkpt lat="45.34432" lon="4.50369">
        <ele>1175.8</ele>
        <time>2023-04-30T16:10:35Z</time>
      </trkpt>
      <trkpt lat="45.34424" lon="4.50352">
        <ele>1175.4</ele>
        <time>2023-04-30T16:11:27Z</time>
      </trkpt>
      <trkpt lat="45.34422" lon="4.50344">
        <ele>1175.4</ele>
        <time>2023-04-30T16:11:37Z</time>
      </trkpt>
      <trkpt lat="45.34421" lon="4.50343">
        <ele>1175.4</ele>
        <time>2023-04-30T16:11:38Z</time>
      </trkpt>
      <trkpt lat="45.34421" lon="4.50341">
        <ele>1175.4</ele>
        <time>2023-04-30T16:11:39Z</time>
      </trkpt>
      <trkpt lat="45.34421" lon="4.50338">
        <ele>1175.4</ele>
        <time>2023-04-30T16:11:40Z</time>
      </trkpt>
      <trkpt lat="45.3442" lon="4.50336">
        <ele>1175.4</ele>
        <time>2023-04-30T16:11:41Z</time>
      </trkpt>
      <trkpt lat="45.34419" lon="4.50334">
        <ele>1175.4</ele>
        <time>2023-04-30T16:11:42Z</time>
      </trkpt>
      <trkpt lat="45.34419" lon="4.50332">
        <ele>1175.4</ele>
        <time>2023-04-30T16:11:43Z</time>
      </trkpt>
      <trkpt lat="45.34418" lon="4.50326">
        <ele>1175.6</ele>
        <time>2023-04-30T16:11:46Z</time>
      </trkpt>
      <trkpt lat="45.34413" lon="4.50304">
        <ele>1176.2</ele>
        <time>2023-04-30T16:11:57Z</time>
      </trkpt>
      <trkpt lat="45.3441" lon="4.50295">
        <ele>1176.4</ele>
        <time>2023-04-30T16:12:01Z</time>
      </trkpt>
      <trkpt lat="45.34409" lon="4.50291">
        <ele>1176.4</ele>
        <time>2023-04-30T16:12:02Z</time>
      </trkpt>
      <trkpt lat="45.34409" lon="4.50288">
        <ele>1176.6</ele>
        <time>2023-04-30T16:12:03Z</time>
      </trkpt>
      <trkpt lat="45.34408" lon="4.50285">
        <ele>1176.6</ele>
        <time>2023-04-30T16:12:04Z</time>
      </trkpt>
      <trkpt lat="45.34408" lon="4.50282">
        <ele>1176.6</ele>
        <time>2023-04-30T16:12:05Z</time>
      </trkpt>
      <trkpt lat="45.34408" lon="4.50279">
        <ele>1176.6</ele>
        <time>2023-04-30T16:12:06Z</time>
      </trkpt>
      <trkpt lat="45.34408" lon="4.50277">
        <ele>1176.6</ele>
        <time>2023-04-30T16:12:07Z</time>
      </trkpt>
      <trkpt lat="45.34408" lon="4.50266">
        <ele>1176.6</ele>
        <time>2023-04-30T16:12:10Z</time>
      </trkpt>
      <trkpt lat="45.34407" lon="4.50262">
        <ele>1176.6</ele>
        <time>2023-04-30T16:12:11Z</time>
      </trkpt>
      <trkpt lat="45.34407" lon="4.50258">
        <ele>1176.6</ele>
        <time>2023-04-30T16:12:12Z</time>
      </trkpt>
      <trkpt lat="45.34411" lon="4.50223">
        <ele>1176.6</ele>
        <time>2023-04-30T16:12:23Z</time>
      </trkpt>
      <trkpt lat="45.34412" lon="4.50212">
        <ele>1175</ele>
        <time>2023-04-30T16:12:42Z</time>
      </trkpt>
      <trkpt lat="45.34413" lon="4.50207">
        <ele>1175</ele>
        <time>2023-04-30T16:12:43Z</time>
      </trkpt>
      <trkpt lat="45.34415" lon="4.50204">
        <ele>1175</ele>
        <time>2023-04-30T16:12:44Z</time>
      </trkpt>
      <trkpt lat="45.34416" lon="4.50198">
        <ele>1175</ele>
        <time>2023-04-30T16:12:46Z</time>
      </trkpt>
      <trkpt lat="45.34417" lon="4.50196">
        <ele>1175</ele>
        <time>2023-04-30T16:12:47Z</time>
      </trkpt>
      <trkpt lat="45.34417" lon="4.50194">
        <ele>1175</ele>
        <time>2023-04-30T16:12:48Z</time>
      </trkpt>
      <trkpt lat="45.34418" lon="4.50192">
        <ele>1175</ele>
        <time>2023-04-30T16:12:49Z</time>
      </trkpt>
      <trkpt lat="45.34419" lon="4.5019">
        <ele>1175</ele>
        <time>2023-04-30T16:12:50Z</time>
      </trkpt>
      <trkpt lat="45.34419" lon="4.50187">
        <ele>1175</ele>
        <time>2023-04-30T16:12:51Z</time>
      </trkpt>
      <trkpt lat="45.34419" lon="4.50184">
        <ele>1174.8</ele>
        <time>2023-04-30T16:12:52Z</time>
      </trkpt>
      <trkpt lat="45.34419" lon="4.50181">
        <ele>1174.8</ele>
        <time>2023-04-30T16:12:53Z</time>
      </trkpt>
      <trkpt lat="45.34422" lon="4.50161">
        <ele>1175.2</ele>
        <time>2023-04-30T16:13:03Z</time>
      </trkpt>
      <trkpt lat="45.34423" lon="4.50158">
        <ele>1175.2</ele>
        <time>2023-04-30T16:13:04Z</time>
      </trkpt>
      <trkpt lat="45.34423" lon="4.50155">
        <ele>1175.4</ele>
        <time>2023-04-30T16:13:05Z</time>
      </trkpt>
      <trkpt lat="45.34426" lon="4.50143">
        <ele>1176.4</ele>
        <time>2023-04-30T16:13:10Z</time>
      </trkpt>
      <trkpt lat="45.34429" lon="4.50134">
        <ele>1177.2</ele>
        <time>2023-04-30T16:13:14Z</time>
      </trkpt>
      <trkpt lat="45.3443" lon="4.50129">
        <ele>1177.4</ele>
        <time>2023-04-30T16:13:15Z</time>
      </trkpt>
      <trkpt lat="45.34437" lon="4.50092">
        <ele>1180.6</ele>
        <time>2023-04-30T16:13:29Z</time>
      </trkpt>
      <trkpt lat="45.3444" lon="4.50081">
        <ele>1181.2</ele>
        <time>2023-04-30T16:13:41Z</time>
      </trkpt>
      <trkpt lat="45.3444" lon="4.50075">
        <ele>1181.2</ele>
        <time>2023-04-30T16:14:13Z</time>
      </trkpt>
      <trkpt lat="45.34442" lon="4.50066">
        <ele>1181.2</ele>
        <time>2023-04-30T16:14:17Z</time>
      </trkpt>
      <trkpt lat="45.34448" lon="4.50054">
        <ele>1181</ele>
        <time>2023-04-30T16:14:23Z</time>
      </trkpt>
      <trkpt lat="45.3446" lon="4.50016">
        <ele>1180.8</ele>
        <time>2023-04-30T16:14:36Z</time>
      </trkpt>
      <trkpt lat="45.34463" lon="4.50002">
        <ele>1180.2</ele>
        <time>2023-04-30T16:14:41Z</time>
      </trkpt>
      <trkpt lat="45.34463" lon="4.49997">
        <ele>1180.2</ele>
        <time>2023-04-30T16:14:43Z</time>
      </trkpt>
      <trkpt lat="45.34463" lon="4.49986">
        <ele>1180.4</ele>
        <time>2023-04-30T16:14:59Z</time>
      </trkpt>
      <trkpt lat="45.34469" lon="4.49974">
        <ele>1180.6</ele>
        <time>2023-04-30T16:15:55Z</time>
      </trkpt>
      <trkpt lat="45.3447" lon="4.49959">
        <ele>1180.4</ele>
        <time>2023-04-30T16:15:59Z</time>
      </trkpt>
      <trkpt lat="45.34472" lon="4.4991">
        <ele>1179.4</ele>
        <time>2023-04-30T16:16:12Z</time>
      </trkpt>
      <trkpt lat="45.34471" lon="4.49907">
        <ele>1179.4</ele>
        <time>2023-04-30T16:16:13Z</time>
      </trkpt>
      <trkpt lat="45.3447" lon="4.49876">
        <ele>1178.6</ele>
        <time>2023-04-30T16:16:23Z</time>
      </trkpt>
      <trkpt lat="45.34465" lon="4.49864">
        <ele>1178.6</ele>
        <time>2023-04-30T16:16:28Z</time>
      </trkpt>
      <trkpt lat="45.3445" lon="4.49838">
        <ele>1179.4</ele>
        <time>2023-04-30T16:16:42Z</time>
      </trkpt>
      <trkpt lat="45.34438" lon="4.49825">
        <ele>1180.8</ele>
        <time>2023-04-30T16:16:53Z</time>
      </trkpt>
      <trkpt lat="45.34437" lon="4.49834">
        <ele>1182.4</ele>
        <time>2023-04-30T16:17:21Z</time>
      </trkpt>
      <trkpt lat="45.34438" lon="4.49851">
        <ele>1182.8</ele>
        <time>2023-04-30T16:17:34Z</time>
      </trkpt>
      <trkpt lat="45.34437" lon="4.49858">
        <ele>1183.2</ele>
        <time>2023-04-30T16:17:42Z</time>
      </trkpt>
      <trkpt lat="45.34435" lon="4.49861">
        <ele>1183.4</ele>
        <time>2023-04-30T16:17:45Z</time>
      </trkpt>
      <trkpt lat="45.34434" lon="4.49869">
        <ele>1184.4</ele>
        <time>2023-04-30T16:17:52Z</time>
      </trkpt>
      <trkpt lat="45.34434" lon="4.49881">
        <ele>1186.6</ele>
        <time>2023-04-30T16:18:08Z</time>
      </trkpt>
      <trkpt lat="45.34432" lon="4.49892">
        <ele>1187.6</ele>
        <time>2023-04-30T16:18:27Z</time>
      </trkpt>
      <trkpt lat="45.34431" lon="4.49892">
        <ele>1187.6</ele>
        <time>2023-04-30T16:18:42Z</time>
      </trkpt>
      <trkpt lat="45.34434" lon="4.49912">
        <ele>1188.4</ele>
        <time>2023-04-30T16:19:00Z</time>
      </trkpt>
      <trkpt lat="45.34434" lon="4.49924">
        <ele>1189.6</ele>
        <time>2023-04-30T16:19:13Z</time>
      </trkpt>
      <trkpt lat="45.34434" lon="4.49927">
        <ele>1189.8</ele>
        <time>2023-04-30T16:19:15Z</time>
      </trkpt>
      <trkpt lat="45.34434" lon="4.49947">
        <ele>1190.2</ele>
        <time>2023-04-30T16:19:30Z</time>
      </trkpt>
      <trkpt lat="45.34433" lon="4.4996">
        <ele>1190.8</ele>
        <time>2023-04-30T16:19:42Z</time>
      </trkpt>
      <trkpt lat="45.3443" lon="4.49979">
        <ele>1191.2</ele>
        <time>2023-04-30T16:19:57Z</time>
      </trkpt>
      <trkpt lat="45.34428" lon="4.49987">
        <ele>1191.6</ele>
        <time>2023-04-30T16:20:02Z</time>
      </trkpt>
      <trkpt lat="45.34419" lon="4.49998">
        <ele>1192.6</ele>
        <time>2023-04-30T16:20:19Z</time>
      </trkpt>
      <trkpt lat="45.34413" lon="4.50012">
        <ele>1194.6</ele>
        <time>2023-04-30T16:20:36Z</time>
      </trkpt>
      <trkpt lat="45.34404" lon="4.5002">
        <ele>1195.6</ele>
        <time>2023-04-30T16:20:51Z</time>
      </trkpt>
      <trkpt lat="45.34395" lon="4.5004">
        <ele>1197.4</ele>
        <time>2023-04-30T16:21:11Z</time>
      </trkpt>
      <trkpt lat="45.34386" lon="4.50052">
        <ele>1198.8</ele>
        <time>2023-04-30T16:21:25Z</time>
      </trkpt>
      <trkpt lat="45.34381" lon="4.50059">
        <ele>1201</ele>
        <time>2023-04-30T16:21:46Z</time>
      </trkpt>
      <trkpt lat="45.34374" lon="4.50066">
        <ele>1202.4</ele>
        <time>2023-04-30T16:22:11Z</time>
      </trkpt>
      <trkpt lat="45.34366" lon="4.50067">
        <ele>1204</ele>
        <time>2023-04-30T16:22:27Z</time>
      </trkpt>
      <trkpt lat="45.34357" lon="4.50068">
        <ele>1206.8</ele>
        <time>2023-04-30T16:22:48Z</time>
      </trkpt>
      <trkpt lat="45.34346" lon="4.50071">
        <ele>1209.2</ele>
        <time>2023-04-30T16:23:12Z</time>
      </trkpt>
      <trkpt lat="45.34345" lon="4.50073">
        <ele>1210.4</ele>
        <time>2023-04-30T16:23:57Z</time>
      </trkpt>
      <trkpt lat="45.34337" lon="4.50072">
        <ele>1211</ele>
        <time>2023-04-30T16:24:24Z</time>
      </trkpt>
      <trkpt lat="45.34334" lon="4.50069">
        <ele>1212.4</ele>
        <time>2023-04-30T16:24:46Z</time>
      </trkpt>
      <trkpt lat="45.3432" lon="4.50069">
        <ele>1213.6</ele>
        <time>2023-04-30T16:25:05Z</time>
      </trkpt>
      <trkpt lat="45.34309" lon="4.50074">
        <ele>1216.6</ele>
        <time>2023-04-30T16:25:25Z</time>
      </trkpt>
      <trkpt lat="45.34299" lon="4.50076">
        <ele>1218.6</ele>
        <time>2023-04-30T16:26:18Z</time>
      </trkpt>
      <trkpt lat="45.34287" lon="4.50073">
        <ele>1221.2</ele>
        <time>2023-04-30T16:26:40Z</time>
      </trkpt>
      <trkpt lat="45.34273" lon="4.50071">
        <ele>1222.6</ele>
        <time>2023-04-30T16:27:04Z</time>
      </trkpt>
      <trkpt lat="45.34257" lon="4.50071">
        <ele>1224.2</ele>
        <time>2023-04-30T16:27:27Z</time>
      </trkpt>
      <trkpt lat="45.34244" lon="4.5007">
        <ele>1225.4</ele>
        <time>2023-04-30T16:27:40Z</time>
      </trkpt>
      <trkpt lat="45.34235" lon="4.5007">
        <ele>1226.4</ele>
        <time>2023-04-30T16:27:47Z</time>
      </trkpt>
      <trkpt lat="45.34225" lon="4.50072">
        <ele>1227.8</ele>
        <time>2023-04-30T16:28:01Z</time>
      </trkpt>
      <trkpt lat="45.34218" lon="4.50078">
        <ele>1227.6</ele>
        <time>2023-04-30T16:28:23Z</time>
      </trkpt>
      <trkpt lat="45.34216" lon="4.5008">
        <ele>1227.6</ele>
        <time>2023-04-30T16:28:25Z</time>
      </trkpt>
      <trkpt lat="45.34202" lon="4.50088">
        <ele>1227.8</ele>
        <time>2023-04-30T16:28:35Z</time>
      </trkpt>
      <trkpt lat="45.34181" lon="4.50083">
        <ele>1228.6</ele>
        <time>2023-04-30T16:28:48Z</time>
      </trkpt>
      <trkpt lat="45.34164" lon="4.50091">
        <ele>1229.4</ele>
        <time>2023-04-30T16:28:58Z</time>
      </trkpt>
      <trkpt lat="45.34144" lon="4.5011">
        <ele>1229.6</ele>
        <time>2023-04-30T16:29:12Z</time>
      </trkpt>
      <trkpt lat="45.34124" lon="4.50126">
        <ele>1230</ele>
        <time>2023-04-30T16:29:26Z</time>
      </trkpt>
      <trkpt lat="45.34119" lon="4.50131">
        <ele>1230.2</ele>
        <time>2023-04-30T16:29:30Z</time>
      </trkpt>
      <trkpt lat="45.34112" lon="4.50135">
        <ele>1230.6</ele>
        <time>2023-04-30T16:29:35Z</time>
      </trkpt>
      <trkpt lat="45.34103" lon="4.5014">
        <ele>1231</ele>
        <time>2023-04-30T16:29:41Z</time>
      </trkpt>
      <trkpt lat="45.34098" lon="4.50146">
        <ele>1231.2</ele>
        <time>2023-04-30T16:29:46Z</time>
      </trkpt>
      <trkpt lat="45.34089" lon="4.50154">
        <ele>1232.4</ele>
        <time>2023-04-30T16:29:54Z</time>
      </trkpt>
      <trkpt lat="45.34076" lon="4.50164">
        <ele>1233.6</ele>
        <time>2023-04-30T16:30:02Z</time>
      </trkpt>
      <trkpt lat="45.34068" lon="4.50169">
        <ele>1233.8</ele>
        <time>2023-04-30T16:30:07Z</time>
      </trkpt>
      <trkpt lat="45.34061" lon="4.50174">
        <ele>1234.2</ele>
        <time>2023-04-30T16:30:11Z</time>
      </trkpt>
      <trkpt lat="45.34056" lon="4.5018">
        <ele>1236</ele>
        <time>2023-04-30T16:30:27Z</time>
      </trkpt>
      <trkpt lat="45.34051" lon="4.50186">
        <ele>1235.8</ele>
        <time>2023-04-30T16:31:18Z</time>
      </trkpt>
      <trkpt lat="45.34049" lon="4.50187">
        <ele>1235.8</ele>
        <time>2023-04-30T16:31:25Z</time>
      </trkpt>
      <trkpt lat="45.34046" lon="4.50188">
        <ele>1235.6</ele>
        <time>2023-04-30T16:31:28Z</time>
      </trkpt>
      <trkpt lat="45.3403" lon="4.5019">
        <ele>1235.8</ele>
        <time>2023-04-30T16:31:39Z</time>
      </trkpt>
      <trkpt lat="45.34022" lon="4.50185">
        <ele>1236.4</ele>
        <time>2023-04-30T16:31:45Z</time>
      </trkpt>
      <trkpt lat="45.33996" lon="4.50163">
        <ele>1237.6</ele>
        <time>2023-04-30T16:32:00Z</time>
      </trkpt>
      <trkpt lat="45.33983" lon="4.50145">
        <ele>1237.8</ele>
        <time>2023-04-30T16:32:13Z</time>
      </trkpt>
      <trkpt lat="45.33967" lon="4.50125">
        <ele>1237.8</ele>
        <time>2023-04-30T16:32:25Z</time>
      </trkpt>
      <trkpt lat="45.33947" lon="4.50104">
        <ele>1237.4</ele>
        <time>2023-04-30T16:32:39Z</time>
      </trkpt>
      <trkpt lat="45.33931" lon="4.50079">
        <ele>1237.4</ele>
        <time>2023-04-30T16:32:52Z</time>
      </trkpt>
      <trkpt lat="45.33908" lon="4.50052">
        <ele>1237.6</ele>
        <time>2023-04-30T16:33:07Z</time>
      </trkpt>
      <trkpt lat="45.33885" lon="4.50022">
        <ele>1238.6</ele>
        <time>2023-04-30T16:33:22Z</time>
      </trkpt>
      <trkpt lat="45.33869" lon="4.49996">
        <ele>1239.4</ele>
        <time>2023-04-30T16:33:34Z</time>
      </trkpt>
      <trkpt lat="45.33861" lon="4.49972">
        <ele>1239.8</ele>
        <time>2023-04-30T16:33:47Z</time>
      </trkpt>
      <trkpt lat="45.33858" lon="4.49968">
        <ele>1241.4</ele>
        <time>2023-04-30T16:34:02Z</time>
      </trkpt>
      <trkpt lat="45.33851" lon="4.49966">
        <ele>1241.4</ele>
        <time>2023-04-30T16:34:50Z</time>
      </trkpt>
      <trkpt lat="45.33849" lon="4.49958">
        <ele>1241.6</ele>
        <time>2023-04-30T16:34:55Z</time>
      </trkpt>
      <trkpt lat="45.33848" lon="4.49956">
        <ele>1241.6</ele>
        <time>2023-04-30T16:34:56Z</time>
      </trkpt>
      <trkpt lat="45.33842" lon="4.49936">
        <ele>1242.8</ele>
        <time>2023-04-30T16:35:11Z</time>
      </trkpt>
      <trkpt lat="45.33836" lon="4.49922">
        <ele>1244</ele>
        <time>2023-04-30T16:35:27Z</time>
      </trkpt>
      <trkpt lat="45.33824" lon="4.49897">
        <ele>1245.2</ele>
        <time>2023-04-30T16:35:46Z</time>
      </trkpt>
      <trkpt lat="45.33822" lon="4.49892">
        <ele>1245.4</ele>
        <time>2023-04-30T16:35:50Z</time>
      </trkpt>
      <trkpt lat="45.33811" lon="4.49877">
        <ele>1246.8</ele>
        <time>2023-04-30T16:36:07Z</time>
      </trkpt>
      <trkpt lat="45.33801" lon="4.49866">
        <ele>1248.2</ele>
        <time>2023-04-30T16:36:24Z</time>
      </trkpt>
      <trkpt lat="45.33795" lon="4.49858">
        <ele>1249.6</ele>
        <time>2023-04-30T16:36:39Z</time>
      </trkpt>
      <trkpt lat="45.33786" lon="4.49845">
        <ele>1250.8</ele>
        <time>2023-04-30T16:36:53Z</time>
      </trkpt>
      <trkpt lat="45.33777" lon="4.49829">
        <ele>1252.6</ele>
        <time>2023-04-30T16:37:12Z</time>
      </trkpt>
      <trkpt lat="45.33765" lon="4.49811">
        <ele>1254.8</ele>
        <time>2023-04-30T16:37:31Z</time>
      </trkpt>
      <trkpt lat="45.33759" lon="4.49803">
        <ele>1256.6</ele>
        <time>2023-04-30T16:37:54Z</time>
      </trkpt>
      <trkpt lat="45.33758" lon="4.49791">
        <ele>1256.8</ele>
        <time>2023-04-30T16:38:09Z</time>
      </trkpt>
      <trkpt lat="45.33759" lon="4.4979">
        <ele>1256.8</ele>
        <time>2023-04-30T16:38:10Z</time>
      </trkpt>
      <trkpt lat="45.33759" lon="4.49759">
        <ele>1257</ele>
        <time>2023-04-30T16:38:23Z</time>
      </trkpt>
      <trkpt lat="45.33756" lon="4.49732">
        <ele>1256.8</ele>
        <time>2023-04-30T16:38:31Z</time>
      </trkpt>
      <trkpt lat="45.33756" lon="4.4973">
        <ele>1256.8</ele>
        <time>2023-04-30T16:38:32Z</time>
      </trkpt>
      <trkpt lat="45.33755" lon="4.49727">
        <ele>1256.8</ele>
        <time>2023-04-30T16:38:33Z</time>
      </trkpt>
      <trkpt lat="45.33755" lon="4.49724">
        <ele>1256.8</ele>
        <time>2023-04-30T16:38:34Z</time>
      </trkpt>
      <trkpt lat="45.33754" lon="4.49722">
        <ele>1256.8</ele>
        <time>2023-04-30T16:38:35Z</time>
      </trkpt>
      <trkpt lat="45.33753" lon="4.49719">
        <ele>1256.8</ele>
        <time>2023-04-30T16:38:36Z</time>
      </trkpt>
      <trkpt lat="45.33752" lon="4.49716">
        <ele>1256.8</ele>
        <time>2023-04-30T16:38:37Z</time>
      </trkpt>
      <trkpt lat="45.33751" lon="4.49713">
        <ele>1256.8</ele>
        <time>2023-04-30T16:38:38Z</time>
      </trkpt>
      <trkpt lat="45.33749" lon="4.4971">
        <ele>1256.8</ele>
        <time>2023-04-30T16:38:39Z</time>
      </trkpt>
      <trkpt lat="45.33748" lon="4.49708">
        <ele>1256.8</ele>
        <time>2023-04-30T16:38:40Z</time>
      </trkpt>
      <trkpt lat="45.33747" lon="4.49706">
        <ele>1256.8</ele>
        <time>2023-04-30T16:38:41Z</time>
      </trkpt>
      <trkpt lat="45.33746" lon="4.49705">
        <ele>1256.8</ele>
        <time>2023-04-30T16:38:42Z</time>
      </trkpt>
      <trkpt lat="45.33739" lon="4.49692">
        <ele>1257.4</ele>
        <time>2023-04-30T16:38:52Z</time>
      </trkpt>
      <trkpt lat="45.33738" lon="4.49691">
        <ele>1257.6</ele>
        <time>2023-04-30T16:38:53Z</time>
      </trkpt>
      <trkpt lat="45.33737" lon="4.4969">
        <ele>1257.6</ele>
        <time>2023-04-30T16:38:54Z</time>
      </trkpt>
      <trkpt lat="45.33726" lon="4.49675">
        <ele>1258.2</ele>
        <time>2023-04-30T16:39:09Z</time>
      </trkpt>
      <trkpt lat="45.33723" lon="4.49673">
        <ele>1258.4</ele>
        <time>2023-04-30T16:39:12Z</time>
      </trkpt>
      <trkpt lat="45.33721" lon="4.4967">
        <ele>1258.4</ele>
        <time>2023-04-30T16:39:15Z</time>
      </trkpt>
      <trkpt lat="45.33706" lon="4.49654">
        <ele>1258.8</ele>
        <time>2023-04-30T16:39:28Z</time>
      </trkpt>
      <trkpt lat="45.33677" lon="4.4964">
        <ele>1259.2</ele>
        <time>2023-04-30T16:39:42Z</time>
      </trkpt>
      <trkpt lat="45.33645" lon="4.49639">
        <ele>1259.8</ele>
        <time>2023-04-30T16:39:56Z</time>
      </trkpt>
      <trkpt lat="45.33608" lon="4.49633">
        <ele>1259.8</ele>
        <time>2023-04-30T16:40:10Z</time>
      </trkpt>
      <trkpt lat="45.33563" lon="4.49601">
        <ele>1259</ele>
        <time>2023-04-30T16:40:27Z</time>
      </trkpt>
      <trkpt lat="45.33532" lon="4.4958">
        <ele>1258.6</ele>
        <time>2023-04-30T16:40:41Z</time>
      </trkpt>
      <trkpt lat="45.33502" lon="4.49555">
        <ele>1260.2</ele>
        <time>2023-04-30T16:40:57Z</time>
      </trkpt>
      <trkpt lat="45.33478" lon="4.49516">
        <ele>1260.6</ele>
        <time>2023-04-30T16:41:11Z</time>
      </trkpt>
      <trkpt lat="45.33464" lon="4.49478">
        <ele>1260.8</ele>
        <time>2023-04-30T16:41:20Z</time>
      </trkpt>
      <trkpt lat="45.33463" lon="4.49472">
        <ele>1260.8</ele>
        <time>2023-04-30T16:41:21Z</time>
      </trkpt>
      <trkpt lat="45.33461" lon="4.49465">
        <ele>1260.8</ele>
        <time>2023-04-30T16:41:22Z</time>
      </trkpt>
      <trkpt lat="45.3346" lon="4.49459">
        <ele>1260.8</ele>
        <time>2023-04-30T16:41:23Z</time>
      </trkpt>
      <trkpt lat="45.33457" lon="4.49453">
        <ele>1260.8</ele>
        <time>2023-04-30T16:41:24Z</time>
      </trkpt>
      <trkpt lat="45.33451" lon="4.49435">
        <ele>1260.4</ele>
        <time>2023-04-30T16:41:27Z</time>
      </trkpt>
      <trkpt lat="45.33439" lon="4.49413">
        <ele>1259.2</ele>
        <time>2023-04-30T16:41:31Z</time>
      </trkpt>
      <trkpt lat="45.33437" lon="4.49407">
        <ele>1258.6</ele>
        <time>2023-04-30T16:41:32Z</time>
      </trkpt>
      <trkpt lat="45.33431" lon="4.49395">
        <ele>1257.6</ele>
        <time>2023-04-30T16:41:34Z</time>
      </trkpt>
      <trkpt lat="45.33402" lon="4.49351">
        <ele>1257</ele>
        <time>2023-04-30T16:41:45Z</time>
      </trkpt>
      <trkpt lat="45.3338" lon="4.49315">
        <ele>1256.2</ele>
        <time>2023-04-30T16:41:56Z</time>
      </trkpt>
      <trkpt lat="45.33378" lon="4.49313">
        <ele>1256.2</ele>
        <time>2023-04-30T16:41:57Z</time>
      </trkpt>
      <trkpt lat="45.33376" lon="4.49311">
        <ele>1256</ele>
        <time>2023-04-30T16:41:58Z</time>
      </trkpt>
      <trkpt lat="45.33375" lon="4.49309">
        <ele>1255.8</ele>
        <time>2023-04-30T16:41:59Z</time>
      </trkpt>
      <trkpt lat="45.33373" lon="4.49306">
        <ele>1255.8</ele>
        <time>2023-04-30T16:42:00Z</time>
      </trkpt>
      <trkpt lat="45.33371" lon="4.49304">
        <ele>1255.8</ele>
        <time>2023-04-30T16:42:01Z</time>
      </trkpt>
      <trkpt lat="45.33352" lon="4.49284">
        <ele>1255.6</ele>
        <time>2023-04-30T16:42:11Z</time>
      </trkpt>
      <trkpt lat="45.33338" lon="4.49254">
        <ele>1254.2</ele>
        <time>2023-04-30T16:42:24Z</time>
      </trkpt>
      <trkpt lat="45.33327" lon="4.49215">
        <ele>1252.8</ele>
        <time>2023-04-30T16:42:34Z</time>
      </trkpt>
      <trkpt lat="45.33323" lon="4.49197">
        <ele>1252</ele>
        <time>2023-04-30T16:42:37Z</time>
      </trkpt>
      <trkpt lat="45.33322" lon="4.49191">
        <ele>1251.8</ele>
        <time>2023-04-30T16:42:38Z</time>
      </trkpt>
      <trkpt lat="45.33321" lon="4.49185">
        <ele>1251.6</ele>
        <time>2023-04-30T16:42:39Z</time>
      </trkpt>
      <trkpt lat="45.3332" lon="4.49179">
        <ele>1251.4</ele>
        <time>2023-04-30T16:42:40Z</time>
      </trkpt>
      <trkpt lat="45.33319" lon="4.49173">
        <ele>1251.2</ele>
        <time>2023-04-30T16:42:41Z</time>
      </trkpt>
      <trkpt lat="45.33318" lon="4.49167">
        <ele>1251</ele>
        <time>2023-04-30T16:42:42Z</time>
      </trkpt>
      <trkpt lat="45.33313" lon="4.49137">
        <ele>1249.8</ele>
        <time>2023-04-30T16:42:46Z</time>
      </trkpt>
      <trkpt lat="45.33307" lon="4.49106">
        <ele>1248</ele>
        <time>2023-04-30T16:42:50Z</time>
      </trkpt>
      <trkpt lat="45.33299" lon="4.49084">
        <ele>1247.4</ele>
        <time>2023-04-30T16:42:53Z</time>
      </trkpt>
      <trkpt lat="45.3328" lon="4.49048">
        <ele>1246.8</ele>
        <time>2023-04-30T16:42:59Z</time>
      </trkpt>
      <trkpt lat="45.33277" lon="4.49043">
        <ele>1246.6</ele>
        <time>2023-04-30T16:43:00Z</time>
      </trkpt>
      <trkpt lat="45.33273" lon="4.49039">
        <ele>1246.4</ele>
        <time>2023-04-30T16:43:01Z</time>
      </trkpt>
      <trkpt lat="45.33269" lon="4.49036">
        <ele>1246.2</ele>
        <time>2023-04-30T16:43:02Z</time>
      </trkpt>
      <trkpt lat="45.33265" lon="4.49033">
        <ele>1246.2</ele>
        <time>2023-04-30T16:43:03Z</time>
      </trkpt>
      <trkpt lat="45.3326" lon="4.4903">
        <ele>1246</ele>
        <time>2023-04-30T16:43:04Z</time>
      </trkpt>
      <trkpt lat="45.3324" lon="4.49011">
        <ele>1244.8</ele>
        <time>2023-04-30T16:43:08Z</time>
      </trkpt>
      <trkpt lat="45.33236" lon="4.49007">
        <ele>1244.4</ele>
        <time>2023-04-30T16:43:09Z</time>
      </trkpt>
      <trkpt lat="45.33196" lon="4.48973">
        <ele>1242.6</ele>
        <time>2023-04-30T16:43:20Z</time>
      </trkpt>
      <trkpt lat="45.33179" lon="4.48956">
        <ele>1241.4</ele>
        <time>2023-04-30T16:43:24Z</time>
      </trkpt>
      <trkpt lat="45.33174" lon="4.48954">
        <ele>1241</ele>
        <time>2023-04-30T16:43:25Z</time>
      </trkpt>
      <trkpt lat="45.33168" lon="4.48952">
        <ele>1240</ele>
        <time>2023-04-30T16:43:26Z</time>
      </trkpt>
      <trkpt lat="45.33164" lon="4.48952">
        <ele>1239.4</ele>
        <time>2023-04-30T16:43:27Z</time>
      </trkpt>
      <trkpt lat="45.33159" lon="4.48953">
        <ele>1238.4</ele>
        <time>2023-04-30T16:43:28Z</time>
      </trkpt>
      <trkpt lat="45.33155" lon="4.48956">
        <ele>1237.6</ele>
        <time>2023-04-30T16:43:29Z</time>
      </trkpt>
      <trkpt lat="45.3315" lon="4.4896">
        <ele>1237</ele>
        <time>2023-04-30T16:43:30Z</time>
      </trkpt>
      <trkpt lat="45.33145" lon="4.48964">
        <ele>1236.6</ele>
        <time>2023-04-30T16:43:31Z</time>
      </trkpt>
      <trkpt lat="45.33139" lon="4.48969">
        <ele>1236.4</ele>
        <time>2023-04-30T16:43:32Z</time>
      </trkpt>
      <trkpt lat="45.33133" lon="4.48976">
        <ele>1235.8</ele>
        <time>2023-04-30T16:43:33Z</time>
      </trkpt>
      <trkpt lat="45.33109" lon="4.48998">
        <ele>1233.6</ele>
        <time>2023-04-30T16:43:37Z</time>
      </trkpt>
      <trkpt lat="45.33103" lon="4.49">
        <ele>1233.2</ele>
        <time>2023-04-30T16:43:38Z</time>
      </trkpt>
      <trkpt lat="45.33092" lon="4.49005">
        <ele>1232.4</ele>
        <time>2023-04-30T16:43:40Z</time>
      </trkpt>
      <trkpt lat="45.33087" lon="4.49006">
        <ele>1231.6</ele>
        <time>2023-04-30T16:43:41Z</time>
      </trkpt>
      <trkpt lat="45.33082" lon="4.49007">
        <ele>1230.6</ele>
        <time>2023-04-30T16:43:42Z</time>
      </trkpt>
      <trkpt lat="45.33077" lon="4.49008">
        <ele>1229.6</ele>
        <time>2023-04-30T16:43:43Z</time>
      </trkpt>
      <trkpt lat="45.33074" lon="4.49009">
        <ele>1228.2</ele>
        <time>2023-04-30T16:43:44Z</time>
      </trkpt>
      <trkpt lat="45.3307" lon="4.4901">
        <ele>1227</ele>
        <time>2023-04-30T16:43:45Z</time>
      </trkpt>
      <trkpt lat="45.33058" lon="4.49016">
        <ele>1225</ele>
        <time>2023-04-30T16:43:48Z</time>
      </trkpt>
      <trkpt lat="45.33025" lon="4.49008">
        <ele>1222.2</ele>
        <time>2023-04-30T16:43:58Z</time>
      </trkpt>
      <trkpt lat="45.32997" lon="4.48998">
        <ele>1220</ele>
        <time>2023-04-30T16:44:08Z</time>
      </trkpt>
      <trkpt lat="45.3299" lon="4.48995">
        <ele>1217</ele>
        <time>2023-04-30T16:44:18Z</time>
      </trkpt>
      <trkpt lat="45.32986" lon="4.48995">
        <ele>1216.4</ele>
        <time>2023-04-30T16:44:27Z</time>
      </trkpt>
      <trkpt lat="45.32984" lon="4.48995">
        <ele>1216.4</ele>
        <time>2023-04-30T16:44:28Z</time>
      </trkpt>
      <trkpt lat="45.32981" lon="4.48994">
        <ele>1216.4</ele>
        <time>2023-04-30T16:44:29Z</time>
      </trkpt>
      <trkpt lat="45.32977" lon="4.48992">
        <ele>1216.4</ele>
        <time>2023-04-30T16:44:30Z</time>
      </trkpt>
      <trkpt lat="45.32973" lon="4.4899">
        <ele>1216.4</ele>
        <time>2023-04-30T16:44:31Z</time>
      </trkpt>
      <trkpt lat="45.32969" lon="4.48988">
        <ele>1216.4</ele>
        <time>2023-04-30T16:44:32Z</time>
      </trkpt>
      <trkpt lat="45.32965" lon="4.48986">
        <ele>1216.4</ele>
        <time>2023-04-30T16:44:33Z</time>
      </trkpt>
      <trkpt lat="45.32951" lon="4.48983">
        <ele>1216</ele>
        <time>2023-04-30T16:44:36Z</time>
      </trkpt>
      <trkpt lat="45.32946" lon="4.48984">
        <ele>1215.8</ele>
        <time>2023-04-30T16:44:37Z</time>
      </trkpt>
      <trkpt lat="45.32916" lon="4.48977">
        <ele>1212.2</ele>
        <time>2023-04-30T16:44:42Z</time>
      </trkpt>
      <trkpt lat="45.32912" lon="4.48973">
        <ele>1211.4</ele>
        <time>2023-04-30T16:44:43Z</time>
      </trkpt>
      <trkpt lat="45.32909" lon="4.48969">
        <ele>1210.8</ele>
        <time>2023-04-30T16:44:44Z</time>
      </trkpt>
      <trkpt lat="45.32906" lon="4.48965">
        <ele>1209.8</ele>
        <time>2023-04-30T16:44:45Z</time>
      </trkpt>
      <trkpt lat="45.32903" lon="4.48962">
        <ele>1209.2</ele>
        <time>2023-04-30T16:44:46Z</time>
      </trkpt>
      <trkpt lat="45.32901" lon="4.48958">
        <ele>1208</ele>
        <time>2023-04-30T16:44:47Z</time>
      </trkpt>
      <trkpt lat="45.32899" lon="4.48954">
        <ele>1207</ele>
        <time>2023-04-30T16:44:48Z</time>
      </trkpt>
      <trkpt lat="45.32877" lon="4.48918">
        <ele>1203.8</ele>
        <time>2023-04-30T16:44:57Z</time>
      </trkpt>
      <trkpt lat="45.3287" lon="4.48901">
        <ele>1202.4</ele>
        <time>2023-04-30T16:45:01Z</time>
      </trkpt>
      <trkpt lat="45.32867" lon="4.48899">
        <ele>1202</ele>
        <time>2023-04-30T16:45:02Z</time>
      </trkpt>
      <trkpt lat="45.32865" lon="4.48896">
        <ele>1201.8</ele>
        <time>2023-04-30T16:45:03Z</time>
      </trkpt>
      <trkpt lat="45.32864" lon="4.48894">
        <ele>1201.8</ele>
        <time>2023-04-30T16:45:04Z</time>
      </trkpt>
      <trkpt lat="45.32862" lon="4.48891">
        <ele>1201.4</ele>
        <time>2023-04-30T16:45:05Z</time>
      </trkpt>
      <trkpt lat="45.3286" lon="4.48888">
        <ele>1201.2</ele>
        <time>2023-04-30T16:45:06Z</time>
      </trkpt>
      <trkpt lat="45.32858" lon="4.48886">
        <ele>1201</ele>
        <time>2023-04-30T16:45:07Z</time>
      </trkpt>
      <trkpt lat="45.32856" lon="4.48884">
        <ele>1200.8</ele>
        <time>2023-04-30T16:45:08Z</time>
      </trkpt>
      <trkpt lat="45.32854" lon="4.4888">
        <ele>1200.6</ele>
        <time>2023-04-30T16:45:09Z</time>
      </trkpt>
      <trkpt lat="45.32852" lon="4.48876">
        <ele>1200.4</ele>
        <time>2023-04-30T16:45:10Z</time>
      </trkpt>
      <trkpt lat="45.3285" lon="4.48873">
        <ele>1200.2</ele>
        <time>2023-04-30T16:45:11Z</time>
      </trkpt>
      <trkpt lat="45.32848" lon="4.4887">
        <ele>1200.2</ele>
        <time>2023-04-30T16:45:12Z</time>
      </trkpt>
      <trkpt lat="45.32845" lon="4.48867">
        <ele>1200</ele>
        <time>2023-04-30T16:45:13Z</time>
      </trkpt>
      <trkpt lat="45.32843" lon="4.48864">
        <ele>1200</ele>
        <time>2023-04-30T16:45:14Z</time>
      </trkpt>
      <trkpt lat="45.32842" lon="4.48861">
        <ele>1199.8</ele>
        <time>2023-04-30T16:45:15Z</time>
      </trkpt>
      <trkpt lat="45.3284" lon="4.48857">
        <ele>1199.6</ele>
        <time>2023-04-30T16:45:16Z</time>
      </trkpt>
      <trkpt lat="45.32839" lon="4.48853">
        <ele>1199.6</ele>
        <time>2023-04-30T16:45:17Z</time>
      </trkpt>
      <trkpt lat="45.32837" lon="4.4885">
        <ele>1199.4</ele>
        <time>2023-04-30T16:45:18Z</time>
      </trkpt>
      <trkpt lat="45.32835" lon="4.48847">
        <ele>1199.4</ele>
        <time>2023-04-30T16:45:19Z</time>
      </trkpt>
      <trkpt lat="45.32818" lon="4.48809">
        <ele>1198</ele>
        <time>2023-04-30T16:45:29Z</time>
      </trkpt>
      <trkpt lat="45.32814" lon="4.48796">
        <ele>1197.6</ele>
        <time>2023-04-30T16:45:32Z</time>
      </trkpt>
      <trkpt lat="45.32804" lon="4.48763">
        <ele>1196.2</ele>
        <time>2023-04-30T16:45:37Z</time>
      </trkpt>
      <trkpt lat="45.32803" lon="4.48756">
        <ele>1195.8</ele>
        <time>2023-04-30T16:45:38Z</time>
      </trkpt>
      <trkpt lat="45.328" lon="4.48735">
        <ele>1195.2</ele>
        <time>2023-04-30T16:45:40Z</time>
      </trkpt>
      <trkpt lat="45.32791" lon="4.48708">
        <ele>1194.4</ele>
        <time>2023-04-30T16:45:43Z</time>
      </trkpt>
      <trkpt lat="45.32788" lon="4.48697">
        <ele>1193.8</ele>
        <time>2023-04-30T16:45:44Z</time>
      </trkpt>
      <trkpt lat="45.32786" lon="4.48686">
        <ele>1193.6</ele>
        <time>2023-04-30T16:45:45Z</time>
      </trkpt>
      <trkpt lat="45.32775" lon="4.48646">
        <ele>1192.2</ele>
        <time>2023-04-30T16:45:49Z</time>
      </trkpt>
      <trkpt lat="45.3277" lon="4.48629">
        <ele>1190.8</ele>
        <time>2023-04-30T16:45:51Z</time>
      </trkpt>
      <trkpt lat="45.32766" lon="4.48622">
        <ele>1189.8</ele>
        <time>2023-04-30T16:45:52Z</time>
      </trkpt>
      <trkpt lat="45.32764" lon="4.48615">
        <ele>1189</ele>
        <time>2023-04-30T16:45:53Z</time>
      </trkpt>
      <trkpt lat="45.32763" lon="4.48607">
        <ele>1187.8</ele>
        <time>2023-04-30T16:45:54Z</time>
      </trkpt>
      <trkpt lat="45.32762" lon="4.48599">
        <ele>1187.2</ele>
        <time>2023-04-30T16:45:55Z</time>
      </trkpt>
      <trkpt lat="45.32762" lon="4.48589">
        <ele>1186.8</ele>
        <time>2023-04-30T16:45:56Z</time>
      </trkpt>
      <trkpt lat="45.32762" lon="4.48579">
        <ele>1185.8</ele>
        <time>2023-04-30T16:45:57Z</time>
      </trkpt>
      <trkpt lat="45.32763" lon="4.48551">
        <ele>1183.8</ele>
        <time>2023-04-30T16:46:00Z</time>
      </trkpt>
      <trkpt lat="45.32763" lon="4.48512">
        <ele>1180</ele>
        <time>2023-04-30T16:46:04Z</time>
      </trkpt>
      <trkpt lat="45.32764" lon="4.48457">
        <ele>1176.6</ele>
        <time>2023-04-30T16:46:09Z</time>
      </trkpt>
      <trkpt lat="45.32765" lon="4.48447">
        <ele>1176</ele>
        <time>2023-04-30T16:46:10Z</time>
      </trkpt>
      <trkpt lat="45.32766" lon="4.48433">
        <ele>1175.6</ele>
        <time>2023-04-30T16:46:11Z</time>
      </trkpt>
      <trkpt lat="45.32767" lon="4.48421">
        <ele>1175.2</ele>
        <time>2023-04-30T16:46:12Z</time>
      </trkpt>
      <trkpt lat="45.32773" lon="4.48388">
        <ele>1172.4</ele>
        <time>2023-04-30T16:46:15Z</time>
      </trkpt>
      <trkpt lat="45.32774" lon="4.48377">
        <ele>1171.6</ele>
        <time>2023-04-30T16:46:16Z</time>
      </trkpt>
      <trkpt lat="45.32773" lon="4.48367">
        <ele>1170.6</ele>
        <time>2023-04-30T16:46:17Z</time>
      </trkpt>
      <trkpt lat="45.32772" lon="4.48357">
        <ele>1170</ele>
        <time>2023-04-30T16:46:18Z</time>
      </trkpt>
      <trkpt lat="45.3277" lon="4.48347">
        <ele>1167.4</ele>
        <time>2023-04-30T16:46:19Z</time>
      </trkpt>
      <trkpt lat="45.32766" lon="4.48308">
        <ele>1164.8</ele>
        <time>2023-04-30T16:46:23Z</time>
      </trkpt>
      <trkpt lat="45.32764" lon="4.48299">
        <ele>1164.6</ele>
        <time>2023-04-30T16:46:24Z</time>
      </trkpt>
      <trkpt lat="45.32761" lon="4.48288">
        <ele>1164.4</ele>
        <time>2023-04-30T16:46:25Z</time>
      </trkpt>
      <trkpt lat="45.32755" lon="4.48268">
        <ele>1164</ele>
        <time>2023-04-30T16:46:27Z</time>
      </trkpt>
      <trkpt lat="45.32748" lon="4.48249">
        <ele>1163</ele>
        <time>2023-04-30T16:46:29Z</time>
      </trkpt>
      <trkpt lat="45.32742" lon="4.4824">
        <ele>1162.8</ele>
        <time>2023-04-30T16:46:30Z</time>
      </trkpt>
      <trkpt lat="45.32718" lon="4.48204">
        <ele>1159</ele>
        <time>2023-04-30T16:46:36Z</time>
      </trkpt>
      <trkpt lat="45.32703" lon="4.48188">
        <ele>1156</ele>
        <time>2023-04-30T16:46:40Z</time>
      </trkpt>
      <trkpt lat="45.327" lon="4.48184">
        <ele>1155</ele>
        <time>2023-04-30T16:46:41Z</time>
      </trkpt>
      <trkpt lat="45.32696" lon="4.48178">
        <ele>1154.2</ele>
        <time>2023-04-30T16:46:42Z</time>
      </trkpt>
      <trkpt lat="45.32683" lon="4.48152">
        <ele>1150.8</ele>
        <time>2023-04-30T16:46:47Z</time>
      </trkpt>
      <trkpt lat="45.32673" lon="4.48139">
        <ele>1147.6</ele>
        <time>2023-04-30T16:46:51Z</time>
      </trkpt>
      <trkpt lat="45.32668" lon="4.48132">
        <ele>1146.2</ele>
        <time>2023-04-30T16:46:54Z</time>
      </trkpt>
      <trkpt lat="45.32632" lon="4.48135">
        <ele>1145.4</ele>
        <time>2023-04-30T16:47:02Z</time>
      </trkpt>
      <trkpt lat="45.3262" lon="4.48135">
        <ele>1145</ele>
        <time>2023-04-30T16:47:04Z</time>
      </trkpt>
      <trkpt lat="45.32615" lon="4.48133">
        <ele>1145</ele>
        <time>2023-04-30T16:47:05Z</time>
      </trkpt>
      <trkpt lat="45.32611" lon="4.48128">
        <ele>1144.8</ele>
        <time>2023-04-30T16:47:06Z</time>
      </trkpt>
      <trkpt lat="45.32611" lon="4.48121">
        <ele>1144.8</ele>
        <time>2023-04-30T16:47:07Z</time>
      </trkpt>
      <trkpt lat="45.32614" lon="4.48114">
        <ele>1144</ele>
        <time>2023-04-30T16:47:08Z</time>
      </trkpt>
      <trkpt lat="45.32619" lon="4.48111">
        <ele>1143.4</ele>
        <time>2023-04-30T16:47:09Z</time>
      </trkpt>
      <trkpt lat="45.32624" lon="4.48111">
        <ele>1143</ele>
        <time>2023-04-30T16:47:10Z</time>
      </trkpt>
      <trkpt lat="45.32628" lon="4.48113">
        <ele>1142.6</ele>
        <time>2023-04-30T16:47:11Z</time>
      </trkpt>
      <trkpt lat="45.32632" lon="4.48115">
        <ele>1142.4</ele>
        <time>2023-04-30T16:47:12Z</time>
      </trkpt>
      <trkpt lat="45.32634" lon="4.48117">
        <ele>1142.2</ele>
        <time>2023-04-30T16:47:13Z</time>
      </trkpt>
      <trkpt lat="45.32636" lon="4.48117">
        <ele>1142</ele>
        <time>2023-04-30T16:47:14Z</time>
      </trkpt>
      <trkpt lat="45.32637" lon="4.48116">
        <ele>1141.8</ele>
        <time>2023-04-30T16:47:19Z</time>
      </trkpt>
    </trkseg>
  </trk>
</gpx>